<gpx xmlns="http://www.topografix.com/GPX/1/1" xmlns:xsi="http://www.w3.org/2001/XMLSchema-instance" version="1.1" xsi:schemaLocation="http://www.topografix.com/GPX/1/1 http://www.topografix.com/GPX/1/1/gpx.xsd" creator="MotionXGPSFull 24.1 Build 5049R64">
<trk>
<name>New Years  Eve 2015</name>
<desc>31 Dec 2015  5:43 pm</desc>
<trkseg>
<trkpt lat="-27.3569379" lon="152.9563084">
<ele>29.157</ele>
<time>2015-12-31T07:43:13.632Z</time>
</trkpt>
<trkpt lat="-27.3569366" lon="152.9564563">
<ele>29.144</ele>
<time>2015-12-31T07:44:45.188Z</time>
</trkpt>
<trkpt lat="-27.3569366" lon="152.9564563">
<ele>29.144</ele>
<time>2015-12-31T07:44:45.188Z</time>
</trkpt>
<trkpt lat="-27.3568922" lon="152.9564371">
<ele>18.831</ele>
<time>2015-12-31T07:45:22.050Z</time>
</trkpt>
<trkpt lat="-27.3568922" lon="152.9564371">
<ele>18.822</ele>
<time>2015-12-31T07:45:23.048Z</time>
</trkpt>
<trkpt lat="-27.3568922" lon="152.9564371">
<ele>18.817</ele>
<time>2015-12-31T07:47:22.670Z</time>
</trkpt>
<trkpt lat="-27.3568910" lon="152.9566912">
<ele>18.813</ele>
<time>2015-12-31T07:47:50.045Z</time>
</trkpt>
<trkpt lat="-27.3568910" lon="152.9566912">
<ele>18.809</ele>
<time>2015-12-31T07:48:05.047Z</time>
</trkpt>
<trkpt lat="-27.3568910" lon="152.9566912">
<ele>18.803</ele>
<time>2015-12-31T07:50:49.647Z</time>
</trkpt>
<trkpt lat="-27.3567713" lon="152.9565310">
<ele>18.796</ele>
<time>2015-12-31T07:51:04.999Z</time>
</trkpt>
<trkpt lat="-27.3567713" lon="152.9565310">
<ele>18.791</ele>
<time>2015-12-31T07:51:16.999Z</time>
</trkpt>
<trkpt lat="-27.3567713" lon="152.9565310">
<ele>18.786</ele>
<time>2015-12-31T07:51:17.099Z</time>
</trkpt>
<trkpt lat="-27.3565054" lon="152.9567226">
<ele>18.780</ele>
<time>2015-12-31T07:51:22.874Z</time>
</trkpt>
<trkpt lat="-27.3563287" lon="152.9568586">
<ele>20.176</ele>
<time>2015-12-31T07:51:24.986Z</time>
</trkpt>
<trkpt lat="-27.3560322" lon="152.9570594">
<ele>23.820</ele>
<time>2015-12-31T07:51:28.212Z</time>
</trkpt>
<trkpt lat="-27.3558536" lon="152.9571813">
<ele>27.562</ele>
<time>2015-12-31T07:51:30.172Z</time>
</trkpt>
<trkpt lat="-27.3555571" lon="152.9572878">
<ele>29.344</ele>
<time>2015-12-31T07:51:33.178Z</time>
</trkpt>
<trkpt lat="-27.3552464" lon="152.9573499">
<ele>29.823</ele>
<time>2015-12-31T07:51:36.496Z</time>
</trkpt>
<trkpt lat="-27.3550077" lon="152.9573365">
<ele>30.094</ele>
<time>2015-12-31T07:51:39.879Z</time>
</trkpt>
<trkpt lat="-27.3549024" lon="152.9572930">
<ele>30.448</ele>
<time>2015-12-31T07:51:42.104Z</time>
</trkpt>
<trkpt lat="-27.3548427" lon="152.9573973">
<ele>30.551</ele>
<time>2015-12-31T07:51:44.238Z</time>
</trkpt>
<trkpt lat="-27.3548726" lon="152.9575420">
<ele>30.131</ele>
<time>2015-12-31T07:51:45.904Z</time>
</trkpt>
<trkpt lat="-27.3549204" lon="152.9578757">
<ele>29.190</ele>
<time>2015-12-31T07:51:48.888Z</time>
</trkpt>
<trkpt lat="-27.3549375" lon="152.9583187">
<ele>28.106</ele>
<time>2015-12-31T07:51:52.002Z</time>
</trkpt>
<trkpt lat="-27.3549487" lon="152.9586334">
<ele>27.510</ele>
<time>2015-12-31T07:51:54.012Z</time>
</trkpt>
<trkpt lat="-27.3549627" lon="152.9589427">
<ele>27.650</ele>
<time>2015-12-31T07:51:56.030Z</time>
</trkpt>
<trkpt lat="-27.3549885" lon="152.9592341">
<ele>28.227</ele>
<time>2015-12-31T07:51:57.950Z</time>
</trkpt>
<trkpt lat="-27.3550977" lon="152.9596618">
<ele>28.869</ele>
<time>2015-12-31T07:52:00.810Z</time>
</trkpt>
<trkpt lat="-27.3552123" lon="152.9599502">
<ele>29.192</ele>
<time>2015-12-31T07:52:02.768Z</time>
</trkpt>
<trkpt lat="-27.3553284" lon="152.9602426">
<ele>29.036</ele>
<time>2015-12-31T07:52:04.735Z</time>
</trkpt>
<trkpt lat="-27.3554397" lon="152.9605229">
<ele>28.760</ele>
<time>2015-12-31T07:52:06.659Z</time>
</trkpt>
<trkpt lat="-27.3555499" lon="152.9608045">
<ele>29.004</ele>
<time>2015-12-31T07:52:08.793Z</time>
</trkpt>
<trkpt lat="-27.3556516" lon="152.9612042">
<ele>30.027</ele>
<time>2015-12-31T07:52:12.053Z</time>
</trkpt>
<trkpt lat="-27.3556853" lon="152.9614255">
<ele>31.283</ele>
<time>2015-12-31T07:52:13.856Z</time>
</trkpt>
<trkpt lat="-27.3558913" lon="152.9617288">
<ele>31.977</ele>
<time>2015-12-31T07:52:16.593Z</time>
</trkpt>
<trkpt lat="-27.3560315" lon="152.9619991">
<ele>31.864</ele>
<time>2015-12-31T07:52:18.509Z</time>
</trkpt>
<trkpt lat="-27.3561227" lon="152.9621372">
<ele>31.232</ele>
<time>2015-12-31T07:52:19.508Z</time>
</trkpt>
<trkpt lat="-27.3564678" lon="152.9628038">
<ele>30.575</ele>
<time>2015-12-31T07:52:23.711Z</time>
</trkpt>
<trkpt lat="-27.3566159" lon="152.9631092">
<ele>30.163</ele>
<time>2015-12-31T07:52:25.579Z</time>
</trkpt>
<trkpt lat="-27.3568166" lon="152.9634057">
<ele>30.007</ele>
<time>2015-12-31T07:52:27.601Z</time>
</trkpt>
<trkpt lat="-27.3570424" lon="152.9636617">
<ele>29.998</ele>
<time>2015-12-31T07:52:29.603Z</time>
</trkpt>
<trkpt lat="-27.3573655" lon="152.9640197">
<ele>29.863</ele>
<time>2015-12-31T07:52:32.507Z</time>
</trkpt>
<trkpt lat="-27.3575804" lon="152.9642539">
<ele>29.472</ele>
<time>2015-12-31T07:52:34.493Z</time>
</trkpt>
<trkpt lat="-27.3578874" lon="152.9645883">
<ele>29.177</ele>
<time>2015-12-31T07:52:37.347Z</time>
</trkpt>
<trkpt lat="-27.3581897" lon="152.9649894">
<ele>29.499</ele>
<time>2015-12-31T07:52:40.449Z</time>
</trkpt>
<trkpt lat="-27.3583703" lon="152.9652531">
<ele>31.016</ele>
<time>2015-12-31T07:52:42.481Z</time>
</trkpt>
<trkpt lat="-27.3585686" lon="152.9656353">
<ele>33.480</ele>
<time>2015-12-31T07:52:45.289Z</time>
</trkpt>
<trkpt lat="-27.3586942" lon="152.9660671">
<ele>35.399</ele>
<time>2015-12-31T07:52:48.237Z</time>
</trkpt>
<trkpt lat="-27.3587021" lon="152.9665200">
<ele>35.897</ele>
<time>2015-12-31T07:52:51.124Z</time>
</trkpt>
<trkpt lat="-27.3586007" lon="152.9669837">
<ele>35.619</ele>
<time>2015-12-31T07:52:54.096Z</time>
</trkpt>
<trkpt lat="-27.3584813" lon="152.9672852">
<ele>35.318</ele>
<time>2015-12-31T07:52:56.114Z</time>
</trkpt>
<trkpt lat="-27.3582895" lon="152.9677357">
<ele>35.132</ele>
<time>2015-12-31T07:52:59.198Z</time>
</trkpt>
<trkpt lat="-27.3581839" lon="152.9679823">
<ele>34.868</ele>
<time>2015-12-31T07:53:00.945Z</time>
</trkpt>
<trkpt lat="-27.3580574" lon="152.9682324">
<ele>34.443</ele>
<time>2015-12-31T07:53:02.873Z</time>
</trkpt>
<trkpt lat="-27.3578866" lon="152.9685871">
<ele>33.942</ele>
<time>2015-12-31T07:53:05.802Z</time>
</trkpt>
<trkpt lat="-27.3577880" lon="152.9687931">
<ele>33.573</ele>
<time>2015-12-31T07:53:07.833Z</time>
</trkpt>
<trkpt lat="-27.3577199" lon="152.9689353">
<ele>33.657</ele>
<time>2015-12-31T07:53:09.519Z</time>
</trkpt>
<trkpt lat="-27.3576544" lon="152.9690741">
<ele>34.296</ele>
<time>2015-12-31T07:53:11.737Z</time>
</trkpt>
<trkpt lat="-27.3576051" lon="152.9691789">
<ele>35.111</ele>
<time>2015-12-31T07:53:13.999Z</time>
</trkpt>
<trkpt lat="-27.3576051" lon="152.9691789">
<ele>35.578</ele>
<time>2015-12-31T07:53:16.999Z</time>
</trkpt>
<trkpt lat="-27.3576051" lon="152.9691789">
<ele>35.554</ele>
<time>2015-12-31T07:53:22.230Z</time>
</trkpt>
<trkpt lat="-27.3575180" lon="152.9693621">
<ele>35.317</ele>
<time>2015-12-31T07:53:27.538Z</time>
</trkpt>
<trkpt lat="-27.3573816" lon="152.9698285">
<ele>34.723</ele>
<time>2015-12-31T07:53:33.502Z</time>
</trkpt>
<trkpt lat="-27.3576330" lon="152.9697437">
<ele>32.859</ele>
<time>2015-12-31T07:53:35.918Z</time>
</trkpt>
<trkpt lat="-27.3579233" lon="152.9698840">
<ele>29.788</ele>
<time>2015-12-31T07:53:38.418Z</time>
</trkpt>
<trkpt lat="-27.3583091" lon="152.9701158">
<ele>27.125</ele>
<time>2015-12-31T07:53:41.359Z</time>
</trkpt>
<trkpt lat="-27.3585749" lon="152.9702992">
<ele>25.968</ele>
<time>2015-12-31T07:53:43.346Z</time>
</trkpt>
<trkpt lat="-27.3589888" lon="152.9705650">
<ele>26.069</ele>
<time>2015-12-31T07:53:46.328Z</time>
</trkpt>
<trkpt lat="-27.3592554" lon="152.9707238">
<ele>26.731</ele>
<time>2015-12-31T07:53:48.178Z</time>
</trkpt>
<trkpt lat="-27.3596907" lon="152.9710154">
<ele>27.503</ele>
<time>2015-12-31T07:53:51.175Z</time>
</trkpt>
<trkpt lat="-27.3601026" lon="152.9712936">
<ele>28.575</ele>
<time>2015-12-31T07:53:53.827Z</time>
</trkpt>
<trkpt lat="-27.3605555" lon="152.9716067">
<ele>30.416</ele>
<time>2015-12-31T07:53:56.573Z</time>
</trkpt>
<trkpt lat="-27.3610620" lon="152.9719439">
<ele>32.932</ele>
<time>2015-12-31T07:53:59.595Z</time>
</trkpt>
<trkpt lat="-27.3615728" lon="152.9722422">
<ele>35.414</ele>
<time>2015-12-31T07:54:02.663Z</time>
</trkpt>
<trkpt lat="-27.3618987" lon="152.9724402">
<ele>37.373</ele>
<time>2015-12-31T07:54:04.667Z</time>
</trkpt>
<trkpt lat="-27.3622041" lon="152.9726664">
<ele>38.856</ele>
<time>2015-12-31T07:54:06.646Z</time>
</trkpt>
<trkpt lat="-27.3625036" lon="152.9729112">
<ele>39.873</ele>
<time>2015-12-31T07:54:08.638Z</time>
</trkpt>
<trkpt lat="-27.3629156" lon="152.9733254">
<ele>40.266</ele>
<time>2015-12-31T07:54:11.577Z</time>
</trkpt>
<trkpt lat="-27.3633660" lon="152.9737281">
<ele>40.125</ele>
<time>2015-12-31T07:54:14.643Z</time>
</trkpt>
<trkpt lat="-27.3636722" lon="152.9739343">
<ele>40.084</ele>
<time>2015-12-31T07:54:16.589Z</time>
</trkpt>
<trkpt lat="-27.3639665" lon="152.9741289">
<ele>40.777</ele>
<time>2015-12-31T07:54:18.464Z</time>
</trkpt>
<trkpt lat="-27.3644446" lon="152.9744184">
<ele>42.354</ele>
<time>2015-12-31T07:54:21.474Z</time>
</trkpt>
<trkpt lat="-27.3647287" lon="152.9746552">
<ele>44.340</ele>
<time>2015-12-31T07:54:23.429Z</time>
</trkpt>
<trkpt lat="-27.3651347" lon="152.9750534">
<ele>45.825</ele>
<time>2015-12-31T07:54:26.356Z</time>
</trkpt>
<trkpt lat="-27.3653962" lon="152.9753300">
<ele>46.282</ele>
<time>2015-12-31T07:54:28.280Z</time>
</trkpt>
<trkpt lat="-27.3656324" lon="152.9756671">
<ele>45.727</ele>
<time>2015-12-31T07:54:30.318Z</time>
</trkpt>
<trkpt lat="-27.3658498" lon="152.9759847">
<ele>44.515</ele>
<time>2015-12-31T07:54:32.212Z</time>
</trkpt>
<trkpt lat="-27.3660734" lon="152.9762996">
<ele>43.497</ele>
<time>2015-12-31T07:54:34.111Z</time>
</trkpt>
<trkpt lat="-27.3664010" lon="152.9767955">
<ele>43.193</ele>
<time>2015-12-31T07:54:37.010Z</time>
</trkpt>
<trkpt lat="-27.3667511" lon="152.9772742">
<ele>42.697</ele>
<time>2015-12-31T07:54:39.926Z</time>
</trkpt>
<trkpt lat="-27.3669825" lon="152.9776058">
<ele>40.991</ele>
<time>2015-12-31T07:54:41.933Z</time>
</trkpt>
<trkpt lat="-27.3672042" lon="152.9779304">
<ele>38.726</ele>
<time>2015-12-31T07:54:43.895Z</time>
</trkpt>
<trkpt lat="-27.3675692" lon="152.9783607">
<ele>37.225</ele>
<time>2015-12-31T07:54:46.715Z</time>
</trkpt>
<trkpt lat="-27.3680187" lon="152.9787856">
<ele>36.354</ele>
<time>2015-12-31T07:54:49.827Z</time>
</trkpt>
<trkpt lat="-27.3685036" lon="152.9790926">
<ele>35.209</ele>
<time>2015-12-31T07:54:52.769Z</time>
</trkpt>
<trkpt lat="-27.3690230" lon="152.9793579">
<ele>33.805</ele>
<time>2015-12-31T07:54:55.692Z</time>
</trkpt>
<trkpt lat="-27.3695575" lon="152.9795998">
<ele>32.845</ele>
<time>2015-12-31T07:54:58.551Z</time>
</trkpt>
<trkpt lat="-27.3699143" lon="152.9797880">
<ele>32.692</ele>
<time>2015-12-31T07:55:00.494Z</time>
</trkpt>
<trkpt lat="-27.3702933" lon="152.9799646">
<ele>33.529</ele>
<time>2015-12-31T07:55:02.531Z</time>
</trkpt>
<trkpt lat="-27.3708582" lon="152.9801804">
<ele>35.071</ele>
<time>2015-12-31T07:55:05.522Z</time>
</trkpt>
<trkpt lat="-27.3714617" lon="152.9803144">
<ele>36.420</ele>
<time>2015-12-31T07:55:08.642Z</time>
</trkpt>
<trkpt lat="-27.3720447" lon="152.9804105">
<ele>37.108</ele>
<time>2015-12-31T07:55:11.673Z</time>
</trkpt>
<trkpt lat="-27.3726179" lon="152.9804521">
<ele>37.594</ele>
<time>2015-12-31T07:55:14.632Z</time>
</trkpt>
<trkpt lat="-27.3729811" lon="152.9804427">
<ele>38.201</ele>
<time>2015-12-31T07:55:16.467Z</time>
</trkpt>
<trkpt lat="-27.3733958" lon="152.9804074">
<ele>38.959</ele>
<time>2015-12-31T07:55:18.519Z</time>
</trkpt>
<trkpt lat="-27.3737883" lon="152.9803909">
<ele>40.111</ele>
<time>2015-12-31T07:55:20.440Z</time>
</trkpt>
<trkpt lat="-27.3741836" lon="152.9803816">
<ele>41.585</ele>
<time>2015-12-31T07:55:22.375Z</time>
</trkpt>
<trkpt lat="-27.3748023" lon="152.9803749">
<ele>42.720</ele>
<time>2015-12-31T07:55:25.441Z</time>
</trkpt>
<trkpt lat="-27.3754003" lon="152.9803717">
<ele>43.415</ele>
<time>2015-12-31T07:55:28.600Z</time>
</trkpt>
<trkpt lat="-27.3759200" lon="152.9804071">
<ele>44.628</ele>
<time>2015-12-31T07:55:31.555Z</time>
</trkpt>
<trkpt lat="-27.3764491" lon="152.9804377">
<ele>48.243</ele>
<time>2015-12-31T07:55:34.571Z</time>
</trkpt>
<trkpt lat="-27.3769758" lon="152.9804983">
<ele>54.206</ele>
<time>2015-12-31T07:55:37.554Z</time>
</trkpt>
<trkpt lat="-27.3773242" lon="152.9805433">
<ele>59.462</ele>
<time>2015-12-31T07:55:39.548Z</time>
</trkpt>
<trkpt lat="-27.3776656" lon="152.9805916">
<ele>61.916</ele>
<time>2015-12-31T07:55:41.515Z</time>
</trkpt>
<trkpt lat="-27.3780029" lon="152.9806484">
<ele>62.219</ele>
<time>2015-12-31T07:55:43.461Z</time>
</trkpt>
<trkpt lat="-27.3785161" lon="152.9807330">
<ele>61.423</ele>
<time>2015-12-31T07:55:46.432Z</time>
</trkpt>
<trkpt lat="-27.3788495" lon="152.9807887">
<ele>60.189</ele>
<time>2015-12-31T07:55:48.375Z</time>
</trkpt>
<trkpt lat="-27.3793485" lon="152.9808944">
<ele>58.781</ele>
<time>2015-12-31T07:55:51.320Z</time>
</trkpt>
<trkpt lat="-27.3798352" lon="152.9810563">
<ele>57.195</ele>
<time>2015-12-31T07:55:54.236Z</time>
</trkpt>
<trkpt lat="-27.3803036" lon="152.9813196">
<ele>55.422</ele>
<time>2015-12-31T07:55:57.180Z</time>
</trkpt>
<trkpt lat="-27.3806085" lon="152.9815360">
<ele>53.806</ele>
<time>2015-12-31T07:55:59.159Z</time>
</trkpt>
<trkpt lat="-27.3808967" lon="152.9818048">
<ele>52.669</ele>
<time>2015-12-31T07:56:01.203Z</time>
</trkpt>
<trkpt lat="-27.3811549" lon="152.9821093">
<ele>51.974</ele>
<time>2015-12-31T07:56:03.261Z</time>
</trkpt>
<trkpt lat="-27.3814135" lon="152.9823721">
<ele>51.584</ele>
<time>2015-12-31T07:56:05.196Z</time>
</trkpt>
<trkpt lat="-27.3818024" lon="152.9827651">
<ele>51.424</ele>
<time>2015-12-31T07:56:08.106Z</time>
</trkpt>
<trkpt lat="-27.3822527" lon="152.9830734">
<ele>51.218</ele>
<time>2015-12-31T07:56:10.999Z</time>
</trkpt>
<trkpt lat="-27.3827764" lon="152.9832503">
<ele>50.797</ele>
<time>2015-12-31T07:56:13.951Z</time>
</trkpt>
<trkpt lat="-27.3833280" lon="152.9834292">
<ele>50.369</ele>
<time>2015-12-31T07:56:17.052Z</time>
</trkpt>
<trkpt lat="-27.3836794" lon="152.9835010">
<ele>50.108</ele>
<time>2015-12-31T07:56:19.009Z</time>
</trkpt>
<trkpt lat="-27.3840341" lon="152.9835809">
<ele>50.282</ele>
<time>2015-12-31T07:56:21.021Z</time>
</trkpt>
<trkpt lat="-27.3845439" lon="152.9837537">
<ele>51.335</ele>
<time>2015-12-31T07:56:24.013Z</time>
</trkpt>
<trkpt lat="-27.3848554" lon="152.9839188">
<ele>53.240</ele>
<time>2015-12-31T07:56:25.968Z</time>
</trkpt>
<trkpt lat="-27.3851551" lon="152.9841187">
<ele>55.306</ele>
<time>2015-12-31T07:56:27.964Z</time>
</trkpt>
<trkpt lat="-27.3855586" lon="152.9844602">
<ele>56.783</ele>
<time>2015-12-31T07:56:30.877Z</time>
</trkpt>
<trkpt lat="-27.3858325" lon="152.9846751">
<ele>57.453</ele>
<time>2015-12-31T07:56:32.813Z</time>
</trkpt>
<trkpt lat="-27.3861571" lon="152.9847965">
<ele>57.717</ele>
<time>2015-12-31T07:56:34.791Z</time>
</trkpt>
<trkpt lat="-27.3866748" lon="152.9848368">
<ele>58.007</ele>
<time>2015-12-31T07:56:37.804Z</time>
</trkpt>
<trkpt lat="-27.3870092" lon="152.9848467">
<ele>58.551</ele>
<time>2015-12-31T07:56:39.837Z</time>
</trkpt>
<trkpt lat="-27.3874816" lon="152.9848917">
<ele>59.253</ele>
<time>2015-12-31T07:56:42.840Z</time>
</trkpt>
<trkpt lat="-27.3877773" lon="152.9849423">
<ele>60.238</ele>
<time>2015-12-31T07:56:44.787Z</time>
</trkpt>
<trkpt lat="-27.3880779" lon="152.9849719">
<ele>61.602</ele>
<time>2015-12-31T07:56:46.747Z</time>
</trkpt>
<trkpt lat="-27.3885295" lon="152.9850503">
<ele>62.777</ele>
<time>2015-12-31T07:56:49.737Z</time>
</trkpt>
<trkpt lat="-27.3888300" lon="152.9851175">
<ele>63.558</ele>
<time>2015-12-31T07:56:51.735Z</time>
</trkpt>
<trkpt lat="-27.3892960" lon="152.9851327">
<ele>64.431</ele>
<time>2015-12-31T07:56:54.762Z</time>
</trkpt>
<trkpt lat="-27.3897459" lon="152.9851512">
<ele>65.473</ele>
<time>2015-12-31T07:56:57.664Z</time>
</trkpt>
<trkpt lat="-27.3900660" lon="152.9851619">
<ele>66.666</ele>
<time>2015-12-31T07:56:59.704Z</time>
</trkpt>
<trkpt lat="-27.3905413" lon="152.9852075">
<ele>68.131</ele>
<time>2015-12-31T07:57:02.780Z</time>
</trkpt>
<trkpt lat="-27.3908355" lon="152.9851884">
<ele>70.017</ele>
<time>2015-12-31T07:57:04.699Z</time>
</trkpt>
<trkpt lat="-27.3912847" lon="152.9851151">
<ele>72.125</ele>
<time>2015-12-31T07:57:07.638Z</time>
</trkpt>
<trkpt lat="-27.3915898" lon="152.9850760">
<ele>73.676</ele>
<time>2015-12-31T07:57:09.610Z</time>
</trkpt>
<trkpt lat="-27.3919015" lon="152.9850159">
<ele>74.194</ele>
<time>2015-12-31T07:57:11.594Z</time>
</trkpt>
<trkpt lat="-27.3923832" lon="152.9849597">
<ele>73.771</ele>
<time>2015-12-31T07:57:14.554Z</time>
</trkpt>
<trkpt lat="-27.3928817" lon="152.9850878">
<ele>72.227</ele>
<time>2015-12-31T07:57:17.603Z</time>
</trkpt>
<trkpt lat="-27.3931868" lon="152.9852207">
<ele>69.824</ele>
<time>2015-12-31T07:57:19.625Z</time>
</trkpt>
<trkpt lat="-27.3936205" lon="152.9854001">
<ele>67.697</ele>
<time>2015-12-31T07:57:22.697Z</time>
</trkpt>
<trkpt lat="-27.3938597" lon="152.9855001">
<ele>66.836</ele>
<time>2015-12-31T07:57:24.762Z</time>
</trkpt>
<trkpt lat="-27.3940310" lon="152.9855910">
<ele>67.218</ele>
<time>2015-12-31T07:57:26.557Z</time>
</trkpt>
<trkpt lat="-27.3942067" lon="152.9856752">
<ele>68.110</ele>
<time>2015-12-31T07:57:28.422Z</time>
</trkpt>
<trkpt lat="-27.3945054" lon="152.9858096">
<ele>69.093</ele>
<time>2015-12-31T07:57:31.246Z</time>
</trkpt>
<trkpt lat="-27.3949497" lon="152.9860018">
<ele>70.138</ele>
<time>2015-12-31T07:57:34.585Z</time>
</trkpt>
<trkpt lat="-27.3954156" lon="152.9861888">
<ele>70.376</ele>
<time>2015-12-31T07:57:37.640Z</time>
</trkpt>
<trkpt lat="-27.3958694" lon="152.9864150">
<ele>68.697</ele>
<time>2015-12-31T07:57:40.639Z</time>
</trkpt>
<trkpt lat="-27.3963210" lon="152.9866077">
<ele>65.594</ele>
<time>2015-12-31T07:57:43.592Z</time>
</trkpt>
<trkpt lat="-27.3966152" lon="152.9867379">
<ele>62.676</ele>
<time>2015-12-31T07:57:45.611Z</time>
</trkpt>
<trkpt lat="-27.3970320" lon="152.9869202">
<ele>60.943</ele>
<time>2015-12-31T07:57:48.586Z</time>
</trkpt>
<trkpt lat="-27.3972792" lon="152.9870347">
<ele>60.986</ele>
<time>2015-12-31T07:57:50.582Z</time>
</trkpt>
<trkpt lat="-27.3976248" lon="152.9870647">
<ele>63.275</ele>
<time>2015-12-31T07:57:53.410Z</time>
</trkpt>
<trkpt lat="-27.3978335" lon="152.9869626">
<ele>66.891</ele>
<time>2015-12-31T07:57:55.298Z</time>
</trkpt>
<trkpt lat="-27.3981857" lon="152.9866865">
<ele>69.845</ele>
<time>2015-12-31T07:57:58.581Z</time>
</trkpt>
<trkpt lat="-27.3984285" lon="152.9865254">
<ele>71.101</ele>
<time>2015-12-31T07:58:00.596Z</time>
</trkpt>
<trkpt lat="-27.3986596" lon="152.9863514">
<ele>70.710</ele>
<time>2015-12-31T07:58:02.583Z</time>
</trkpt>
<trkpt lat="-27.3990566" lon="152.9862389">
<ele>68.918</ele>
<time>2015-12-31T07:58:05.458Z</time>
</trkpt>
<trkpt lat="-27.3993476" lon="152.9862772">
<ele>65.718</ele>
<time>2015-12-31T07:58:07.406Z</time>
</trkpt>
<trkpt lat="-27.3998136" lon="152.9863770">
<ele>61.489</ele>
<time>2015-12-31T07:58:10.400Z</time>
</trkpt>
<trkpt lat="-27.4001173" lon="152.9864439">
<ele>57.265</ele>
<time>2015-12-31T07:58:12.295Z</time>
</trkpt>
<trkpt lat="-27.4004445" lon="152.9865158">
<ele>53.890</ele>
<time>2015-12-31T07:58:14.357Z</time>
</trkpt>
<trkpt lat="-27.4007462" lon="152.9865812">
<ele>51.391</ele>
<time>2015-12-31T07:58:16.307Z</time>
</trkpt>
<trkpt lat="-27.4011669" lon="152.9867580">
<ele>48.744</ele>
<time>2015-12-31T07:58:19.206Z</time>
</trkpt>
<trkpt lat="-27.4014332" lon="152.9869207">
<ele>45.130</ele>
<time>2015-12-31T07:58:21.214Z</time>
</trkpt>
<trkpt lat="-27.4017177" lon="152.9870056">
<ele>41.525</ele>
<time>2015-12-31T07:58:23.177Z</time>
</trkpt>
<trkpt lat="-27.4021985" lon="152.9870424">
<ele>39.276</ele>
<time>2015-12-31T07:58:26.373Z</time>
</trkpt>
<trkpt lat="-27.4024879" lon="152.9870896">
<ele>38.446</ele>
<time>2015-12-31T07:58:28.346Z</time>
</trkpt>
<trkpt lat="-27.4027342" lon="152.9871733">
<ele>38.112</ele>
<time>2015-12-31T07:58:30.100Z</time>
</trkpt>
<trkpt lat="-27.4030002" lon="152.9873805">
<ele>37.250</ele>
<time>2015-12-31T07:58:32.261Z</time>
</trkpt>
<trkpt lat="-27.4033479" lon="152.9877024">
<ele>35.897</ele>
<time>2015-12-31T07:58:35.210Z</time>
</trkpt>
<trkpt lat="-27.4037063" lon="152.9880253">
<ele>34.807</ele>
<time>2015-12-31T07:58:38.200Z</time>
</trkpt>
<trkpt lat="-27.4039374" lon="152.9882201">
<ele>34.280</ele>
<time>2015-12-31T07:58:40.110Z</time>
</trkpt>
<trkpt lat="-27.4042962" lon="152.9885160">
<ele>34.119</ele>
<time>2015-12-31T07:58:43.106Z</time>
</trkpt>
<trkpt lat="-27.4045132" lon="152.9887134">
<ele>34.126</ele>
<time>2015-12-31T07:58:45.041Z</time>
</trkpt>
<trkpt lat="-27.4047002" lon="152.9889434">
<ele>34.178</ele>
<time>2015-12-31T07:58:46.957Z</time>
</trkpt>
<trkpt lat="-27.4049411" lon="152.9893553">
<ele>34.181</ele>
<time>2015-12-31T07:58:49.921Z</time>
</trkpt>
<trkpt lat="-27.4051097" lon="152.9896369">
<ele>34.058</ele>
<time>2015-12-31T07:58:51.902Z</time>
</trkpt>
<trkpt lat="-27.4053015" lon="152.9899265">
<ele>33.762</ele>
<time>2015-12-31T07:58:54.001Z</time>
</trkpt>
<trkpt lat="-27.4055917" lon="152.9902911">
<ele>33.170</ele>
<time>2015-12-31T07:58:56.900Z</time>
</trkpt>
<trkpt lat="-27.4057743" lon="152.9905170">
<ele>32.014</ele>
<time>2015-12-31T07:58:58.854Z</time>
</trkpt>
<trkpt lat="-27.4059952" lon="152.9907245">
<ele>30.496</ele>
<time>2015-12-31T07:59:01.073Z</time>
</trkpt>
<trkpt lat="-27.4062911" lon="152.9908062">
<ele>29.520</ele>
<time>2015-12-31T07:59:03.756Z</time>
</trkpt>
<trkpt lat="-27.4065944" lon="152.9908379">
<ele>29.524</ele>
<time>2015-12-31T07:59:06.757Z</time>
</trkpt>
<trkpt lat="-27.4067366" lon="152.9908628">
<ele>29.982</ele>
<time>2015-12-31T07:59:08.624Z</time>
</trkpt>
<trkpt lat="-27.4068746" lon="152.9908715">
<ele>30.251</ele>
<time>2015-12-31T07:59:11.000Z</time>
</trkpt>
<trkpt lat="-27.4068746" lon="152.9908715">
<ele>30.219</ele>
<time>2015-12-31T07:59:15.000Z</time>
</trkpt>
<trkpt lat="-27.4068746" lon="152.9908715">
<ele>30.138</ele>
<time>2015-12-31T07:59:55.281Z</time>
</trkpt>
<trkpt lat="-27.4071159" lon="152.9909135">
<ele>30.144</ele>
<time>2015-12-31T08:00:00.506Z</time>
</trkpt>
<trkpt lat="-27.4072786" lon="152.9909212">
<ele>29.555</ele>
<time>2015-12-31T08:00:02.102Z</time>
</trkpt>
<trkpt lat="-27.4078215" lon="152.9909589">
<ele>27.904</ele>
<time>2015-12-31T08:00:06.649Z</time>
</trkpt>
<trkpt lat="-27.4081098" lon="152.9909683">
<ele>26.158</ele>
<time>2015-12-31T08:00:08.729Z</time>
</trkpt>
<trkpt lat="-27.4085272" lon="152.9910125">
<ele>25.698</ele>
<time>2015-12-31T08:00:11.640Z</time>
</trkpt>
<trkpt lat="-27.4089709" lon="152.9910680">
<ele>26.949</ele>
<time>2015-12-31T08:00:14.558Z</time>
</trkpt>
<trkpt lat="-27.4094466" lon="152.9911400">
<ele>29.141</ele>
<time>2015-12-31T08:00:17.562Z</time>
</trkpt>
<trkpt lat="-27.4099096" lon="152.9912732">
<ele>30.748</ele>
<time>2015-12-31T08:00:20.513Z</time>
</trkpt>
<trkpt lat="-27.4102246" lon="152.9913895">
<ele>30.998</ele>
<time>2015-12-31T08:00:22.501Z</time>
</trkpt>
<trkpt lat="-27.4105339" lon="152.9915380">
<ele>30.392</ele>
<time>2015-12-31T08:00:24.516Z</time>
</trkpt>
<trkpt lat="-27.4108142" lon="152.9916840">
<ele>29.695</ele>
<time>2015-12-31T08:00:26.382Z</time>
</trkpt>
<trkpt lat="-27.4112514" lon="152.9919049">
<ele>29.354</ele>
<time>2015-12-31T08:00:29.307Z</time>
</trkpt>
<trkpt lat="-27.4115374" lon="152.9920601">
<ele>29.824</ele>
<time>2015-12-31T08:00:31.219Z</time>
</trkpt>
<trkpt lat="-27.4119838" lon="152.9922744">
<ele>31.759</ele>
<time>2015-12-31T08:00:34.136Z</time>
</trkpt>
<trkpt lat="-27.4124610" lon="152.9924396">
<ele>35.531</ele>
<time>2015-12-31T08:00:37.193Z</time>
</trkpt>
<trkpt lat="-27.4128959" lon="152.9925502">
<ele>40.027</ele>
<time>2015-12-31T08:00:40.094Z</time>
</trkpt>
<trkpt lat="-27.4131802" lon="152.9925781">
<ele>41.976</ele>
<time>2015-12-31T08:00:42.071Z</time>
</trkpt>
<trkpt lat="-27.4134717" lon="152.9925454">
<ele>39.944</ele>
<time>2015-12-31T08:00:44.116Z</time>
</trkpt>
<trkpt lat="-27.4136941" lon="152.9924735">
<ele>36.657</ele>
<time>2015-12-31T08:00:45.711Z</time>
</trkpt>
<trkpt lat="-27.4140478" lon="152.9923834">
<ele>34.746</ele>
<time>2015-12-31T08:00:48.158Z</time>
</trkpt>
<trkpt lat="-27.4145179" lon="152.9922834">
<ele>34.227</ele>
<time>2015-12-31T08:00:51.238Z</time>
</trkpt>
<trkpt lat="-27.4148041" lon="152.9922342">
<ele>34.580</ele>
<time>2015-12-31T08:00:53.084Z</time>
</trkpt>
<trkpt lat="-27.4151121" lon="152.9921722">
<ele>35.492</ele>
<time>2015-12-31T08:00:55.080Z</time>
</trkpt>
<trkpt lat="-27.4155637" lon="152.9920859">
<ele>36.623</ele>
<time>2015-12-31T08:00:58.020Z</time>
</trkpt>
<trkpt lat="-27.4158535" lon="152.9920290">
<ele>37.794</ele>
<time>2015-12-31T08:00:59.945Z</time>
</trkpt>
<trkpt lat="-27.4162991" lon="152.9919274">
<ele>39.123</ele>
<time>2015-12-31T08:01:02.968Z</time>
</trkpt>
<trkpt lat="-27.4165846" lon="152.9918800">
<ele>40.517</ele>
<time>2015-12-31T08:01:04.924Z</time>
</trkpt>
<trkpt lat="-27.4170129" lon="152.9917981">
<ele>41.738</ele>
<time>2015-12-31T08:01:07.873Z</time>
</trkpt>
<trkpt lat="-27.4174496" lon="152.9917142">
<ele>42.688</ele>
<time>2015-12-31T08:01:10.849Z</time>
</trkpt>
<trkpt lat="-27.4178991" lon="152.9916835">
<ele>43.282</ele>
<time>2015-12-31T08:01:13.812Z</time>
</trkpt>
<trkpt lat="-27.4181420" lon="152.9917703">
<ele>42.927</ele>
<time>2015-12-31T08:01:15.487Z</time>
</trkpt>
<trkpt lat="-27.4185150" lon="152.9916772">
<ele>41.107</ele>
<time>2015-12-31T08:01:18.040Z</time>
</trkpt>
<trkpt lat="-27.4189688" lon="152.9916502">
<ele>38.645</ele>
<time>2015-12-31T08:01:21.009Z</time>
</trkpt>
<trkpt lat="-27.4192953" lon="152.9915921">
<ele>37.200</ele>
<time>2015-12-31T08:01:23.074Z</time>
</trkpt>
<trkpt lat="-27.4196074" lon="152.9915384">
<ele>37.343</ele>
<time>2015-12-31T08:01:25.057Z</time>
</trkpt>
<trkpt lat="-27.4200513" lon="152.9914682">
<ele>38.290</ele>
<time>2015-12-31T08:01:27.975Z</time>
</trkpt>
<trkpt lat="-27.4204694" lon="152.9913757">
<ele>38.897</ele>
<time>2015-12-31T08:01:30.910Z</time>
</trkpt>
<trkpt lat="-27.4207360" lon="152.9913036">
<ele>38.445</ele>
<time>2015-12-31T08:01:32.860Z</time>
</trkpt>
<trkpt lat="-27.4211342" lon="152.9911476">
<ele>36.856</ele>
<time>2015-12-31T08:01:35.921Z</time>
</trkpt>
<trkpt lat="-27.4213727" lon="152.9910405">
<ele>34.654</ele>
<time>2015-12-31T08:01:37.903Z</time>
</trkpt>
<trkpt lat="-27.4215927" lon="152.9909543">
<ele>32.691</ele>
<time>2015-12-31T08:01:39.894Z</time>
</trkpt>
<trkpt lat="-27.4218882" lon="152.9908705">
<ele>31.469</ele>
<time>2015-12-31T08:01:42.902Z</time>
</trkpt>
<trkpt lat="-27.4220304" lon="152.9908326">
<ele>30.859</ele>
<time>2015-12-31T08:01:45.063Z</time>
</trkpt>
<trkpt lat="-27.4221247" lon="152.9908152">
<ele>30.468</ele>
<time>2015-12-31T08:01:47.000Z</time>
</trkpt>
<trkpt lat="-27.4221247" lon="152.9908152">
<ele>30.090</ele>
<time>2015-12-31T08:01:50.000Z</time>
</trkpt>
<trkpt lat="-27.4221247" lon="152.9908152">
<ele>29.833</ele>
<time>2015-12-31T08:02:23.494Z</time>
</trkpt>
<trkpt lat="-27.4223100" lon="152.9907781">
<ele>29.833</ele>
<time>2015-12-31T08:02:28.250Z</time>
</trkpt>
<trkpt lat="-27.4225114" lon="152.9907418">
<ele>29.689</ele>
<time>2015-12-31T08:02:30.382Z</time>
</trkpt>
<trkpt lat="-27.4227482" lon="152.9907013">
<ele>29.072</ele>
<time>2015-12-31T08:02:32.376Z</time>
</trkpt>
<trkpt lat="-27.4230253" lon="152.9906524">
<ele>28.367</ele>
<time>2015-12-31T08:02:34.479Z</time>
</trkpt>
<trkpt lat="-27.4233164" lon="152.9906049">
<ele>28.056</ele>
<time>2015-12-31T08:02:36.586Z</time>
</trkpt>
<trkpt lat="-27.4237641" lon="152.9905310">
<ele>28.203</ele>
<time>2015-12-31T08:02:39.623Z</time>
</trkpt>
<trkpt lat="-27.4240705" lon="152.9904949">
<ele>28.697</ele>
<time>2015-12-31T08:02:41.635Z</time>
</trkpt>
<trkpt lat="-27.4243833" lon="152.9904500">
<ele>29.532</ele>
<time>2015-12-31T08:02:43.688Z</time>
</trkpt>
<trkpt lat="-27.4248428" lon="152.9903717">
<ele>30.962</ele>
<time>2015-12-31T08:02:46.714Z</time>
</trkpt>
<trkpt lat="-27.4252770" lon="152.9902598">
<ele>33.023</ele>
<time>2015-12-31T08:02:49.590Z</time>
</trkpt>
<trkpt lat="-27.4255828" lon="152.9902020">
<ele>35.056</ele>
<time>2015-12-31T08:02:51.568Z</time>
</trkpt>
<trkpt lat="-27.4258785" lon="152.9901495">
<ele>36.424</ele>
<time>2015-12-31T08:02:53.507Z</time>
</trkpt>
<trkpt lat="-27.4262456" lon="152.9900740">
<ele>37.377</ele>
<time>2015-12-31T08:02:55.923Z</time>
</trkpt>
<trkpt lat="-27.4268116" lon="152.9899616">
<ele>38.500</ele>
<time>2015-12-31T08:02:59.579Z</time>
</trkpt>
<trkpt lat="-27.4271178" lon="152.9899039">
<ele>39.681</ele>
<time>2015-12-31T08:03:01.554Z</time>
</trkpt>
<trkpt lat="-27.4274321" lon="152.9898521">
<ele>40.429</ele>
<time>2015-12-31T08:03:03.613Z</time>
</trkpt>
<trkpt lat="-27.4277149" lon="152.9898020">
<ele>40.620</ele>
<time>2015-12-31T08:03:05.508Z</time>
</trkpt>
<trkpt lat="-27.4279631" lon="152.9897532">
<ele>40.493</ele>
<time>2015-12-31T08:03:07.208Z</time>
</trkpt>
<trkpt lat="-27.4284518" lon="152.9896670">
<ele>40.330</ele>
<time>2015-12-31T08:03:10.578Z</time>
</trkpt>
<trkpt lat="-27.4287512" lon="152.9896369">
<ele>40.264</ele>
<time>2015-12-31T08:03:12.643Z</time>
</trkpt>
<trkpt lat="-27.4290308" lon="152.9895938">
<ele>39.956</ele>
<time>2015-12-31T08:03:14.579Z</time>
</trkpt>
<trkpt lat="-27.4294575" lon="152.9895140">
<ele>39.157</ele>
<time>2015-12-31T08:03:17.525Z</time>
</trkpt>
<trkpt lat="-27.4298235" lon="152.9894149">
<ele>38.546</ele>
<time>2015-12-31T08:03:20.053Z</time>
</trkpt>
<trkpt lat="-27.4301934" lon="152.9893450">
<ele>38.952</ele>
<time>2015-12-31T08:03:22.506Z</time>
</trkpt>
<trkpt lat="-27.4306520" lon="152.9892669">
<ele>40.294</ele>
<time>2015-12-31T08:03:25.502Z</time>
</trkpt>
<trkpt lat="-27.4309612" lon="152.9892102">
<ele>42.084</ele>
<time>2015-12-31T08:03:27.569Z</time>
</trkpt>
<trkpt lat="-27.4313943" lon="152.9891274">
<ele>43.766</ele>
<time>2015-12-31T08:03:30.545Z</time>
</trkpt>
<trkpt lat="-27.4316732" lon="152.9890783">
<ele>44.736</ele>
<time>2015-12-31T08:03:32.491Z</time>
</trkpt>
<trkpt lat="-27.4321079" lon="152.9890031">
<ele>44.808</ele>
<time>2015-12-31T08:03:35.490Z</time>
</trkpt>
<trkpt lat="-27.4323944" lon="152.9889520">
<ele>43.888</ele>
<time>2015-12-31T08:03:37.431Z</time>
</trkpt>
<trkpt lat="-27.4326884" lon="152.9889000">
<ele>41.794</ele>
<time>2015-12-31T08:03:39.443Z</time>
</trkpt>
<trkpt lat="-27.4331187" lon="152.9888239">
<ele>38.849</ele>
<time>2015-12-31T08:03:42.419Z</time>
</trkpt>
<trkpt lat="-27.4334103" lon="152.9887769">
<ele>35.646</ele>
<time>2015-12-31T08:03:44.455Z</time>
</trkpt>
<trkpt lat="-27.4336696" lon="152.9887327">
<ele>32.482</ele>
<time>2015-12-31T08:03:46.278Z</time>
</trkpt>
<trkpt lat="-27.4341143" lon="152.9886595">
<ele>29.569</ele>
<time>2015-12-31T08:03:49.388Z</time>
</trkpt>
<trkpt lat="-27.4345437" lon="152.9885765">
<ele>27.034</ele>
<time>2015-12-31T08:03:52.368Z</time>
</trkpt>
<trkpt lat="-27.4348365" lon="152.9885214">
<ele>24.570</ele>
<time>2015-12-31T08:03:54.396Z</time>
</trkpt>
<trkpt lat="-27.4351217" lon="152.9884659">
<ele>21.993</ele>
<time>2015-12-31T08:03:56.354Z</time>
</trkpt>
<trkpt lat="-27.4355656" lon="152.9883827">
<ele>19.717</ele>
<time>2015-12-31T08:03:59.345Z</time>
</trkpt>
<trkpt lat="-27.4358639" lon="152.9883249">
<ele>17.582</ele>
<time>2015-12-31T08:04:01.333Z</time>
</trkpt>
<trkpt lat="-27.4362527" lon="152.9882557">
<ele>15.322</ele>
<time>2015-12-31T08:04:03.923Z</time>
</trkpt>
<trkpt lat="-27.4366127" lon="152.9881818">
<ele>13.711</ele>
<time>2015-12-31T08:04:06.327Z</time>
</trkpt>
<trkpt lat="-27.4369079" lon="152.9881251">
<ele>13.531</ele>
<time>2015-12-31T08:04:08.272Z</time>
</trkpt>
<trkpt lat="-27.4373656" lon="152.9880317">
<ele>14.781</ele>
<time>2015-12-31T08:04:11.266Z</time>
</trkpt>
<trkpt lat="-27.4376713" lon="152.9879729">
<ele>16.711</ele>
<time>2015-12-31T08:04:13.247Z</time>
</trkpt>
<trkpt lat="-27.4381393" lon="152.9879203">
<ele>18.116</ele>
<time>2015-12-31T08:04:16.338Z</time>
</trkpt>
<trkpt lat="-27.4385456" lon="152.9880019">
<ele>18.017</ele>
<time>2015-12-31T08:04:19.204Z</time>
</trkpt>
<trkpt lat="-27.4388947" lon="152.9883079">
<ele>16.353</ele>
<time>2015-12-31T08:04:22.281Z</time>
</trkpt>
<trkpt lat="-27.4390947" lon="152.9887561">
<ele>14.260</ele>
<time>2015-12-31T08:04:25.240Z</time>
</trkpt>
<trkpt lat="-27.4391949" lon="152.9891008">
<ele>12.779</ele>
<time>2015-12-31T08:04:27.373Z</time>
</trkpt>
<trkpt lat="-27.4392959" lon="152.9894044">
<ele>11.821</ele>
<time>2015-12-31T08:04:29.427Z</time>
</trkpt>
<trkpt lat="-27.4395414" lon="152.9897289">
<ele>11.089</ele>
<time>2015-12-31T08:04:32.224Z</time>
</trkpt>
<trkpt lat="-27.4399103" lon="152.9899316">
<ele>10.585</ele>
<time>2015-12-31T08:04:35.164Z</time>
</trkpt>
<trkpt lat="-27.4402076" lon="152.9900200">
<ele>10.456</ele>
<time>2015-12-31T08:04:37.220Z</time>
</trkpt>
<trkpt lat="-27.4406751" lon="152.9901426">
<ele>10.771</ele>
<time>2015-12-31T08:04:40.308Z</time>
</trkpt>
<trkpt lat="-27.4409694" lon="152.9901842">
<ele>11.433</ele>
<time>2015-12-31T08:04:42.203Z</time>
</trkpt>
<trkpt lat="-27.4414510" lon="152.9901903">
<ele>12.203</ele>
<time>2015-12-31T08:04:45.254Z</time>
</trkpt>
<trkpt lat="-27.4419132" lon="152.9902816">
<ele>12.369</ele>
<time>2015-12-31T08:04:48.233Z</time>
</trkpt>
<trkpt lat="-27.4422056" lon="152.9903663">
<ele>11.395</ele>
<time>2015-12-31T08:04:50.237Z</time>
</trkpt>
<trkpt lat="-27.4426155" lon="152.9904939">
<ele>9.928</ele>
<time>2015-12-31T08:04:53.246Z</time>
</trkpt>
<trkpt lat="-27.4428439" lon="152.9906047">
<ele>9.213</ele>
<time>2015-12-31T08:04:55.155Z</time>
</trkpt>
<trkpt lat="-27.4431404" lon="152.9907851">
<ele>9.808</ele>
<time>2015-12-31T08:04:57.744Z</time>
</trkpt>
<trkpt lat="-27.4434351" lon="152.9909580">
<ele>11.368</ele>
<time>2015-12-31T08:05:00.167Z</time>
</trkpt>
<trkpt lat="-27.4438220" lon="152.9911686">
<ele>13.095</ele>
<time>2015-12-31T08:05:03.186Z</time>
</trkpt>
<trkpt lat="-27.4442125" lon="152.9913766">
<ele>14.460</ele>
<time>2015-12-31T08:05:06.213Z</time>
</trkpt>
<trkpt lat="-27.4444547" lon="152.9915151">
<ele>15.434</ele>
<time>2015-12-31T08:05:08.252Z</time>
</trkpt>
<trkpt lat="-27.4446734" lon="152.9916447">
<ele>16.418</ele>
<time>2015-12-31T08:05:10.329Z</time>
</trkpt>
<trkpt lat="-27.4449472" lon="152.9918085">
<ele>17.596</ele>
<time>2015-12-31T08:05:13.277Z</time>
</trkpt>
<trkpt lat="-27.4451040" lon="152.9919016">
<ele>18.863</ele>
<time>2015-12-31T08:05:16.128Z</time>
</trkpt>
<trkpt lat="-27.4452752" lon="152.9920129">
<ele>20.369</ele>
<time>2015-12-31T08:05:20.000Z</time>
</trkpt>
<trkpt lat="-27.4452752" lon="152.9920129">
<ele>22.054</ele>
<time>2015-12-31T08:05:22.000Z</time>
</trkpt>
<trkpt lat="-27.4452752" lon="152.9920129">
<ele>23.052</ele>
<time>2015-12-31T08:05:36.592Z</time>
</trkpt>
<trkpt lat="-27.4454191" lon="152.9920967">
<ele>22.978</ele>
<time>2015-12-31T08:05:41.440Z</time>
</trkpt>
<trkpt lat="-27.4455303" lon="152.9921516">
<ele>22.593</ele>
<time>2015-12-31T08:05:43.644Z</time>
</trkpt>
<trkpt lat="-27.4456936" lon="152.9921013">
<ele>22.588</ele>
<time>2015-12-31T08:05:46.545Z</time>
</trkpt>
<trkpt lat="-27.4457404" lon="152.9919525">
<ele>22.897</ele>
<time>2015-12-31T08:05:48.340Z</time>
</trkpt>
<trkpt lat="-27.4458047" lon="152.9917326">
<ele>23.301</ele>
<time>2015-12-31T08:05:50.372Z</time>
</trkpt>
<trkpt lat="-27.4458883" lon="152.9913560">
<ele>23.760</ele>
<time>2015-12-31T08:05:53.331Z</time>
</trkpt>
<trkpt lat="-27.4459306" lon="152.9911030">
<ele>24.341</ele>
<time>2015-12-31T08:05:55.162Z</time>
</trkpt>
<trkpt lat="-27.4459384" lon="152.9906881">
<ele>25.031</ele>
<time>2015-12-31T08:05:58.240Z</time>
</trkpt>
<trkpt lat="-27.4459441" lon="152.9904557">
<ele>25.702</ele>
<time>2015-12-31T08:06:00.432Z</time>
</trkpt>
<trkpt lat="-27.4459509" lon="152.9902776">
<ele>26.326</ele>
<time>2015-12-31T08:06:02.450Z</time>
</trkpt>
<trkpt lat="-27.4459600" lon="152.9900521">
<ele>26.871</ele>
<time>2015-12-31T08:06:06.000Z</time>
</trkpt>
<trkpt lat="-27.4459600" lon="152.9900521">
<ele>27.202</ele>
<time>2015-12-31T08:06:10.000Z</time>
</trkpt>
<trkpt lat="-27.4459600" lon="152.9900521">
<ele>27.301</ele>
<time>2015-12-31T08:06:11.807Z</time>
</trkpt>
<trkpt lat="-27.4459743" lon="152.9898635">
<ele>27.267</ele>
<time>2015-12-31T08:06:16.255Z</time>
</trkpt>
<trkpt lat="-27.4459839" lon="152.9896797">
<ele>27.454</ele>
<time>2015-12-31T08:06:18.301Z</time>
</trkpt>
<trkpt lat="-27.4459705" lon="152.9893685">
<ele>28.189</ele>
<time>2015-12-31T08:06:21.290Z</time>
</trkpt>
<trkpt lat="-27.4458887" lon="152.9890263">
<ele>29.320</ele>
<time>2015-12-31T08:06:24.381Z</time>
</trkpt>
<trkpt lat="-27.4458299" lon="152.9887904">
<ele>30.561</ele>
<time>2015-12-31T08:06:26.460Z</time>
</trkpt>
<trkpt lat="-27.4457791" lon="152.9885735">
<ele>31.685</ele>
<time>2015-12-31T08:06:28.428Z</time>
</trkpt>
<trkpt lat="-27.4457471" lon="152.9882505">
<ele>32.514</ele>
<time>2015-12-31T08:06:31.335Z</time>
</trkpt>
<trkpt lat="-27.4457764" lon="152.9880359">
<ele>33.158</ele>
<time>2015-12-31T08:06:33.222Z</time>
</trkpt>
<trkpt lat="-27.4458704" lon="152.9876900">
<ele>33.785</ele>
<time>2015-12-31T08:06:36.211Z</time>
</trkpt>
<trkpt lat="-27.4459563" lon="152.9873828">
<ele>34.444</ele>
<time>2015-12-31T08:06:38.719Z</time>
</trkpt>
<trkpt lat="-27.4460435" lon="152.9870559">
<ele>35.349</ele>
<time>2015-12-31T08:06:41.230Z</time>
</trkpt>
<trkpt lat="-27.4461576" lon="152.9866347">
<ele>36.610</ele>
<time>2015-12-31T08:06:44.305Z</time>
</trkpt>
<trkpt lat="-27.4462365" lon="152.9863533">
<ele>37.883</ele>
<time>2015-12-31T08:06:46.363Z</time>
</trkpt>
<trkpt lat="-27.4463273" lon="152.9859539">
<ele>38.713</ele>
<time>2015-12-31T08:06:49.276Z</time>
</trkpt>
<trkpt lat="-27.4463883" lon="152.9856811">
<ele>39.026</ele>
<time>2015-12-31T08:06:51.303Z</time>
</trkpt>
<trkpt lat="-27.4464622" lon="152.9854759">
<ele>38.896</ele>
<time>2015-12-31T08:06:52.971Z</time>
</trkpt>
<trkpt lat="-27.4466121" lon="152.9850882">
<ele>38.458</ele>
<time>2015-12-31T08:06:56.351Z</time>
</trkpt>
<trkpt lat="-27.4467281" lon="152.9849019">
<ele>37.945</ele>
<time>2015-12-31T08:06:58.227Z</time>
</trkpt>
<trkpt lat="-27.4469515" lon="152.9846203">
<ele>37.550</ele>
<time>2015-12-31T08:07:01.194Z</time>
</trkpt>
<trkpt lat="-27.4471822" lon="152.9842747">
<ele>37.474</ele>
<time>2015-12-31T08:07:04.355Z</time>
</trkpt>
<trkpt lat="-27.4472739" lon="152.9840213">
<ele>38.068</ele>
<time>2015-12-31T08:07:06.251Z</time>
</trkpt>
<trkpt lat="-27.4473398" lon="152.9837151">
<ele>39.498</ele>
<time>2015-12-31T08:07:08.332Z</time>
</trkpt>
<trkpt lat="-27.4474284" lon="152.9832698">
<ele>41.234</ele>
<time>2015-12-31T08:07:11.241Z</time>
</trkpt>
<trkpt lat="-27.4475235" lon="152.9829632">
<ele>42.348</ele>
<time>2015-12-31T08:07:13.192Z</time>
</trkpt>
<trkpt lat="-27.4477182" lon="152.9824848">
<ele>42.335</ele>
<time>2015-12-31T08:07:16.269Z</time>
</trkpt>
<trkpt lat="-27.4479024" lon="152.9820168">
<ele>41.416</ele>
<time>2015-12-31T08:07:19.302Z</time>
</trkpt>
<trkpt lat="-27.4479663" lon="152.9817149">
<ele>40.158</ele>
<time>2015-12-31T08:07:21.220Z</time>
</trkpt>
<trkpt lat="-27.4479656" lon="152.9814062">
<ele>39.095</ele>
<time>2015-12-31T08:07:23.135Z</time>
</trkpt>
<trkpt lat="-27.4479022" lon="152.9809622">
<ele>38.719</ele>
<time>2015-12-31T08:07:25.918Z</time>
</trkpt>
<trkpt lat="-27.4479024" lon="152.9805973">
<ele>39.205</ele>
<time>2015-12-31T08:07:28.271Z</time>
</trkpt>
<trkpt lat="-27.4479310" lon="152.9801693">
<ele>40.076</ele>
<time>2015-12-31T08:07:31.269Z</time>
</trkpt>
<trkpt lat="-27.4479912" lon="152.9799205">
<ele>40.805</ele>
<time>2015-12-31T08:07:33.195Z</time>
</trkpt>
<trkpt lat="-27.4482080" lon="152.9795956">
<ele>41.291</ele>
<time>2015-12-31T08:07:36.138Z</time>
</trkpt>
<trkpt lat="-27.4484004" lon="152.9793849">
<ele>42.001</ele>
<time>2015-12-31T08:07:38.116Z</time>
</trkpt>
<trkpt lat="-27.4487218" lon="152.9790458">
<ele>43.442</ele>
<time>2015-12-31T08:07:41.266Z</time>
</trkpt>
<trkpt lat="-27.4490124" lon="152.9787336">
<ele>45.160</ele>
<time>2015-12-31T08:07:44.322Z</time>
</trkpt>
<trkpt lat="-27.4491441" lon="152.9785481">
<ele>46.183</ele>
<time>2015-12-31T08:07:46.266Z</time>
</trkpt>
<trkpt lat="-27.4491964" lon="152.9783464">
<ele>46.256</ele>
<time>2015-12-31T08:07:48.173Z</time>
</trkpt>
<trkpt lat="-27.4491590" lon="152.9780297">
<ele>45.832</ele>
<time>2015-12-31T08:07:50.989Z</time>
</trkpt>
<trkpt lat="-27.4490893" lon="152.9776434">
<ele>45.570</ele>
<time>2015-12-31T08:07:54.074Z</time>
</trkpt>
<trkpt lat="-27.4489938" lon="152.9774025">
<ele>46.079</ele>
<time>2015-12-31T08:07:56.028Z</time>
</trkpt>
<trkpt lat="-27.4487643" lon="152.9770678">
<ele>47.295</ele>
<time>2015-12-31T08:07:59.117Z</time>
</trkpt>
<trkpt lat="-27.4486210" lon="152.9768054">
<ele>48.238</ele>
<time>2015-12-31T08:08:01.298Z</time>
</trkpt>
<trkpt lat="-27.4484884" lon="152.9764002">
<ele>48.268</ele>
<time>2015-12-31T08:08:04.099Z</time>
</trkpt>
<trkpt lat="-27.4484368" lon="152.9760623">
<ele>47.694</ele>
<time>2015-12-31T08:08:06.152Z</time>
</trkpt>
<trkpt lat="-27.4483628" lon="152.9755399">
<ele>46.764</ele>
<time>2015-12-31T08:08:09.184Z</time>
</trkpt>
<trkpt lat="-27.4482766" lon="152.9750101">
<ele>45.372</ele>
<time>2015-12-31T08:08:12.146Z</time>
</trkpt>
<trkpt lat="-27.4482101" lon="152.9746288">
<ele>42.786</ele>
<time>2015-12-31T08:08:14.217Z</time>
</trkpt>
<trkpt lat="-27.4481202" lon="152.9740855">
<ele>38.628</ele>
<time>2015-12-31T08:08:17.177Z</time>
</trkpt>
<trkpt lat="-27.4480780" lon="152.9737422">
<ele>33.984</ele>
<time>2015-12-31T08:08:19.155Z</time>
</trkpt>
<trkpt lat="-27.4480521" lon="152.9734141">
<ele>30.394</ele>
<time>2015-12-31T08:08:21.099Z</time>
</trkpt>
<trkpt lat="-27.4480428" lon="152.9727608">
<ele>28.351</ele>
<time>2015-12-31T08:08:25.149Z</time>
</trkpt>
<trkpt lat="-27.4481064" lon="152.9724473">
<ele>27.521</ele>
<time>2015-12-31T08:08:27.144Z</time>
</trkpt>
<trkpt lat="-27.4482306" lon="152.9719981">
<ele>27.274</ele>
<time>2015-12-31T08:08:30.081Z</time>
</trkpt>
<trkpt lat="-27.4483139" lon="152.9717089">
<ele>27.188</ele>
<time>2015-12-31T08:08:32.037Z</time>
</trkpt>
<trkpt lat="-27.4483845" lon="152.9714277">
<ele>27.059</ele>
<time>2015-12-31T08:08:33.977Z</time>
</trkpt>
<trkpt lat="-27.4484083" lon="152.9709927">
<ele>27.149</ele>
<time>2015-12-31T08:08:36.870Z</time>
</trkpt>
<trkpt lat="-27.4483601" lon="152.9706671">
<ele>27.984</ele>
<time>2015-12-31T08:08:38.948Z</time>
</trkpt>
<trkpt lat="-27.4482579" lon="152.9701944">
<ele>29.735</ele>
<time>2015-12-31T08:08:41.938Z</time>
</trkpt>
<trkpt lat="-27.4482169" lon="152.9698896">
<ele>32.170</ele>
<time>2015-12-31T08:08:43.902Z</time>
</trkpt>
<trkpt lat="-27.4482680" lon="152.9694639">
<ele>34.658</ele>
<time>2015-12-31T08:08:46.748Z</time>
</trkpt>
<trkpt lat="-27.4484164" lon="152.9690491">
<ele>36.341</ele>
<time>2015-12-31T08:08:49.738Z</time>
</trkpt>
<trkpt lat="-27.4485251" lon="152.9687669">
<ele>37.275</ele>
<time>2015-12-31T08:08:51.742Z</time>
</trkpt>
<trkpt lat="-27.4486458" lon="152.9684749">
<ele>38.271</ele>
<time>2015-12-31T08:08:53.855Z</time>
</trkpt>
<trkpt lat="-27.4487605" lon="152.9681932">
<ele>39.339</ele>
<time>2015-12-31T08:08:55.940Z</time>
</trkpt>
<trkpt lat="-27.4489078" lon="152.9678391">
<ele>39.966</ele>
<time>2015-12-31T08:08:58.837Z</time>
</trkpt>
<trkpt lat="-27.4490421" lon="152.9675173">
<ele>40.106</ele>
<time>2015-12-31T08:09:01.702Z</time>
</trkpt>
<trkpt lat="-27.4491181" lon="152.9673408">
<ele>40.226</ele>
<time>2015-12-31T08:09:03.602Z</time>
</trkpt>
<trkpt lat="-27.4491868" lon="152.9671565">
<ele>40.650</ele>
<time>2015-12-31T08:09:06.000Z</time>
</trkpt>
<trkpt lat="-27.4491868" lon="152.9671565">
<ele>41.156</ele>
<time>2015-12-31T08:09:11.000Z</time>
</trkpt>
<trkpt lat="-27.4491868" lon="152.9671565">
<ele>41.392</ele>
<time>2015-12-31T08:09:19.458Z</time>
</trkpt>
<trkpt lat="-27.4492353" lon="152.9669604">
<ele>41.349</ele>
<time>2015-12-31T08:09:27.877Z</time>
</trkpt>
<trkpt lat="-27.4492354" lon="152.9667774">
<ele>41.671</ele>
<time>2015-12-31T08:09:29.886Z</time>
</trkpt>
<trkpt lat="-27.4491614" lon="152.9664207">
<ele>42.869</ele>
<time>2015-12-31T08:09:33.113Z</time>
</trkpt>
<trkpt lat="-27.4490385" lon="152.9661671">
<ele>44.753</ele>
<time>2015-12-31T08:09:35.188Z</time>
</trkpt>
<trkpt lat="-27.4487562" lon="152.9658566">
<ele>47.003</ele>
<time>2015-12-31T08:09:38.174Z</time>
</trkpt>
<trkpt lat="-27.4485236" lon="152.9657299">
<ele>49.187</ele>
<time>2015-12-31T08:09:39.971Z</time>
</trkpt>
<trkpt lat="-27.4482328" lon="152.9655736">
<ele>50.724</ele>
<time>2015-12-31T08:09:42.067Z</time>
</trkpt>
<trkpt lat="-27.4478227" lon="152.9653714">
<ele>51.534</ele>
<time>2015-12-31T08:09:44.934Z</time>
</trkpt>
<trkpt lat="-27.4475550" lon="152.9652397">
<ele>51.817</ele>
<time>2015-12-31T08:09:46.885Z</time>
</trkpt>
<trkpt lat="-27.4471965" lon="152.9650114">
<ele>51.556</ele>
<time>2015-12-31T08:09:49.721Z</time>
</trkpt>
<trkpt lat="-27.4470120" lon="152.9647794">
<ele>50.219</ele>
<time>2015-12-31T08:09:51.634Z</time>
</trkpt>
<trkpt lat="-27.4468045" lon="152.9643622">
<ele>47.569</ele>
<time>2015-12-31T08:09:54.524Z</time>
</trkpt>
<trkpt lat="-27.4467042" lon="152.9638890">
<ele>44.451</ele>
<time>2015-12-31T08:09:57.404Z</time>
</trkpt>
<trkpt lat="-27.4466209" lon="152.9634045">
<ele>41.886</ele>
<time>2015-12-31T08:10:00.267Z</time>
</trkpt>
<trkpt lat="-27.4465380" lon="152.9628999">
<ele>39.825</ele>
<time>2015-12-31T08:10:03.204Z</time>
</trkpt>
<trkpt lat="-27.4464727" lon="152.9624039">
<ele>37.989</ele>
<time>2015-12-31T08:10:06.122Z</time>
</trkpt>
<trkpt lat="-27.4464436" lon="152.9621343">
<ele>36.911</ele>
<time>2015-12-31T08:10:07.803Z</time>
</trkpt>
<trkpt lat="-27.4463941" lon="152.9616581">
<ele>37.293</ele>
<time>2015-12-31T08:10:10.901Z</time>
</trkpt>
<trkpt lat="-27.4464177" lon="152.9612109">
<ele>38.868</ele>
<time>2015-12-31T08:10:13.824Z</time>
</trkpt>
<trkpt lat="-27.4464945" lon="152.9607740">
<ele>40.974</ele>
<time>2015-12-31T08:10:16.703Z</time>
</trkpt>
<trkpt lat="-27.4465365" lon="152.9603531">
<ele>43.060</ele>
<time>2015-12-31T08:10:19.612Z</time>
</trkpt>
<trkpt lat="-27.4465305" lon="152.9600201">
<ele>44.522</ele>
<time>2015-12-31T08:10:22.423Z</time>
</trkpt>
<trkpt lat="-27.4465329" lon="152.9598707">
<ele>44.429</ele>
<time>2015-12-31T08:10:24.287Z</time>
</trkpt>
<trkpt lat="-27.4463790" lon="152.9598986">
<ele>42.353</ele>
<time>2015-12-31T08:10:28.769Z</time>
</trkpt>
<trkpt lat="-27.4464991" lon="152.9598333">
<ele>39.312</ele>
<time>2015-12-31T08:10:38.084Z</time>
</trkpt>
<trkpt lat="-27.4465592" lon="152.9597408">
<ele>36.980</ele>
<time>2015-12-31T08:10:45.999Z</time>
</trkpt>
<trkpt lat="-27.4465592" lon="152.9597408">
<ele>35.937</ele>
<time>2015-12-31T08:10:48.999Z</time>
</trkpt>
<trkpt lat="-27.4465592" lon="152.9597408">
<ele>35.747</ele>
<time>2015-12-31T08:10:49.099Z</time>
</trkpt>
<trkpt lat="-27.4467763" lon="152.9597832">
<ele>35.818</ele>
<time>2015-12-31T08:58:10.084Z</time>
</trkpt>
<trkpt lat="-27.4467763" lon="152.9597832">
<ele>35.863</ele>
<time>2015-12-31T08:58:13.085Z</time>
</trkpt>
<trkpt lat="-27.4467763" lon="152.9597832">
<ele>35.846</ele>
<time>2015-12-31T09:04:10.339Z</time>
</trkpt>
<trkpt lat="-27.4467250" lon="152.9595999">
<ele>35.804</ele>
<time>2015-12-31T09:04:20.934Z</time>
</trkpt>
<trkpt lat="-27.4466992" lon="152.9594879">
<ele>35.596</ele>
<time>2015-12-31T09:04:25.148Z</time>
</trkpt>
<trkpt lat="-27.4465872" lon="152.9594491">
<ele>35.062</ele>
<time>2015-12-31T09:04:29.751Z</time>
</trkpt>
<trkpt lat="-27.4465087" lon="152.9593309">
<ele>34.433</ele>
<time>2015-12-31T09:04:33.103Z</time>
</trkpt>
<trkpt lat="-27.4464820" lon="152.9591858">
<ele>33.977</ele>
<time>2015-12-31T09:04:35.596Z</time>
</trkpt>
<trkpt lat="-27.4464535" lon="152.9590626">
<ele>33.680</ele>
<time>2015-12-31T09:04:38.162Z</time>
</trkpt>
<trkpt lat="-27.4464270" lon="152.9589618">
<ele>33.417</ele>
<time>2015-12-31T09:04:40.999Z</time>
</trkpt>
<trkpt lat="-27.4464270" lon="152.9589618">
<ele>33.114</ele>
<time>2015-12-31T09:04:48.999Z</time>
</trkpt>
<trkpt lat="-27.4464270" lon="152.9589618">
<ele>32.899</ele>
<time>2015-12-31T09:05:05.696Z</time>
</trkpt>
<trkpt lat="-27.4463491" lon="152.9587305">
<ele>32.894</ele>
<time>2015-12-31T09:05:10.214Z</time>
</trkpt>
<trkpt lat="-27.4462582" lon="152.9583204">
<ele>32.990</ele>
<time>2015-12-31T09:05:13.833Z</time>
</trkpt>
<trkpt lat="-27.4461620" lon="152.9580694">
<ele>33.788</ele>
<time>2015-12-31T09:05:15.943Z</time>
</trkpt>
<trkpt lat="-27.4460842" lon="152.9578344">
<ele>35.705</ele>
<time>2015-12-31T09:05:18.015Z</time>
</trkpt>
<trkpt lat="-27.4460314" lon="152.9574208">
<ele>37.610</ele>
<time>2015-12-31T09:05:21.340Z</time>
</trkpt>
<trkpt lat="-27.4459961" lon="152.9570681">
<ele>38.433</ele>
<time>2015-12-31T09:05:23.874Z</time>
</trkpt>
<trkpt lat="-27.4459135" lon="152.9566052">
<ele>38.649</ele>
<time>2015-12-31T09:05:26.928Z</time>
</trkpt>
<trkpt lat="-27.4458458" lon="152.9562954">
<ele>39.181</ele>
<time>2015-12-31T09:05:28.824Z</time>
</trkpt>
<trkpt lat="-27.4457405" lon="152.9558421">
<ele>40.419</ele>
<time>2015-12-31T09:05:31.651Z</time>
</trkpt>
<trkpt lat="-27.4457286" lon="152.9555739">
<ele>41.849</ele>
<time>2015-12-31T09:05:33.308Z</time>
</trkpt>
<trkpt lat="-27.4456619" lon="152.9552785">
<ele>42.722</ele>
<time>2015-12-31T09:05:35.251Z</time>
</trkpt>
<trkpt lat="-27.4455608" lon="152.9548751">
<ele>42.754</ele>
<time>2015-12-31T09:05:37.862Z</time>
</trkpt>
<trkpt lat="-27.4454080" lon="152.9544179">
<ele>42.232</ele>
<time>2015-12-31T09:05:40.856Z</time>
</trkpt>
<trkpt lat="-27.4453021" lon="152.9541213">
<ele>41.692</ele>
<time>2015-12-31T09:05:42.867Z</time>
</trkpt>
<trkpt lat="-27.4452109" lon="152.9538430">
<ele>41.422</ele>
<time>2015-12-31T09:05:44.821Z</time>
</trkpt>
<trkpt lat="-27.4451229" lon="152.9535983">
<ele>41.425</ele>
<time>2015-12-31T09:05:46.590Z</time>
</trkpt>
<trkpt lat="-27.4450583" lon="152.9530645">
<ele>41.636</ele>
<time>2015-12-31T09:05:50.089Z</time>
</trkpt>
<trkpt lat="-27.4450362" lon="152.9527997">
<ele>42.342</ele>
<time>2015-12-31T09:05:51.791Z</time>
</trkpt>
<trkpt lat="-27.4449982" lon="152.9523104">
<ele>43.692</ele>
<time>2015-12-31T09:05:55.008Z</time>
</trkpt>
<trkpt lat="-27.4449991" lon="152.9518685">
<ele>45.139</ele>
<time>2015-12-31T09:05:57.938Z</time>
</trkpt>
<trkpt lat="-27.4449710" lon="152.9514011">
<ele>46.432</ele>
<time>2015-12-31T09:06:01.035Z</time>
</trkpt>
<trkpt lat="-27.4449672" lon="152.9511142">
<ele>48.292</ele>
<time>2015-12-31T09:06:02.974Z</time>
</trkpt>
<trkpt lat="-27.4449640" lon="152.9506930">
<ele>50.830</ele>
<time>2015-12-31T09:06:05.839Z</time>
</trkpt>
<trkpt lat="-27.4449687" lon="152.9502609">
<ele>53.288</ele>
<time>2015-12-31T09:06:08.773Z</time>
</trkpt>
<trkpt lat="-27.4449896" lon="152.9499726">
<ele>55.332</ele>
<time>2015-12-31T09:06:10.826Z</time>
</trkpt>
<trkpt lat="-27.4449923" lon="152.9497202">
<ele>57.053</ele>
<time>2015-12-31T09:06:12.688Z</time>
</trkpt>
<trkpt lat="-27.4449613" lon="152.9494157">
<ele>58.249</ele>
<time>2015-12-31T09:06:14.904Z</time>
</trkpt>
<trkpt lat="-27.4448340" lon="152.9489582">
<ele>58.778</ele>
<time>2015-12-31T09:06:18.271Z</time>
</trkpt>
<trkpt lat="-27.4445566" lon="152.9482220">
<ele>58.674</ele>
<time>2015-12-31T09:06:23.812Z</time>
</trkpt>
<trkpt lat="-27.4445525" lon="152.9477932">
<ele>58.535</ele>
<time>2015-12-31T09:06:26.324Z</time>
</trkpt>
<trkpt lat="-27.4444560" lon="152.9474429">
<ele>58.582</ele>
<time>2015-12-31T09:06:28.331Z</time>
</trkpt>
<trkpt lat="-27.4443349" lon="152.9471167">
<ele>58.911</ele>
<time>2015-12-31T09:06:30.225Z</time>
</trkpt>
<trkpt lat="-27.4441074" lon="152.9466242">
<ele>59.408</ele>
<time>2015-12-31T09:06:33.345Z</time>
</trkpt>
<trkpt lat="-27.4439919" lon="152.9463552">
<ele>59.857</ele>
<time>2015-12-31T09:06:35.151Z</time>
</trkpt>
<trkpt lat="-27.4437957" lon="152.9459311">
<ele>60.001</ele>
<time>2015-12-31T09:06:38.213Z</time>
</trkpt>
<trkpt lat="-27.4436714" lon="152.9455141">
<ele>59.684</ele>
<time>2015-12-31T09:06:41.219Z</time>
</trkpt>
<trkpt lat="-27.4436080" lon="152.9452410">
<ele>59.010</ele>
<time>2015-12-31T09:06:43.326Z</time>
</trkpt>
<trkpt lat="-27.4435120" lon="152.9449217">
<ele>58.330</ele>
<time>2015-12-31T09:06:46.119Z</time>
</trkpt>
<trkpt lat="-27.4434586" lon="152.9447013">
<ele>57.925</ele>
<time>2015-12-31T09:06:48.473Z</time>
</trkpt>
<trkpt lat="-27.4434009" lon="152.9444580">
<ele>57.747</ele>
<time>2015-12-31T09:06:52.040Z</time>
</trkpt>
<trkpt lat="-27.4433685" lon="152.9443344">
<ele>57.516</ele>
<time>2015-12-31T09:06:55.057Z</time>
</trkpt>
<trkpt lat="-27.4433434" lon="152.9442243">
<ele>57.067</ele>
<time>2015-12-31T09:06:58.782Z</time>
</trkpt>
<trkpt lat="-27.4433194" lon="152.9441145">
<ele>56.548</ele>
<time>2015-12-31T09:07:02.269Z</time>
</trkpt>
<trkpt lat="-27.4432790" lon="152.9440050">
<ele>56.320</ele>
<time>2015-12-31T09:07:04.426Z</time>
</trkpt>
<trkpt lat="-27.4432404" lon="152.9434562">
<ele>56.761</ele>
<time>2015-12-31T09:07:09.417Z</time>
</trkpt>
<trkpt lat="-27.4432063" lon="152.9431634">
<ele>58.259</ele>
<time>2015-12-31T09:07:11.488Z</time>
</trkpt>
<trkpt lat="-27.4431650" lon="152.9428786">
<ele>60.490</ele>
<time>2015-12-31T09:07:13.502Z</time>
</trkpt>
<trkpt lat="-27.4431086" lon="152.9424687">
<ele>62.351</ele>
<time>2015-12-31T09:07:16.393Z</time>
</trkpt>
<trkpt lat="-27.4430814" lon="152.9421857">
<ele>63.343</ele>
<time>2015-12-31T09:07:18.342Z</time>
</trkpt>
<trkpt lat="-27.4430026" lon="152.9417396">
<ele>63.917</ele>
<time>2015-12-31T09:07:21.377Z</time>
</trkpt>
<trkpt lat="-27.4429512" lon="152.9412969">
<ele>64.580</ele>
<time>2015-12-31T09:07:24.357Z</time>
</trkpt>
<trkpt lat="-27.4429228" lon="152.9409996">
<ele>65.444</ele>
<time>2015-12-31T09:07:26.349Z</time>
</trkpt>
<trkpt lat="-27.4428539" lon="152.9407208">
<ele>66.397</ele>
<time>2015-12-31T09:07:28.225Z</time>
</trkpt>
<trkpt lat="-27.4426352" lon="152.9403245">
<ele>67.383</ele>
<time>2015-12-31T09:07:31.185Z</time>
</trkpt>
<trkpt lat="-27.4423356" lon="152.9399863">
<ele>68.555</ele>
<time>2015-12-31T09:07:34.279Z</time>
</trkpt>
<trkpt lat="-27.4421030" lon="152.9396368">
<ele>69.862</ele>
<time>2015-12-31T09:07:37.377Z</time>
</trkpt>
<trkpt lat="-27.4420118" lon="152.9393622">
<ele>70.697</ele>
<time>2015-12-31T09:07:39.616Z</time>
</trkpt>
<trkpt lat="-27.4420171" lon="152.9390696">
<ele>70.533</ele>
<time>2015-12-31T09:07:41.740Z</time>
</trkpt>
<trkpt lat="-27.4421494" lon="152.9386454">
<ele>69.755</ele>
<time>2015-12-31T09:07:44.744Z</time>
</trkpt>
<trkpt lat="-27.4424209" lon="152.9382811">
<ele>69.074</ele>
<time>2015-12-31T09:07:47.676Z</time>
</trkpt>
<trkpt lat="-27.4427321" lon="152.9379452">
<ele>68.990</ele>
<time>2015-12-31T09:07:50.567Z</time>
</trkpt>
<trkpt lat="-27.4429451" lon="152.9377156">
<ele>69.609</ele>
<time>2015-12-31T09:07:52.566Z</time>
</trkpt>
<trkpt lat="-27.4431417" lon="152.9375328">
<ele>70.754</ele>
<time>2015-12-31T09:07:54.425Z</time>
</trkpt>
<trkpt lat="-27.4433659" lon="152.9373915">
<ele>72.185</ele>
<time>2015-12-31T09:07:56.412Z</time>
</trkpt>
<trkpt lat="-27.4435926" lon="152.9372793">
<ele>73.604</ele>
<time>2015-12-31T09:07:58.299Z</time>
</trkpt>
<trkpt lat="-27.4439462" lon="152.9370690">
<ele>74.657</ele>
<time>2015-12-31T09:08:01.231Z</time>
</trkpt>
<trkpt lat="-27.4441726" lon="152.9368725">
<ele>75.327</ele>
<time>2015-12-31T09:08:03.223Z</time>
</trkpt>
<trkpt lat="-27.4444359" lon="152.9364834">
<ele>75.776</ele>
<time>2015-12-31T09:08:06.213Z</time>
</trkpt>
<trkpt lat="-27.4445597" lon="152.9361746">
<ele>76.070</ele>
<time>2015-12-31T09:08:08.312Z</time>
</trkpt>
<trkpt lat="-27.4447106" lon="152.9357395">
<ele>76.426</ele>
<time>2015-12-31T09:08:11.236Z</time>
</trkpt>
<trkpt lat="-27.4448065" lon="152.9354092">
<ele>77.010</ele>
<time>2015-12-31T09:08:13.378Z</time>
</trkpt>
<trkpt lat="-27.4449286" lon="152.9349394">
<ele>77.693</ele>
<time>2015-12-31T09:08:16.366Z</time>
</trkpt>
<trkpt lat="-27.4450470" lon="152.9344909">
<ele>78.450</ele>
<time>2015-12-31T09:08:19.294Z</time>
</trkpt>
<trkpt lat="-27.4451185" lon="152.9342687">
<ele>79.623</ele>
<time>2015-12-31T09:08:20.866Z</time>
</trkpt>
<trkpt lat="-27.4452101" lon="152.9339882">
<ele>81.287</ele>
<time>2015-12-31T09:08:22.861Z</time>
</trkpt>
<trkpt lat="-27.4452863" lon="152.9336763">
<ele>82.938</ele>
<time>2015-12-31T09:08:24.882Z</time>
</trkpt>
<trkpt lat="-27.4453915" lon="152.9333327">
<ele>84.039</ele>
<time>2015-12-31T09:08:27.036Z</time>
</trkpt>
<trkpt lat="-27.4455187" lon="152.9327998">
<ele>84.449</ele>
<time>2015-12-31T09:08:30.037Z</time>
</trkpt>
<trkpt lat="-27.4456149" lon="152.9324442">
<ele>83.766</ele>
<time>2015-12-31T09:08:32.008Z</time>
</trkpt>
<trkpt lat="-27.4456895" lon="152.9320894">
<ele>81.633</ele>
<time>2015-12-31T09:08:33.938Z</time>
</trkpt>
<trkpt lat="-27.4457186" lon="152.9315323">
<ele>78.582</ele>
<time>2015-12-31T09:08:36.943Z</time>
</trkpt>
<trkpt lat="-27.4456482" lon="152.9310150">
<ele>75.325</ele>
<time>2015-12-31T09:08:39.970Z</time>
</trkpt>
<trkpt lat="-27.4455586" lon="152.9307446">
<ele>72.273</ele>
<time>2015-12-31T09:08:42.016Z</time>
</trkpt>
<trkpt lat="-27.4454263" lon="152.9304587">
<ele>69.964</ele>
<time>2015-12-31T09:08:44.881Z</time>
</trkpt>
<trkpt lat="-27.4453300" lon="152.9303149">
<ele>68.673</ele>
<time>2015-12-31T09:08:47.028Z</time>
</trkpt>
<trkpt lat="-27.4452632" lon="152.9301926">
<ele>68.209</ele>
<time>2015-12-31T09:08:48.855Z</time>
</trkpt>
<trkpt lat="-27.4451890" lon="152.9299626">
<ele>68.299</ele>
<time>2015-12-31T09:08:51.665Z</time>
</trkpt>
<trkpt lat="-27.4447522" lon="152.9293926">
<ele>69.054</ele>
<time>2015-12-31T09:08:58.144Z</time>
</trkpt>
<trkpt lat="-27.4445826" lon="152.9291260">
<ele>70.145</ele>
<time>2015-12-31T09:09:00.251Z</time>
</trkpt>
<trkpt lat="-27.4443296" lon="152.9287338">
<ele>72.503</ele>
<time>2015-12-31T09:09:03.234Z</time>
</trkpt>
<trkpt lat="-27.4441005" lon="152.9285125">
<ele>75.787</ele>
<time>2015-12-31T09:09:05.262Z</time>
</trkpt>
<trkpt lat="-27.4436871" lon="152.9283205">
<ele>79.121</ele>
<time>2015-12-31T09:09:08.212Z</time>
</trkpt>
<trkpt lat="-27.4434272" lon="152.9282286">
<ele>82.587</ele>
<time>2015-12-31T09:09:10.125Z</time>
</trkpt>
<trkpt lat="-27.4430447" lon="152.9281096">
<ele>86.182</ele>
<time>2015-12-31T09:09:13.119Z</time>
</trkpt>
<trkpt lat="-27.4427968" lon="152.9280109">
<ele>89.101</ele>
<time>2015-12-31T09:09:15.172Z</time>
</trkpt>
<trkpt lat="-27.4426847" lon="152.9279386">
<ele>91.265</ele>
<time>2015-12-31T09:09:16.176Z</time>
</trkpt>
<trkpt lat="-27.4422338" lon="152.9276136">
<ele>93.302</ele>
<time>2015-12-31T09:09:20.277Z</time>
</trkpt>
<trkpt lat="-27.4419958" lon="152.9274768">
<ele>95.982</ele>
<time>2015-12-31T09:09:22.345Z</time>
</trkpt>
<trkpt lat="-27.4417624" lon="152.9273981">
<ele>99.826</ele>
<time>2015-12-31T09:09:24.229Z</time>
</trkpt>
<trkpt lat="-27.4413639" lon="152.9273427">
<ele>103.936</ele>
<time>2015-12-31T09:09:27.317Z</time>
</trkpt>
<trkpt lat="-27.4411232" lon="152.9273258">
<ele>106.976</ele>
<time>2015-12-31T09:09:29.130Z</time>
</trkpt>
<trkpt lat="-27.4407201" lon="152.9272315">
<ele>108.571</ele>
<time>2015-12-31T09:09:32.060Z</time>
</trkpt>
<trkpt lat="-27.4403383" lon="152.9269065">
<ele>108.474</ele>
<time>2015-12-31T09:09:35.172Z</time>
</trkpt>
<trkpt lat="-27.4400027" lon="152.9265365">
<ele>106.741</ele>
<time>2015-12-31T09:09:38.283Z</time>
</trkpt>
<trkpt lat="-27.4396870" lon="152.9263451">
<ele>104.123</ele>
<time>2015-12-31T09:09:40.929Z</time>
</trkpt>
<trkpt lat="-27.4394037" lon="152.9263132">
<ele>101.644</ele>
<time>2015-12-31T09:09:43.058Z</time>
</trkpt>
<trkpt lat="-27.4389516" lon="152.9263446">
<ele>100.617</ele>
<time>2015-12-31T09:09:46.167Z</time>
</trkpt>
<trkpt lat="-27.4385988" lon="152.9264635">
<ele>102.672</ele>
<time>2015-12-31T09:09:48.678Z</time>
</trkpt>
<trkpt lat="-27.4382493" lon="152.9265444">
<ele>107.566</ele>
<time>2015-12-31T09:09:51.267Z</time>
</trkpt>
<trkpt lat="-27.4379942" lon="152.9263834">
<ele>112.704</ele>
<time>2015-12-31T09:09:53.286Z</time>
</trkpt>
<trkpt lat="-27.4377288" lon="152.9261726">
<ele>116.418</ele>
<time>2015-12-31T09:09:55.288Z</time>
</trkpt>
<trkpt lat="-27.4373057" lon="152.9258565">
<ele>119.742</ele>
<time>2015-12-31T09:09:58.236Z</time>
</trkpt>
<trkpt lat="-27.4369531" lon="152.9256892">
<ele>123.988</ele>
<time>2015-12-31T09:10:00.235Z</time>
</trkpt>
<trkpt lat="-27.4363385" lon="152.9254771">
<ele>129.095</ele>
<time>2015-12-31T09:10:03.418Z</time>
</trkpt>
<trkpt lat="-27.4359659" lon="152.9253374">
<ele>135.040</ele>
<time>2015-12-31T09:10:05.495Z</time>
</trkpt>
<trkpt lat="-27.4355054" lon="152.9250779">
<ele>141.271</ele>
<time>2015-12-31T09:10:08.387Z</time>
</trkpt>
<trkpt lat="-27.4352522" lon="152.9248508">
<ele>145.886</ele>
<time>2015-12-31T09:10:10.265Z</time>
</trkpt>
<trkpt lat="-27.4349990" lon="152.9246041">
<ele>148.218</ele>
<time>2015-12-31T09:10:12.303Z</time>
</trkpt>
<trkpt lat="-27.4347850" lon="152.9243720">
<ele>149.355</ele>
<time>2015-12-31T09:10:14.238Z</time>
</trkpt>
<trkpt lat="-27.4346277" lon="152.9239021">
<ele>149.850</ele>
<time>2015-12-31T09:10:17.228Z</time>
</trkpt>
<trkpt lat="-27.4345461" lon="152.9233933">
<ele>149.708</ele>
<time>2015-12-31T09:10:20.455Z</time>
</trkpt>
<trkpt lat="-27.4345613" lon="152.9231996">
<ele>149.215</ele>
<time>2015-12-31T09:10:21.774Z</time>
</trkpt>
<trkpt lat="-27.4349228" lon="152.9228476">
<ele>148.894</ele>
<time>2015-12-31T09:10:25.624Z</time>
</trkpt>
<trkpt lat="-27.4351207" lon="152.9227360">
<ele>148.899</ele>
<time>2015-12-31T09:10:27.816Z</time>
</trkpt>
<trkpt lat="-27.4352250" lon="152.9226235">
<ele>148.664</ele>
<time>2015-12-31T09:10:29.472Z</time>
</trkpt>
<trkpt lat="-27.4352410" lon="152.9223411">
<ele>147.798</ele>
<time>2015-12-31T09:10:32.354Z</time>
</trkpt>
<trkpt lat="-27.4351208" lon="152.9221779">
<ele>146.534</ele>
<time>2015-12-31T09:10:34.199Z</time>
</trkpt>
<trkpt lat="-27.4348788" lon="152.9220668">
<ele>145.171</ele>
<time>2015-12-31T09:10:36.383Z</time>
</trkpt>
<trkpt lat="-27.4345375" lon="152.9218290">
<ele>143.904</ele>
<time>2015-12-31T09:10:39.620Z</time>
</trkpt>
<trkpt lat="-27.4344079" lon="152.9215808">
<ele>142.827</ele>
<time>2015-12-31T09:10:41.557Z</time>
</trkpt>
<trkpt lat="-27.4342589" lon="152.9212288">
<ele>141.690</ele>
<time>2015-12-31T09:10:43.935Z</time>
</trkpt>
<trkpt lat="-27.4341907" lon="152.9207442">
<ele>140.317</ele>
<time>2015-12-31T09:10:46.939Z</time>
</trkpt>
<trkpt lat="-27.4340296" lon="152.9202992">
<ele>138.508</ele>
<time>2015-12-31T09:10:49.756Z</time>
</trkpt>
<trkpt lat="-27.4340219" lon="152.9197420">
<ele>135.952</ele>
<time>2015-12-31T09:10:52.633Z</time>
</trkpt>
<trkpt lat="-27.4340476" lon="152.9193139">
<ele>133.056</ele>
<time>2015-12-31T09:10:54.649Z</time>
</trkpt>
<trkpt lat="-27.4339780" lon="152.9186741">
<ele>130.698</ele>
<time>2015-12-31T09:10:57.821Z</time>
</trkpt>
<trkpt lat="-27.4337363" lon="152.9182641">
<ele>128.338</ele>
<time>2015-12-31T09:11:00.395Z</time>
</trkpt>
<trkpt lat="-27.4335267" lon="152.9179410">
<ele>125.285</ele>
<time>2015-12-31T09:11:02.500Z</time>
</trkpt>
<trkpt lat="-27.4332813" lon="152.9174386">
<ele>122.762</ele>
<time>2015-12-31T09:11:05.662Z</time>
</trkpt>
<trkpt lat="-27.4332156" lon="152.9171348">
<ele>121.872</ele>
<time>2015-12-31T09:11:07.577Z</time>
</trkpt>
<trkpt lat="-27.4332810" lon="152.9168069">
<ele>121.995</ele>
<time>2015-12-31T09:11:09.598Z</time>
</trkpt>
<trkpt lat="-27.4334032" lon="152.9164848">
<ele>122.638</ele>
<time>2015-12-31T09:11:11.476Z</time>
</trkpt>
<trkpt lat="-27.4334522" lon="152.9158548">
<ele>123.854</ele>
<time>2015-12-31T09:11:14.544Z</time>
</trkpt>
<trkpt lat="-27.4334393" lon="152.9151343">
<ele>126.334</ele>
<time>2015-12-31T09:11:17.775Z</time>
</trkpt>
<trkpt lat="-27.4334193" lon="152.9147264">
<ele>131.301</ele>
<time>2015-12-31T09:11:19.651Z</time>
</trkpt>
<trkpt lat="-27.4333279" lon="152.9142861">
<ele>137.963</ele>
<time>2015-12-31T09:11:21.811Z</time>
</trkpt>
<trkpt lat="-27.4331141" lon="152.9137710">
<ele>143.215</ele>
<time>2015-12-31T09:11:24.637Z</time>
</trkpt>
<trkpt lat="-27.4329117" lon="152.9134551">
<ele>145.645</ele>
<time>2015-12-31T09:11:26.592Z</time>
</trkpt>
<trkpt lat="-27.4325660" lon="152.9129973">
<ele>146.422</ele>
<time>2015-12-31T09:11:29.730Z</time>
</trkpt>
<trkpt lat="-27.4324070" lon="152.9126854">
<ele>146.700</ele>
<time>2015-12-31T09:11:31.755Z</time>
</trkpt>
<trkpt lat="-27.4323580" lon="152.9123124">
<ele>146.565</ele>
<time>2015-12-31T09:11:33.799Z</time>
</trkpt>
<trkpt lat="-27.4324628" lon="152.9117368">
<ele>145.735</ele>
<time>2015-12-31T09:11:36.864Z</time>
</trkpt>
<trkpt lat="-27.4326988" lon="152.9112378">
<ele>144.244</ele>
<time>2015-12-31T09:11:39.730Z</time>
</trkpt>
<trkpt lat="-27.4328954" lon="152.9108972">
<ele>142.125</ele>
<time>2015-12-31T09:11:41.757Z</time>
</trkpt>
<trkpt lat="-27.4330595" lon="152.9105374">
<ele>139.300</ele>
<time>2015-12-31T09:11:43.778Z</time>
</trkpt>
<trkpt lat="-27.4331353" lon="152.9101630">
<ele>135.952</ele>
<time>2015-12-31T09:11:45.630Z</time>
</trkpt>
<trkpt lat="-27.4331965" lon="152.9095295">
<ele>132.249</ele>
<time>2015-12-31T09:11:48.599Z</time>
</trkpt>
<trkpt lat="-27.4331682" lon="152.9090888">
<ele>128.509</ele>
<time>2015-12-31T09:11:50.607Z</time>
</trkpt>
<trkpt lat="-27.4330401" lon="152.9084426">
<ele>125.273</ele>
<time>2015-12-31T09:11:53.666Z</time>
</trkpt>
<trkpt lat="-27.4329246" lon="152.9080628">
<ele>122.953</ele>
<time>2015-12-31T09:11:55.673Z</time>
</trkpt>
<trkpt lat="-27.4327692" lon="152.9077485">
<ele>122.279</ele>
<time>2015-12-31T09:11:57.653Z</time>
</trkpt>
<trkpt lat="-27.4325818" lon="152.9074791">
<ele>123.517</ele>
<time>2015-12-31T09:11:59.680Z</time>
</trkpt>
<trkpt lat="-27.4324496" lon="152.9071909">
<ele>125.745</ele>
<time>2015-12-31T09:12:01.533Z</time>
</trkpt>
<trkpt lat="-27.4322466" lon="152.9066819">
<ele>128.344</ele>
<time>2015-12-31T09:12:04.643Z</time>
</trkpt>
<trkpt lat="-27.4320101" lon="152.9062092">
<ele>131.755</ele>
<time>2015-12-31T09:12:07.752Z</time>
</trkpt>
<trkpt lat="-27.4318107" lon="152.9059673">
<ele>136.092</ele>
<time>2015-12-31T09:12:09.859Z</time>
</trkpt>
<trkpt lat="-27.4315579" lon="152.9056421">
<ele>140.601</ele>
<time>2015-12-31T09:12:12.764Z</time>
</trkpt>
<trkpt lat="-27.4314812" lon="152.9052208">
<ele>144.776</ele>
<time>2015-12-31T09:12:15.585Z</time>
</trkpt>
<trkpt lat="-27.4315219" lon="152.9048257">
<ele>148.855</ele>
<time>2015-12-31T09:12:17.855Z</time>
</trkpt>
<trkpt lat="-27.4316115" lon="152.9042778">
<ele>153.279</ele>
<time>2015-12-31T09:12:21.062Z</time>
</trkpt>
<trkpt lat="-27.4316371" lon="152.9039655">
<ele>158.330</ele>
<time>2015-12-31T09:12:23.153Z</time>
</trkpt>
<trkpt lat="-27.4315283" lon="152.9035344">
<ele>163.083</ele>
<time>2015-12-31T09:12:26.693Z</time>
</trkpt>
<trkpt lat="-27.4314860" lon="152.9033282">
<ele>166.471</ele>
<time>2015-12-31T09:12:28.712Z</time>
</trkpt>
<trkpt lat="-27.4315693" lon="152.9030844">
<ele>168.720</ele>
<time>2015-12-31T09:12:31.095Z</time>
</trkpt>
<trkpt lat="-27.4318084" lon="152.9029489">
<ele>170.434</ele>
<time>2015-12-31T09:12:33.620Z</time>
</trkpt>
<trkpt lat="-27.4321866" lon="152.9027967">
<ele>172.516</ele>
<time>2015-12-31T09:12:37.129Z</time>
</trkpt>
<trkpt lat="-27.4324126" lon="152.9024666">
<ele>175.620</ele>
<time>2015-12-31T09:12:40.070Z</time>
</trkpt>
<trkpt lat="-27.4325628" lon="152.9021894">
<ele>179.712</ele>
<time>2015-12-31T09:12:42.497Z</time>
</trkpt>
<trkpt lat="-27.4326655" lon="152.9019860">
<ele>184.506</ele>
<time>2015-12-31T09:12:44.264Z</time>
</trkpt>
<trkpt lat="-27.4326682" lon="152.9017113">
<ele>188.808</ele>
<time>2015-12-31T09:12:46.199Z</time>
</trkpt>
<trkpt lat="-27.4325520" lon="152.9014495">
<ele>191.522</ele>
<time>2015-12-31T09:12:48.140Z</time>
</trkpt>
<trkpt lat="-27.4323796" lon="152.9011905">
<ele>193.387</ele>
<time>2015-12-31T09:12:50.071Z</time>
</trkpt>
<trkpt lat="-27.4322522" lon="152.9006864">
<ele>195.879</ele>
<time>2015-12-31T09:12:52.994Z</time>
</trkpt>
<trkpt lat="-27.4321978" lon="152.9003410">
<ele>200.371</ele>
<time>2015-12-31T09:12:54.885Z</time>
</trkpt>
<trkpt lat="-27.4322618" lon="152.8997149">
<ele>206.471</ele>
<time>2015-12-31T09:12:58.084Z</time>
</trkpt>
<trkpt lat="-27.4323011" lon="152.8993077">
<ele>212.473</ele>
<time>2015-12-31T09:13:00.262Z</time>
</trkpt>
<trkpt lat="-27.4323478" lon="152.8989339">
<ele>217.161</ele>
<time>2015-12-31T09:13:02.331Z</time>
</trkpt>
<trkpt lat="-27.4321958" lon="152.8983638">
<ele>219.981</ele>
<time>2015-12-31T09:13:05.575Z</time>
</trkpt>
<trkpt lat="-27.4319514" lon="152.8979384">
<ele>220.981</ele>
<time>2015-12-31T09:13:08.262Z</time>
</trkpt>
<trkpt lat="-27.4317744" lon="152.8976060">
<ele>221.789</ele>
<time>2015-12-31T09:13:10.363Z</time>
</trkpt>
<trkpt lat="-27.4315371" lon="152.8971315">
<ele>223.562</ele>
<time>2015-12-31T09:13:13.199Z</time>
</trkpt>
<trkpt lat="-27.4314414" lon="152.8967663">
<ele>225.516</ele>
<time>2015-12-31T09:13:15.022Z</time>
</trkpt>
<trkpt lat="-27.4314892" lon="152.8960601">
<ele>226.618</ele>
<time>2015-12-31T09:13:17.772Z</time>
</trkpt>
<trkpt lat="-27.4316345" lon="152.8952286">
<ele>226.982</ele>
<time>2015-12-31T09:13:20.762Z</time>
</trkpt>
<trkpt lat="-27.4317345" lon="152.8946386">
<ele>226.972</ele>
<time>2015-12-31T09:13:22.922Z</time>
</trkpt>
<trkpt lat="-27.4318600" lon="152.8938951">
<ele>226.852</ele>
<time>2015-12-31T09:13:26.307Z</time>
</trkpt>
<trkpt lat="-27.4319518" lon="152.8933582">
<ele>226.668</ele>
<time>2015-12-31T09:13:29.823Z</time>
</trkpt>
<trkpt lat="-27.4320541" lon="152.8931960">
<ele>225.686</ele>
<time>2015-12-31T09:13:31.282Z</time>
</trkpt>
<trkpt lat="-27.4323319" lon="152.8929884">
<ele>223.589</ele>
<time>2015-12-31T09:13:34.199Z</time>
</trkpt>
<trkpt lat="-27.4324962" lon="152.8928212">
<ele>222.425</ele>
<time>2015-12-31T09:13:36.066Z</time>
</trkpt>
<trkpt lat="-27.4326767" lon="152.8924050">
<ele>224.155</ele>
<time>2015-12-31T09:13:38.927Z</time>
</trkpt>
<trkpt lat="-27.4327250" lon="152.8920059">
<ele>228.102</ele>
<time>2015-12-31T09:13:41.167Z</time>
</trkpt>
<trkpt lat="-27.4327689" lon="152.8914223">
<ele>232.990</ele>
<time>2015-12-31T09:13:44.371Z</time>
</trkpt>
<trkpt lat="-27.4327787" lon="152.8910469">
<ele>238.554</ele>
<time>2015-12-31T09:13:46.467Z</time>
</trkpt>
<trkpt lat="-27.4327203" lon="152.8905097">
<ele>244.210</ele>
<time>2015-12-31T09:13:49.499Z</time>
</trkpt>
<trkpt lat="-27.4325217" lon="152.8900489">
<ele>249.005</ele>
<time>2015-12-31T09:13:52.335Z</time>
</trkpt>
<trkpt lat="-27.4323408" lon="152.8897499">
<ele>253.288</ele>
<time>2015-12-31T09:13:54.289Z</time>
</trkpt>
<trkpt lat="-27.4319720" lon="152.8893459">
<ele>257.517</ele>
<time>2015-12-31T09:13:57.165Z</time>
</trkpt>
<trkpt lat="-27.4317852" lon="152.8890294">
<ele>261.692</ele>
<time>2015-12-31T09:13:58.937Z</time>
</trkpt>
<trkpt lat="-27.4314362" lon="152.8884753">
<ele>266.147</ele>
<time>2015-12-31T09:14:01.789Z</time>
</trkpt>
<trkpt lat="-27.4310482" lon="152.8879017">
<ele>271.093</ele>
<time>2015-12-31T09:14:04.915Z</time>
</trkpt>
<trkpt lat="-27.4308146" lon="152.8875233">
<ele>275.848</ele>
<time>2015-12-31T09:14:07.037Z</time>
</trkpt>
<trkpt lat="-27.4305352" lon="152.8870246">
<ele>279.157</ele>
<time>2015-12-31T09:14:10.039Z</time>
</trkpt>
<trkpt lat="-27.4302280" lon="152.8865628">
<ele>279.889</ele>
<time>2015-12-31T09:14:13.215Z</time>
</trkpt>
<trkpt lat="-27.4301287" lon="152.8862329">
<ele>277.952</ele>
<time>2015-12-31T09:14:15.103Z</time>
</trkpt>
<trkpt lat="-27.4300178" lon="152.8856504">
<ele>274.521</ele>
<time>2015-12-31T09:14:18.083Z</time>
</trkpt>
<trkpt lat="-27.4299443" lon="152.8850237">
<ele>272.115</ele>
<time>2015-12-31T09:14:21.278Z</time>
</trkpt>
<trkpt lat="-27.4299223" lon="152.8844541">
<ele>272.052</ele>
<time>2015-12-31T09:14:24.237Z</time>
</trkpt>
<trkpt lat="-27.4299238" lon="152.8839154">
<ele>274.127</ele>
<time>2015-12-31T09:14:26.908Z</time>
</trkpt>
<trkpt lat="-27.4298629" lon="152.8835004">
<ele>277.664</ele>
<time>2015-12-31T09:14:28.927Z</time>
</trkpt>
<trkpt lat="-27.4298626" lon="152.8828850">
<ele>281.423</ele>
<time>2015-12-31T09:14:31.691Z</time>
</trkpt>
<trkpt lat="-27.4298681" lon="152.8824328">
<ele>284.222</ele>
<time>2015-12-31T09:14:33.633Z</time>
</trkpt>
<trkpt lat="-27.4299534" lon="152.8817222">
<ele>285.698</ele>
<time>2015-12-31T09:14:36.655Z</time>
</trkpt>
<trkpt lat="-27.4299801" lon="152.8812373">
<ele>286.057</ele>
<time>2015-12-31T09:14:38.856Z</time>
</trkpt>
<trkpt lat="-27.4299291" lon="152.8806035">
<ele>285.710</ele>
<time>2015-12-31T09:14:42.136Z</time>
</trkpt>
<trkpt lat="-27.4297562" lon="152.8801017">
<ele>285.420</ele>
<time>2015-12-31T09:14:45.184Z</time>
</trkpt>
<trkpt lat="-27.4296372" lon="152.8797711">
<ele>285.912</ele>
<time>2015-12-31T09:14:47.237Z</time>
</trkpt>
<trkpt lat="-27.4293603" lon="152.8793789">
<ele>287.177</ele>
<time>2015-12-31T09:14:50.020Z</time>
</trkpt>
<trkpt lat="-27.4291310" lon="152.8788508">
<ele>289.078</ele>
<time>2015-12-31T09:14:53.245Z</time>
</trkpt>
<trkpt lat="-27.4290563" lon="152.8784851">
<ele>292.257</ele>
<time>2015-12-31T09:14:55.576Z</time>
</trkpt>
<trkpt lat="-27.4289952" lon="152.8781758">
<ele>296.852</ele>
<time>2015-12-31T09:14:57.642Z</time>
</trkpt>
<trkpt lat="-27.4288612" lon="152.8779571">
<ele>301.404</ele>
<time>2015-12-31T09:14:59.251Z</time>
</trkpt>
<trkpt lat="-27.4286749" lon="152.8777031">
<ele>304.345</ele>
<time>2015-12-31T09:15:01.196Z</time>
</trkpt>
<trkpt lat="-27.4282970" lon="152.8773694">
<ele>306.199</ele>
<time>2015-12-31T09:15:04.313Z</time>
</trkpt>
<trkpt lat="-27.4279158" lon="152.8770460">
<ele>308.893</ele>
<time>2015-12-31T09:15:07.669Z</time>
</trkpt>
<trkpt lat="-27.4277186" lon="152.8768684">
<ele>312.746</ele>
<time>2015-12-31T09:15:09.454Z</time>
</trkpt>
<trkpt lat="-27.4274068" lon="152.8766433">
<ele>315.724</ele>
<time>2015-12-31T09:15:11.952Z</time>
</trkpt>
<trkpt lat="-27.4269538" lon="152.8764909">
<ele>316.177</ele>
<time>2015-12-31T09:15:15.084Z</time>
</trkpt>
<trkpt lat="-27.4266614" lon="152.8764624">
<ele>314.345</ele>
<time>2015-12-31T09:15:17.003Z</time>
</trkpt>
<trkpt lat="-27.4263486" lon="152.8764695">
<ele>311.278</ele>
<time>2015-12-31T09:15:19.001Z</time>
</trkpt>
<trkpt lat="-27.4258820" lon="152.8766472">
<ele>308.344</ele>
<time>2015-12-31T09:15:22.226Z</time>
</trkpt>
<trkpt lat="-27.4256006" lon="152.8767943">
<ele>306.563</ele>
<time>2015-12-31T09:15:24.446Z</time>
</trkpt>
<trkpt lat="-27.4252216" lon="152.8768103">
<ele>306.173</ele>
<time>2015-12-31T09:15:27.305Z</time>
</trkpt>
<trkpt lat="-27.4248779" lon="152.8766257">
<ele>306.693</ele>
<time>2015-12-31T09:15:29.878Z</time>
</trkpt>
<trkpt lat="-27.4245008" lon="152.8762597">
<ele>307.684</ele>
<time>2015-12-31T09:15:33.009Z</time>
</trkpt>
<trkpt lat="-27.4241635" lon="152.8758914">
<ele>309.098</ele>
<time>2015-12-31T09:15:36.467Z</time>
</trkpt>
<trkpt lat="-27.4239562" lon="152.8757729">
<ele>310.784</ele>
<time>2015-12-31T09:15:38.323Z</time>
</trkpt>
<trkpt lat="-27.4236794" lon="152.8756944">
<ele>312.147</ele>
<time>2015-12-31T09:15:40.702Z</time>
</trkpt>
<trkpt lat="-27.4233195" lon="152.8757180">
<ele>313.115</ele>
<time>2015-12-31T09:15:43.706Z</time>
</trkpt>
<trkpt lat="-27.4231216" lon="152.8758366">
<ele>314.075</ele>
<time>2015-12-31T09:15:45.406Z</time>
</trkpt>
<trkpt lat="-27.4228869" lon="152.8760630">
<ele>314.965</ele>
<time>2015-12-31T09:15:47.681Z</time>
</trkpt>
<trkpt lat="-27.4225329" lon="152.8763120">
<ele>315.609</ele>
<time>2015-12-31T09:15:50.510Z</time>
</trkpt>
<trkpt lat="-27.4222990" lon="152.8765299">
<ele>316.155</ele>
<time>2015-12-31T09:15:52.446Z</time>
</trkpt>
<trkpt lat="-27.4219053" lon="152.8768658">
<ele>316.554</ele>
<time>2015-12-31T09:15:55.388Z</time>
</trkpt>
<trkpt lat="-27.4214306" lon="152.8770731">
<ele>316.603</ele>
<time>2015-12-31T09:15:58.520Z</time>
</trkpt>
<trkpt lat="-27.4211176" lon="152.8771551">
<ele>316.355</ele>
<time>2015-12-31T09:16:00.783Z</time>
</trkpt>
<trkpt lat="-27.4208459" lon="152.8771506">
<ele>315.960</ele>
<time>2015-12-31T09:16:02.933Z</time>
</trkpt>
<trkpt lat="-27.4205929" lon="152.8770511">
<ele>315.689</ele>
<time>2015-12-31T09:16:05.077Z</time>
</trkpt>
<trkpt lat="-27.4204039" lon="152.8768946">
<ele>315.622</ele>
<time>2015-12-31T09:16:06.904Z</time>
</trkpt>
<trkpt lat="-27.4201697" lon="152.8765030">
<ele>315.443</ele>
<time>2015-12-31T09:16:10.071Z</time>
</trkpt>
<trkpt lat="-27.4198685" lon="152.8761570">
<ele>314.963</ele>
<time>2015-12-31T09:16:13.056Z</time>
</trkpt>
<trkpt lat="-27.4197267" lon="152.8759111">
<ele>313.974</ele>
<time>2015-12-31T09:16:14.655Z</time>
</trkpt>
<trkpt lat="-27.4195338" lon="152.8752810">
<ele>312.424</ele>
<time>2015-12-31T09:16:17.837Z</time>
</trkpt>
<trkpt lat="-27.4193958" lon="152.8745789">
<ele>310.874</ele>
<time>2015-12-31T09:16:21.145Z</time>
</trkpt>
<trkpt lat="-27.4192603" lon="152.8741955">
<ele>309.269</ele>
<time>2015-12-31T09:16:22.970Z</time>
</trkpt>
<trkpt lat="-27.4190308" lon="152.8738351">
<ele>307.137</ele>
<time>2015-12-31T09:16:24.823Z</time>
</trkpt>
<trkpt lat="-27.4187385" lon="152.8734989">
<ele>305.066</ele>
<time>2015-12-31T09:16:26.800Z</time>
</trkpt>
<trkpt lat="-27.4183042" lon="152.8729472">
<ele>304.530</ele>
<time>2015-12-31T09:16:30.070Z</time>
</trkpt>
<trkpt lat="-27.4180434" lon="152.8726126">
<ele>305.896</ele>
<time>2015-12-31T09:16:32.268Z</time>
</trkpt>
<trkpt lat="-27.4176418" lon="152.8721381">
<ele>307.749</ele>
<time>2015-12-31T09:16:36.095Z</time>
</trkpt>
<trkpt lat="-27.4177002" lon="152.8718618">
<ele>308.821</ele>
<time>2015-12-31T09:16:37.660Z</time>
</trkpt>
<trkpt lat="-27.4176821" lon="152.8713604">
<ele>309.771</ele>
<time>2015-12-31T09:16:40.322Z</time>
</trkpt>
<trkpt lat="-27.4176866" lon="152.8707839">
<ele>311.828</ele>
<time>2015-12-31T09:16:43.226Z</time>
</trkpt>
<trkpt lat="-27.4176894" lon="152.8702168">
<ele>315.029</ele>
<time>2015-12-31T09:16:45.989Z</time>
</trkpt>
<trkpt lat="-27.4177719" lon="152.8695946">
<ele>318.094</ele>
<time>2015-12-31T09:16:49.089Z</time>
</trkpt>
<trkpt lat="-27.4178216" lon="152.8691826">
<ele>319.762</ele>
<time>2015-12-31T09:16:51.391Z</time>
</trkpt>
<trkpt lat="-27.4178851" lon="152.8688309">
<ele>319.474</ele>
<time>2015-12-31T09:16:53.503Z</time>
</trkpt>
<trkpt lat="-27.4181331" lon="152.8684502">
<ele>317.527</ele>
<time>2015-12-31T09:16:56.442Z</time>
</trkpt>
<trkpt lat="-27.4183617" lon="152.8682673">
<ele>314.876</ele>
<time>2015-12-31T09:16:58.281Z</time>
</trkpt>
<trkpt lat="-27.4187319" lon="152.8679622">
<ele>312.717</ele>
<time>2015-12-31T09:17:01.056Z</time>
</trkpt>
<trkpt lat="-27.4190213" lon="152.8676759">
<ele>311.778</ele>
<time>2015-12-31T09:17:03.429Z</time>
</trkpt>
<trkpt lat="-27.4194055" lon="152.8673315">
<ele>311.916</ele>
<time>2015-12-31T09:17:06.480Z</time>
</trkpt>
<trkpt lat="-27.4196121" lon="152.8671059">
<ele>312.384</ele>
<time>2015-12-31T09:17:08.284Z</time>
</trkpt>
<trkpt lat="-27.4198288" lon="152.8668273">
<ele>312.646</ele>
<time>2015-12-31T09:17:10.611Z</time>
</trkpt>
<trkpt lat="-27.4200632" lon="152.8663842">
<ele>313.083</ele>
<time>2015-12-31T09:17:14.766Z</time>
</trkpt>
<trkpt lat="-27.4201306" lon="152.8661427">
<ele>314.364</ele>
<time>2015-12-31T09:17:17.060Z</time>
</trkpt>
<trkpt lat="-27.4200982" lon="152.8659049">
<ele>316.280</ele>
<time>2015-12-31T09:17:19.469Z</time>
</trkpt>
<trkpt lat="-27.4199408" lon="152.8655976">
<ele>318.044</ele>
<time>2015-12-31T09:17:23.312Z</time>
</trkpt>
<trkpt lat="-27.4198980" lon="152.8653528">
<ele>319.660</ele>
<time>2015-12-31T09:17:25.256Z</time>
</trkpt>
<trkpt lat="-27.4199388" lon="152.8651815">
<ele>321.546</ele>
<time>2015-12-31T09:17:26.511Z</time>
</trkpt>
<trkpt lat="-27.4200943" lon="152.8650184">
<ele>323.485</ele>
<time>2015-12-31T09:17:28.007Z</time>
</trkpt>
<trkpt lat="-27.4205031" lon="152.8647044">
<ele>325.436</ele>
<time>2015-12-31T09:17:31.854Z</time>
</trkpt>
<trkpt lat="-27.4208358" lon="152.8644039">
<ele>328.622</ele>
<time>2015-12-31T09:17:35.566Z</time>
</trkpt>
<trkpt lat="-27.4210728" lon="152.8641497">
<ele>333.457</ele>
<time>2015-12-31T09:17:38.019Z</time>
</trkpt>
<trkpt lat="-27.4211347" lon="152.8639025">
<ele>338.094</ele>
<time>2015-12-31T09:17:39.577Z</time>
</trkpt>
<trkpt lat="-27.4211911" lon="152.8634396">
<ele>340.844</ele>
<time>2015-12-31T09:17:42.354Z</time>
</trkpt>
<trkpt lat="-27.4212629" lon="152.8631059">
<ele>342.014</ele>
<time>2015-12-31T09:17:44.289Z</time>
</trkpt>
<trkpt lat="-27.4213646" lon="152.8627939">
<ele>342.489</ele>
<time>2015-12-31T09:17:46.114Z</time>
</trkpt>
<trkpt lat="-27.4214675" lon="152.8622556">
<ele>342.656</ele>
<time>2015-12-31T09:17:49.976Z</time>
</trkpt>
<trkpt lat="-27.4215338" lon="152.8619057">
<ele>343.258</ele>
<time>2015-12-31T09:17:52.924Z</time>
</trkpt>
<trkpt lat="-27.4216746" lon="152.8615404">
<ele>344.800</ele>
<time>2015-12-31T09:17:55.865Z</time>
</trkpt>
<trkpt lat="-27.4217302" lon="152.8613242">
<ele>345.330</ele>
<time>2015-12-31T09:17:57.311Z</time>
</trkpt>
<trkpt lat="-27.4217028" lon="152.8610826">
<ele>343.159</ele>
<time>2015-12-31T09:17:58.706Z</time>
</trkpt>
<trkpt lat="-27.4215508" lon="152.8608560">
<ele>340.039</ele>
<time>2015-12-31T09:18:00.261Z</time>
</trkpt>
<trkpt lat="-27.4214015" lon="152.8604979">
<ele>338.167</ele>
<time>2015-12-31T09:18:02.493Z</time>
</trkpt>
<trkpt lat="-27.4212288" lon="152.8601550">
<ele>337.506</ele>
<time>2015-12-31T09:18:04.836Z</time>
</trkpt>
<trkpt lat="-27.4210939" lon="152.8598102">
<ele>337.192</ele>
<time>2015-12-31T09:18:07.264Z</time>
</trkpt>
<trkpt lat="-27.4209097" lon="152.8593943">
<ele>336.845</ele>
<time>2015-12-31T09:18:10.321Z</time>
</trkpt>
<trkpt lat="-27.4209370" lon="152.8590311">
<ele>336.665</ele>
<time>2015-12-31T09:18:12.733Z</time>
</trkpt>
<trkpt lat="-27.4208763" lon="152.8585890">
<ele>337.155</ele>
<time>2015-12-31T09:18:15.726Z</time>
</trkpt>
<trkpt lat="-27.4207155" lon="152.8581501">
<ele>338.920</ele>
<time>2015-12-31T09:18:18.581Z</time>
</trkpt>
<trkpt lat="-27.4206135" lon="152.8577213">
<ele>342.023</ele>
<time>2015-12-31T09:18:20.927Z</time>
</trkpt>
<trkpt lat="-27.4205780" lon="152.8574021">
<ele>345.569</ele>
<time>2015-12-31T09:18:22.504Z</time>
</trkpt>
<trkpt lat="-27.4206283" lon="152.8567622">
<ele>348.791</ele>
<time>2015-12-31T09:18:25.629Z</time>
</trkpt>
<trkpt lat="-27.4206603" lon="152.8563691">
<ele>351.542</ele>
<time>2015-12-31T09:18:27.498Z</time>
</trkpt>
<trkpt lat="-27.4206188" lon="152.8557630">
<ele>353.677</ele>
<time>2015-12-31T09:18:30.338Z</time>
</trkpt>
<trkpt lat="-27.4204898" lon="152.8551095">
<ele>354.979</ele>
<time>2015-12-31T09:18:33.748Z</time>
</trkpt>
<trkpt lat="-27.4204342" lon="152.8546896">
<ele>356.723</ele>
<time>2015-12-31T09:18:36.092Z</time>
</trkpt>
<trkpt lat="-27.4204131" lon="152.8542762">
<ele>360.383</ele>
<time>2015-12-31T09:18:38.459Z</time>
</trkpt>
<trkpt lat="-27.4203892" lon="152.8537637">
<ele>365.002</ele>
<time>2015-12-31T09:18:41.257Z</time>
</trkpt>
<trkpt lat="-27.4203005" lon="152.8534293">
<ele>368.660</ele>
<time>2015-12-31T09:18:42.973Z</time>
</trkpt>
<trkpt lat="-27.4202853" lon="152.8529394">
<ele>371.221</ele>
<time>2015-12-31T09:18:45.305Z</time>
</trkpt>
<trkpt lat="-27.4203654" lon="152.8524951">
<ele>373.159</ele>
<time>2015-12-31T09:18:47.524Z</time>
</trkpt>
<trkpt lat="-27.4204875" lon="152.8518676">
<ele>375.102</ele>
<time>2015-12-31T09:18:50.674Z</time>
</trkpt>
<trkpt lat="-27.4205715" lon="152.8514910">
<ele>377.660</ele>
<time>2015-12-31T09:18:52.631Z</time>
</trkpt>
<trkpt lat="-27.4207559" lon="152.8508778">
<ele>380.284</ele>
<time>2015-12-31T09:18:56.560Z</time>
</trkpt>
<trkpt lat="-27.4209395" lon="152.8503484">
<ele>381.850</ele>
<time>2015-12-31T09:19:00.474Z</time>
</trkpt>
<trkpt lat="-27.4210327" lon="152.8500486">
<ele>381.757</ele>
<time>2015-12-31T09:19:02.319Z</time>
</trkpt>
<trkpt lat="-27.4209129" lon="152.8497355">
<ele>379.715</ele>
<time>2015-12-31T09:19:04.087Z</time>
</trkpt>
<trkpt lat="-27.4207611" lon="152.8494943">
<ele>376.652</ele>
<time>2015-12-31T09:19:05.524Z</time>
</trkpt>
<trkpt lat="-27.4204565" lon="152.8490203">
<ele>374.475</ele>
<time>2015-12-31T09:19:08.247Z</time>
</trkpt>
<trkpt lat="-27.4201032" lon="152.8484993">
<ele>373.900</ele>
<time>2015-12-31T09:19:11.275Z</time>
</trkpt>
<trkpt lat="-27.4198037" lon="152.8479459">
<ele>373.461</ele>
<time>2015-12-31T09:19:14.246Z</time>
</trkpt>
<trkpt lat="-27.4195325" lon="152.8473816">
<ele>371.183</ele>
<time>2015-12-31T09:19:17.130Z</time>
</trkpt>
<trkpt lat="-27.4193649" lon="152.8469879">
<ele>367.390</ele>
<time>2015-12-31T09:19:19.076Z</time>
</trkpt>
<trkpt lat="-27.4191011" lon="152.8463631">
<ele>364.166</ele>
<time>2015-12-31T09:19:22.231Z</time>
</trkpt>
<trkpt lat="-27.4188606" lon="152.8457617">
<ele>362.116</ele>
<time>2015-12-31T09:19:25.309Z</time>
</trkpt>
<trkpt lat="-27.4186735" lon="152.8454186">
<ele>360.098</ele>
<time>2015-12-31T09:19:27.162Z</time>
</trkpt>
<trkpt lat="-27.4184209" lon="152.8450839">
<ele>357.778</ele>
<time>2015-12-31T09:19:29.181Z</time>
</trkpt>
<trkpt lat="-27.4180560" lon="152.8445848">
<ele>356.617</ele>
<time>2015-12-31T09:19:32.393Z</time>
</trkpt>
<trkpt lat="-27.4178156" lon="152.8442445">
<ele>358.592</ele>
<time>2015-12-31T09:19:34.764Z</time>
</trkpt>
<trkpt lat="-27.4175952" lon="152.8439210">
<ele>363.124</ele>
<time>2015-12-31T09:19:37.014Z</time>
</trkpt>
<trkpt lat="-27.4174136" lon="152.8436325">
<ele>367.033</ele>
<time>2015-12-31T09:19:38.915Z</time>
</trkpt>
<trkpt lat="-27.4172738" lon="152.8433089">
<ele>368.308</ele>
<time>2015-12-31T09:19:40.796Z</time>
</trkpt>
<trkpt lat="-27.4171581" lon="152.8427741">
<ele>367.621</ele>
<time>2015-12-31T09:19:43.470Z</time>
</trkpt>
<trkpt lat="-27.4171743" lon="152.8421912">
<ele>366.110</ele>
<time>2015-12-31T09:19:46.193Z</time>
</trkpt>
<trkpt lat="-27.4173219" lon="152.8415693">
<ele>364.125</ele>
<time>2015-12-31T09:19:49.279Z</time>
</trkpt>
<trkpt lat="-27.4174172" lon="152.8411594">
<ele>361.793</ele>
<time>2015-12-31T09:19:51.317Z</time>
</trkpt>
<trkpt lat="-27.4175517" lon="152.8405662">
<ele>359.697</ele>
<time>2015-12-31T09:19:54.168Z</time>
</trkpt>
<trkpt lat="-27.4176022" lon="152.8401376">
<ele>357.935</ele>
<time>2015-12-31T09:19:56.161Z</time>
</trkpt>
<trkpt lat="-27.4176512" lon="152.8397065">
<ele>356.293</ele>
<time>2015-12-31T09:19:58.092Z</time>
</trkpt>
<trkpt lat="-27.4177827" lon="152.8390699">
<ele>354.901</ele>
<time>2015-12-31T09:20:00.955Z</time>
</trkpt>
<trkpt lat="-27.4179266" lon="152.8386392">
<ele>353.882</ele>
<time>2015-12-31T09:20:03.164Z</time>
</trkpt>
<trkpt lat="-27.4181578" lon="152.8380021">
<ele>353.847</ele>
<time>2015-12-31T09:20:06.647Z</time>
</trkpt>
<trkpt lat="-27.4182463" lon="152.8374549">
<ele>355.231</ele>
<time>2015-12-31T09:20:09.399Z</time>
</trkpt>
<trkpt lat="-27.4181464" lon="152.8368616">
<ele>356.992</ele>
<time>2015-12-31T09:20:12.442Z</time>
</trkpt>
<trkpt lat="-27.4179393" lon="152.8362885">
<ele>359.003</ele>
<time>2015-12-31T09:20:15.890Z</time>
</trkpt>
<trkpt lat="-27.4178289" lon="152.8359238">
<ele>362.932</ele>
<time>2015-12-31T09:20:18.116Z</time>
</trkpt>
<trkpt lat="-27.4177323" lon="152.8354236">
<ele>368.506</ele>
<time>2015-12-31T09:20:20.965Z</time>
</trkpt>
<trkpt lat="-27.4177371" lon="152.8350273">
<ele>373.720</ele>
<time>2015-12-31T09:20:23.007Z</time>
</trkpt>
<trkpt lat="-27.4176358" lon="152.8345545">
<ele>377.907</ele>
<time>2015-12-31T09:20:25.453Z</time>
</trkpt>
<trkpt lat="-27.4174847" lon="152.8342009">
<ele>381.554</ele>
<time>2015-12-31T09:20:27.404Z</time>
</trkpt>
<trkpt lat="-27.4173137" lon="152.8338422">
<ele>385.556</ele>
<time>2015-12-31T09:20:29.280Z</time>
</trkpt>
<trkpt lat="-27.4170926" lon="152.8333089">
<ele>390.108</ele>
<time>2015-12-31T09:20:31.729Z</time>
</trkpt>
<trkpt lat="-27.4169108" lon="152.8328951">
<ele>393.763</ele>
<time>2015-12-31T09:20:33.613Z</time>
</trkpt>
<trkpt lat="-27.4165921" lon="152.8322356">
<ele>395.651</ele>
<time>2015-12-31T09:20:37.031Z</time>
</trkpt>
<trkpt lat="-27.4164116" lon="152.8318234">
<ele>396.580</ele>
<time>2015-12-31T09:20:39.629Z</time>
</trkpt>
<trkpt lat="-27.4162818" lon="152.8314780">
<ele>397.687</ele>
<time>2015-12-31T09:20:41.847Z</time>
</trkpt>
<trkpt lat="-27.4160498" lon="152.8310853">
<ele>399.193</ele>
<time>2015-12-31T09:20:44.442Z</time>
</trkpt>
<trkpt lat="-27.4157881" lon="152.8306565">
<ele>400.389</ele>
<time>2015-12-31T09:20:47.464Z</time>
</trkpt>
<trkpt lat="-27.4154193" lon="152.8303262">
<ele>400.810</ele>
<time>2015-12-31T09:20:50.977Z</time>
</trkpt>
<trkpt lat="-27.4150923" lon="152.8300661">
<ele>400.697</ele>
<time>2015-12-31T09:20:53.726Z</time>
</trkpt>
<trkpt lat="-27.4148741" lon="152.8299494">
<ele>399.559</ele>
<time>2015-12-31T09:20:55.324Z</time>
</trkpt>
<trkpt lat="-27.4145856" lon="152.8298439">
<ele>396.583</ele>
<time>2015-12-31T09:20:57.431Z</time>
</trkpt>
<trkpt lat="-27.4141204" lon="152.8296953">
<ele>392.800</ele>
<time>2015-12-31T09:21:01.079Z</time>
</trkpt>
<trkpt lat="-27.4138723" lon="152.8295882">
<ele>389.844</ele>
<time>2015-12-31T09:21:03.008Z</time>
</trkpt>
<trkpt lat="-27.4136669" lon="152.8294119">
<ele>387.113</ele>
<time>2015-12-31T09:21:04.745Z</time>
</trkpt>
<trkpt lat="-27.4135271" lon="152.8291246">
<ele>383.523</ele>
<time>2015-12-31T09:21:06.695Z</time>
</trkpt>
<trkpt lat="-27.4134169" lon="152.8288036">
<ele>379.899</ele>
<time>2015-12-31T09:21:08.852Z</time>
</trkpt>
<trkpt lat="-27.4133772" lon="152.8282842">
<ele>377.547</ele>
<time>2015-12-31T09:21:12.565Z</time>
</trkpt>
<trkpt lat="-27.4133375" lon="152.8279465">
<ele>376.502</ele>
<time>2015-12-31T09:21:14.680Z</time>
</trkpt>
<trkpt lat="-27.4132359" lon="152.8276003">
<ele>375.764</ele>
<time>2015-12-31T09:21:16.663Z</time>
</trkpt>
<trkpt lat="-27.4130432" lon="152.8273772">
<ele>373.761</ele>
<time>2015-12-31T09:21:18.086Z</time>
</trkpt>
<trkpt lat="-27.4126245" lon="152.8269804">
<ele>370.349</ele>
<time>2015-12-31T09:21:20.577Z</time>
</trkpt>
<trkpt lat="-27.4123237" lon="152.8266218">
<ele>367.634</ele>
<time>2015-12-31T09:21:22.553Z</time>
</trkpt>
<trkpt lat="-27.4118558" lon="152.8260647">
<ele>366.919</ele>
<time>2015-12-31T09:21:25.935Z</time>
</trkpt>
<trkpt lat="-27.4115619" lon="152.8257146">
<ele>366.595</ele>
<time>2015-12-31T09:21:28.511Z</time>
</trkpt>
<trkpt lat="-27.4113151" lon="152.8254125">
<ele>364.863</ele>
<time>2015-12-31T09:21:30.896Z</time>
</trkpt>
<trkpt lat="-27.4111880" lon="152.8250104">
<ele>362.168</ele>
<time>2015-12-31T09:21:33.179Z</time>
</trkpt>
<trkpt lat="-27.4110988" lon="152.8246147">
<ele>359.880</ele>
<time>2015-12-31T09:21:35.302Z</time>
</trkpt>
<trkpt lat="-27.4110986" lon="152.8240086">
<ele>358.516</ele>
<time>2015-12-31T09:21:38.597Z</time>
</trkpt>
<trkpt lat="-27.4110492" lon="152.8236627">
<ele>358.366</ele>
<time>2015-12-31T09:21:40.447Z</time>
</trkpt>
<trkpt lat="-27.4109783" lon="152.8233331">
<ele>359.342</ele>
<time>2015-12-31T09:21:42.149Z</time>
</trkpt>
<trkpt lat="-27.4107950" lon="152.8227841">
<ele>360.970</ele>
<time>2015-12-31T09:21:45.179Z</time>
</trkpt>
<trkpt lat="-27.4106636" lon="152.8224063">
<ele>363.865</ele>
<time>2015-12-31T09:21:47.456Z</time>
</trkpt>
<trkpt lat="-27.4105213" lon="152.8220499">
<ele>368.706</ele>
<time>2015-12-31T09:21:49.806Z</time>
</trkpt>
<trkpt lat="-27.4103577" lon="152.8215838">
<ele>373.990</ele>
<time>2015-12-31T09:21:52.765Z</time>
</trkpt>
<trkpt lat="-27.4102337" lon="152.8212742">
<ele>377.600</ele>
<time>2015-12-31T09:21:54.718Z</time>
</trkpt>
<trkpt lat="-27.4101084" lon="152.8209593">
<ele>379.040</ele>
<time>2015-12-31T09:21:56.622Z</time>
</trkpt>
<trkpt lat="-27.4098414" lon="152.8205830">
<ele>379.010</ele>
<time>2015-12-31T09:21:59.224Z</time>
</trkpt>
<trkpt lat="-27.4094523" lon="152.8202296">
<ele>378.434</ele>
<time>2015-12-31T09:22:02.262Z</time>
</trkpt>
<trkpt lat="-27.4092107" lon="152.8200101">
<ele>378.745</ele>
<time>2015-12-31T09:22:04.021Z</time>
</trkpt>
<trkpt lat="-27.4088661" lon="152.8196712">
<ele>380.674</ele>
<time>2015-12-31T09:22:06.600Z</time>
</trkpt>
<trkpt lat="-27.4085751" lon="152.8194121">
<ele>382.960</ele>
<time>2015-12-31T09:22:08.690Z</time>
</trkpt>
<trkpt lat="-27.4081873" lon="152.8190298">
<ele>384.577</ele>
<time>2015-12-31T09:22:11.530Z</time>
</trkpt>
<trkpt lat="-27.4078148" lon="152.8185856">
<ele>385.996</ele>
<time>2015-12-31T09:22:14.465Z</time>
</trkpt>
<trkpt lat="-27.4075168" lon="152.8182371">
<ele>387.667</ele>
<time>2015-12-31T09:22:16.794Z</time>
</trkpt>
<trkpt lat="-27.4073866" lon="152.8178629">
<ele>389.755</ele>
<time>2015-12-31T09:22:18.729Z</time>
</trkpt>
<trkpt lat="-27.4073841" lon="152.8176482">
<ele>391.966</ele>
<time>2015-12-31T09:22:19.763Z</time>
</trkpt>
<trkpt lat="-27.4072735" lon="152.8174412">
<ele>393.855</ele>
<time>2015-12-31T09:22:20.926Z</time>
</trkpt>
<trkpt lat="-27.4069270" lon="152.8171534">
<ele>395.513</ele>
<time>2015-12-31T09:22:23.259Z</time>
</trkpt>
<trkpt lat="-27.4065933" lon="152.8168322">
<ele>398.037</ele>
<time>2015-12-31T09:22:25.640Z</time>
</trkpt>
<trkpt lat="-27.4064258" lon="152.8166294">
<ele>402.312</ele>
<time>2015-12-31T09:22:26.973Z</time>
</trkpt>
<trkpt lat="-27.4060905" lon="152.8163769">
<ele>406.993</ele>
<time>2015-12-31T09:22:29.326Z</time>
</trkpt>
<trkpt lat="-27.4056785" lon="152.8161649">
<ele>410.126</ele>
<time>2015-12-31T09:22:32.308Z</time>
</trkpt>
<trkpt lat="-27.4052896" lon="152.8159738">
<ele>412.214</ele>
<time>2015-12-31T09:22:35.259Z</time>
</trkpt>
<trkpt lat="-27.4049790" lon="152.8157872">
<ele>414.344</ele>
<time>2015-12-31T09:22:37.562Z</time>
</trkpt>
<trkpt lat="-27.4045820" lon="152.8154134">
<ele>416.029</ele>
<time>2015-12-31T09:22:40.652Z</time>
</trkpt>
<trkpt lat="-27.4041586" lon="152.8152160">
<ele>416.785</ele>
<time>2015-12-31T09:22:43.427Z</time>
</trkpt>
<trkpt lat="-27.4038354" lon="152.8151341">
<ele>417.257</ele>
<time>2015-12-31T09:22:45.500Z</time>
</trkpt>
<trkpt lat="-27.4034686" lon="152.8150599">
<ele>418.409</ele>
<time>2015-12-31T09:22:47.755Z</time>
</trkpt>
<trkpt lat="-27.4028497" lon="152.8149254">
<ele>420.543</ele>
<time>2015-12-31T09:22:51.153Z</time>
</trkpt>
<trkpt lat="-27.4022564" lon="152.8148025">
<ele>422.782</ele>
<time>2015-12-31T09:22:54.176Z</time>
</trkpt>
<trkpt lat="-27.4019037" lon="152.8147666">
<ele>423.506</ele>
<time>2015-12-31T09:22:56.006Z</time>
</trkpt>
<trkpt lat="-27.4014270" lon="152.8147632">
<ele>422.111</ele>
<time>2015-12-31T09:22:58.717Z</time>
</trkpt>
<trkpt lat="-27.4012200" lon="152.8148153">
<ele>419.798</ele>
<time>2015-12-31T09:22:59.975Z</time>
</trkpt>
<trkpt lat="-27.4009666" lon="152.8150223">
<ele>418.023</ele>
<time>2015-12-31T09:23:02.162Z</time>
</trkpt>
<trkpt lat="-27.4008137" lon="152.8151888">
<ele>417.098</ele>
<time>2015-12-31T09:23:03.998Z</time>
</trkpt>
<trkpt lat="-27.4005197" lon="152.8151756">
<ele>417.116</ele>
<time>2015-12-31T09:23:06.671Z</time>
</trkpt>
<trkpt lat="-27.4003088" lon="152.8150610">
<ele>418.468</ele>
<time>2015-12-31T09:23:08.883Z</time>
</trkpt>
<trkpt lat="-27.4001492" lon="152.8146989">
<ele>420.955</ele>
<time>2015-12-31T09:23:12.238Z</time>
</trkpt>
<trkpt lat="-27.4000963" lon="152.8140710">
<ele>424.030</ele>
<time>2015-12-31T09:23:16.708Z</time>
</trkpt>
<trkpt lat="-27.3999814" lon="152.8134328">
<ele>427.714</ele>
<time>2015-12-31T09:23:20.161Z</time>
</trkpt>
<trkpt lat="-27.3998977" lon="152.8130266">
<ele>431.956</ele>
<time>2015-12-31T09:23:22.148Z</time>
</trkpt>
<trkpt lat="-27.3998497" lon="152.8125442">
<ele>435.690</ele>
<time>2015-12-31T09:23:24.616Z</time>
</trkpt>
<trkpt lat="-27.3998780" lon="152.8122014">
<ele>437.748</ele>
<time>2015-12-31T09:23:26.511Z</time>
</trkpt>
<trkpt lat="-27.3999595" lon="152.8116572">
<ele>438.128</ele>
<time>2015-12-31T09:23:29.734Z</time>
</trkpt>
<trkpt lat="-27.4000440" lon="152.8113334">
<ele>438.689</ele>
<time>2015-12-31T09:23:31.628Z</time>
</trkpt>
<trkpt lat="-27.4002065" lon="152.8109034">
<ele>440.698</ele>
<time>2015-12-31T09:23:34.348Z</time>
</trkpt>
<trkpt lat="-27.4002682" lon="152.8104835">
<ele>442.964</ele>
<time>2015-12-31T09:23:37.043Z</time>
</trkpt>
<trkpt lat="-27.4002318" lon="152.8100160">
<ele>444.359</ele>
<time>2015-12-31T09:23:40.150Z</time>
</trkpt>
<trkpt lat="-27.4002293" lon="152.8095785">
<ele>445.972</ele>
<time>2015-12-31T09:23:43.039Z</time>
</trkpt>
<trkpt lat="-27.4001035" lon="152.8092368">
<ele>448.451</ele>
<time>2015-12-31T09:23:45.626Z</time>
</trkpt>
<trkpt lat="-27.3999208" lon="152.8091252">
<ele>450.781</ele>
<time>2015-12-31T09:23:47.465Z</time>
</trkpt>
<trkpt lat="-27.3996695" lon="152.8089251">
<ele>452.240</ele>
<time>2015-12-31T09:23:50.391Z</time>
</trkpt>
<trkpt lat="-27.3995575" lon="152.8084977">
<ele>453.456</ele>
<time>2015-12-31T09:23:54.259Z</time>
</trkpt>
<trkpt lat="-27.3995547" lon="152.8082572">
<ele>455.499</ele>
<time>2015-12-31T09:23:56.243Z</time>
</trkpt>
<trkpt lat="-27.3994527" lon="152.8079891">
<ele>458.400</ele>
<time>2015-12-31T09:23:58.430Z</time>
</trkpt>
<trkpt lat="-27.3992262" lon="152.8074176">
<ele>461.041</ele>
<time>2015-12-31T09:24:02.333Z</time>
</trkpt>
<trkpt lat="-27.3990795" lon="152.8070775">
<ele>463.588</ele>
<time>2015-12-31T09:24:04.355Z</time>
</trkpt>
<trkpt lat="-27.3989455" lon="152.8065794">
<ele>466.846</ele>
<time>2015-12-31T09:24:07.193Z</time>
</trkpt>
<trkpt lat="-27.3988982" lon="152.8063238">
<ele>469.892</ele>
<time>2015-12-31T09:24:08.738Z</time>
</trkpt>
<trkpt lat="-27.3989308" lon="152.8060334">
<ele>471.580</ele>
<time>2015-12-31T09:24:10.674Z</time>
</trkpt>
<trkpt lat="-27.3990478" lon="152.8057251">
<ele>472.284</ele>
<time>2015-12-31T09:24:12.995Z</time>
</trkpt>
<trkpt lat="-27.3992957" lon="152.8054864">
<ele>473.077</ele>
<time>2015-12-31T09:24:15.579Z</time>
</trkpt>
<trkpt lat="-27.3995626" lon="152.8053975">
<ele>474.318</ele>
<time>2015-12-31T09:24:17.981Z</time>
</trkpt>
<trkpt lat="-27.3998219" lon="152.8055020">
<ele>475.527</ele>
<time>2015-12-31T09:24:20.594Z</time>
</trkpt>
<trkpt lat="-27.4001018" lon="152.8055965">
<ele>476.350</ele>
<time>2015-12-31T09:24:23.281Z</time>
</trkpt>
<trkpt lat="-27.4003110" lon="152.8056233">
<ele>476.456</ele>
<time>2015-12-31T09:24:25.222Z</time>
</trkpt>
<trkpt lat="-27.4005410" lon="152.8054045">
<ele>475.736</ele>
<time>2015-12-31T09:24:28.374Z</time>
</trkpt>
<trkpt lat="-27.4006024" lon="152.8049800">
<ele>475.022</ele>
<time>2015-12-31T09:24:31.996Z</time>
</trkpt>
<trkpt lat="-27.4006244" lon="152.8044274">
<ele>476.087</ele>
<time>2015-12-31T09:24:35.609Z</time>
</trkpt>
<trkpt lat="-27.4005812" lon="152.8038782">
<ele>480.425</ele>
<time>2015-12-31T09:24:38.434Z</time>
</trkpt>
<trkpt lat="-27.4005578" lon="152.8032309">
<ele>487.846</ele>
<time>2015-12-31T09:24:41.382Z</time>
</trkpt>
<trkpt lat="-27.4005261" lon="152.8026105">
<ele>495.904</ele>
<time>2015-12-31T09:24:44.234Z</time>
</trkpt>
<trkpt lat="-27.4005086" lon="152.8020714">
<ele>501.655</ele>
<time>2015-12-31T09:24:47.016Z</time>
</trkpt>
<trkpt lat="-27.4005061" lon="152.8017666">
<ele>504.095</ele>
<time>2015-12-31T09:24:48.885Z</time>
</trkpt>
<trkpt lat="-27.4004992" lon="152.8014763">
<ele>503.925</ele>
<time>2015-12-31T09:24:50.763Z</time>
</trkpt>
<trkpt lat="-27.4004646" lon="152.8009896">
<ele>501.999</ele>
<time>2015-12-31T09:24:53.842Z</time>
</trkpt>
<trkpt lat="-27.4003995" lon="152.8005140">
<ele>499.218</ele>
<time>2015-12-31T09:24:56.896Z</time>
</trkpt>
<trkpt lat="-27.4003512" lon="152.8001899">
<ele>495.891</ele>
<time>2015-12-31T09:24:59.326Z</time>
</trkpt>
<trkpt lat="-27.4004532" lon="152.7998398">
<ele>491.456</ele>
<time>2015-12-31T09:25:02.422Z</time>
</trkpt>
<trkpt lat="-27.4006840" lon="152.7995680">
<ele>486.144</ele>
<time>2015-12-31T09:25:05.599Z</time>
</trkpt>
<trkpt lat="-27.4009458" lon="152.7994724">
<ele>481.428</ele>
<time>2015-12-31T09:25:08.021Z</time>
</trkpt>
<trkpt lat="-27.4012779" lon="152.7993474">
<ele>478.261</ele>
<time>2015-12-31T09:25:10.923Z</time>
</trkpt>
<trkpt lat="-27.4014423" lon="152.7991180">
<ele>475.667</ele>
<time>2015-12-31T09:25:13.072Z</time>
</trkpt>
<trkpt lat="-27.4015997" lon="152.7985913">
<ele>472.446</ele>
<time>2015-12-31T09:25:16.496Z</time>
</trkpt>
<trkpt lat="-27.4015940" lon="152.7982112">
<ele>469.222</ele>
<time>2015-12-31T09:25:18.499Z</time>
</trkpt>
<trkpt lat="-27.4015755" lon="152.7978334">
<ele>467.486</ele>
<time>2015-12-31T09:25:20.446Z</time>
</trkpt>
<trkpt lat="-27.4013923" lon="152.7973299">
<ele>467.528</ele>
<time>2015-12-31T09:25:23.358Z</time>
</trkpt>
<trkpt lat="-27.4011960" lon="152.7967845">
<ele>468.903</ele>
<time>2015-12-31T09:25:26.454Z</time>
</trkpt>
<trkpt lat="-27.4010368" lon="152.7964007">
<ele>471.487</ele>
<time>2015-12-31T09:25:28.537Z</time>
</trkpt>
<trkpt lat="-27.4008223" lon="152.7958290">
<ele>474.603</ele>
<time>2015-12-31T09:25:31.555Z</time>
</trkpt>
<trkpt lat="-27.4006973" lon="152.7954680">
<ele>476.805</ele>
<time>2015-12-31T09:25:33.535Z</time>
</trkpt>
<trkpt lat="-27.4005538" lon="152.7950295">
<ele>477.514</ele>
<time>2015-12-31T09:25:36.175Z</time>
</trkpt>
<trkpt lat="-27.4005201" lon="152.7947212">
<ele>476.914</ele>
<time>2015-12-31T09:25:38.217Z</time>
</trkpt>
<trkpt lat="-27.4005199" lon="152.7945133">
<ele>475.103</ele>
<time>2015-12-31T09:25:39.750Z</time>
</trkpt>
<trkpt lat="-27.4006579" lon="152.7943876">
<ele>472.743</ele>
<time>2015-12-31T09:25:41.495Z</time>
</trkpt>
<trkpt lat="-27.4008971" lon="152.7942675">
<ele>470.923</ele>
<time>2015-12-31T09:25:44.417Z</time>
</trkpt>
<trkpt lat="-27.4011469" lon="152.7939829">
<ele>470.323</ele>
<time>2015-12-31T09:25:48.104Z</time>
</trkpt>
<trkpt lat="-27.4014106" lon="152.7935479">
<ele>470.792</ele>
<time>2015-12-31T09:25:51.835Z</time>
</trkpt>
<trkpt lat="-27.4015716" lon="152.7933166">
<ele>471.513</ele>
<time>2015-12-31T09:25:53.796Z</time>
</trkpt>
<trkpt lat="-27.4017212" lon="152.7929302">
<ele>471.446</ele>
<time>2015-12-31T09:25:56.821Z</time>
</trkpt>
<trkpt lat="-27.4017843" lon="152.7927018">
<ele>470.027</ele>
<time>2015-12-31T09:25:58.782Z</time>
</trkpt>
<trkpt lat="-27.4016462" lon="152.7924669">
<ele>467.669</ele>
<time>2015-12-31T09:26:01.344Z</time>
</trkpt>
<trkpt lat="-27.4014134" lon="152.7923651">
<ele>465.291</ele>
<time>2015-12-31T09:26:03.904Z</time>
</trkpt>
<trkpt lat="-27.4010948" lon="152.7923383">
<ele>463.500</ele>
<time>2015-12-31T09:26:06.949Z</time>
</trkpt>
<trkpt lat="-27.4008997" lon="152.7923109">
<ele>462.442</ele>
<time>2015-12-31T09:26:08.910Z</time>
</trkpt>
<trkpt lat="-27.4007390" lon="152.7922415">
<ele>461.429</ele>
<time>2015-12-31T09:26:10.715Z</time>
</trkpt>
<trkpt lat="-27.4005630" lon="152.7921083">
<ele>459.818</ele>
<time>2015-12-31T09:26:12.762Z</time>
</trkpt>
<trkpt lat="-27.4002980" lon="152.7916843">
<ele>458.075</ele>
<time>2015-12-31T09:26:16.469Z</time>
</trkpt>
<trkpt lat="-27.3999420" lon="152.7914536">
<ele>456.952</ele>
<time>2015-12-31T09:26:19.542Z</time>
</trkpt>
<trkpt lat="-27.3996830" lon="152.7913764">
<ele>456.155</ele>
<time>2015-12-31T09:26:21.397Z</time>
</trkpt>
<trkpt lat="-27.3991457" lon="152.7912594">
<ele>455.007</ele>
<time>2015-12-31T09:26:24.966Z</time>
</trkpt>
<trkpt lat="-27.3989037" lon="152.7911718">
<ele>453.410</ele>
<time>2015-12-31T09:26:26.727Z</time>
</trkpt>
<trkpt lat="-27.3986091" lon="152.7908561">
<ele>450.937</ele>
<time>2015-12-31T09:26:29.571Z</time>
</trkpt>
<trkpt lat="-27.3984170" lon="152.7905721">
<ele>447.542</ele>
<time>2015-12-31T09:26:31.700Z</time>
</trkpt>
<trkpt lat="-27.3982926" lon="152.7902556">
<ele>444.912</ele>
<time>2015-12-31T09:26:33.862Z</time>
</trkpt>
<trkpt lat="-27.3981285" lon="152.7898649">
<ele>444.167</ele>
<time>2015-12-31T09:26:36.903Z</time>
</trkpt>
<trkpt lat="-27.3981263" lon="152.7896337">
<ele>444.054</ele>
<time>2015-12-31T09:26:38.896Z</time>
</trkpt>
<trkpt lat="-27.3982035" lon="152.7893082">
<ele>443.113</ele>
<time>2015-12-31T09:26:41.909Z</time>
</trkpt>
<trkpt lat="-27.3982955" lon="152.7891277">
<ele>441.309</ele>
<time>2015-12-31T09:26:43.678Z</time>
</trkpt>
<trkpt lat="-27.3985437" lon="152.7889295">
<ele>439.525</ele>
<time>2015-12-31T09:26:46.525Z</time>
</trkpt>
<trkpt lat="-27.3987303" lon="152.7887971">
<ele>438.402</ele>
<time>2015-12-31T09:26:48.730Z</time>
</trkpt>
<trkpt lat="-27.3988663" lon="152.7886828">
<ele>437.779</ele>
<time>2015-12-31T09:26:51.426Z</time>
</trkpt>
<trkpt lat="-27.3989473" lon="152.7886311">
<ele>436.751</ele>
<time>2015-12-31T09:26:53.000Z</time>
</trkpt>
<trkpt lat="-27.3989473" lon="152.7886311">
<ele>435.116</ele>
<time>2015-12-31T09:26:58.000Z</time>
</trkpt>
<trkpt lat="-27.3989473" lon="152.7886311">
<ele>433.908</ele>
<time>2015-12-31T09:27:48.988Z</time>
</trkpt>
<trkpt lat="-27.3989500" lon="152.7884133">
<ele>433.774</ele>
<time>2015-12-31T09:27:55.143Z</time>
</trkpt>
<trkpt lat="-27.3990807" lon="152.7880039">
<ele>434.089</ele>
<time>2015-12-31T09:27:58.773Z</time>
</trkpt>
<trkpt lat="-27.3991266" lon="152.7876912">
<ele>434.182</ele>
<time>2015-12-31T09:28:00.786Z</time>
</trkpt>
<trkpt lat="-27.3991502" lon="152.7873814">
<ele>434.064</ele>
<time>2015-12-31T09:28:02.672Z</time>
</trkpt>
<trkpt lat="-27.3990956" lon="152.7868464">
<ele>433.988</ele>
<time>2015-12-31T09:28:05.764Z</time>
</trkpt>
<trkpt lat="-27.3990839" lon="152.7864025">
<ele>434.406</ele>
<time>2015-12-31T09:28:08.034Z</time>
</trkpt>
<trkpt lat="-27.3990776" lon="152.7858092">
<ele>435.673</ele>
<time>2015-12-31T09:28:11.122Z</time>
</trkpt>
<trkpt lat="-27.3989332" lon="152.7853323">
<ele>437.258</ele>
<time>2015-12-31T09:28:13.938Z</time>
</trkpt>
<trkpt lat="-27.3988091" lon="152.7850267">
<ele>438.294</ele>
<time>2015-12-31T09:28:15.978Z</time>
</trkpt>
<trkpt lat="-27.3987790" lon="152.7845531">
<ele>438.831</ele>
<time>2015-12-31T09:28:19.138Z</time>
</trkpt>
<trkpt lat="-27.3987384" lon="152.7843088">
<ele>439.327</ele>
<time>2015-12-31T09:28:21.031Z</time>
</trkpt>
<trkpt lat="-27.3985536" lon="152.7839757">
<ele>439.741</ele>
<time>2015-12-31T09:28:24.044Z</time>
</trkpt>
<trkpt lat="-27.3983607" lon="152.7838192">
<ele>439.805</ele>
<time>2015-12-31T09:28:25.908Z</time>
</trkpt>
<trkpt lat="-27.3979841" lon="152.7837324">
<ele>439.534</ele>
<time>2015-12-31T09:28:28.645Z</time>
</trkpt>
<trkpt lat="-27.3976767" lon="152.7837152">
<ele>439.153</ele>
<time>2015-12-31T09:28:30.643Z</time>
</trkpt>
<trkpt lat="-27.3973737" lon="152.7836829">
<ele>439.021</ele>
<time>2015-12-31T09:28:32.604Z</time>
</trkpt>
<trkpt lat="-27.3969411" lon="152.7835206">
<ele>439.277</ele>
<time>2015-12-31T09:28:35.521Z</time>
</trkpt>
<trkpt lat="-27.3966708" lon="152.7833539">
<ele>439.647</ele>
<time>2015-12-31T09:28:37.453Z</time>
</trkpt>
<trkpt lat="-27.3963194" lon="152.7830136">
<ele>439.692</ele>
<time>2015-12-31T09:28:40.331Z</time>
</trkpt>
<trkpt lat="-27.3960919" lon="152.7827425">
<ele>439.336</ele>
<time>2015-12-31T09:28:42.523Z</time>
</trkpt>
<trkpt lat="-27.3958038" lon="152.7824538">
<ele>439.066</ele>
<time>2015-12-31T09:28:45.325Z</time>
</trkpt>
<trkpt lat="-27.3955754" lon="152.7823568">
<ele>439.258</ele>
<time>2015-12-31T09:28:47.159Z</time>
</trkpt>
<trkpt lat="-27.3951916" lon="152.7822568">
<ele>439.752</ele>
<time>2015-12-31T09:28:49.969Z</time>
</trkpt>
<trkpt lat="-27.3947763" lon="152.7820151">
<ele>440.315</ele>
<time>2015-12-31T09:28:53.217Z</time>
</trkpt>
<trkpt lat="-27.3946274" lon="152.7818006">
<ele>440.785</ele>
<time>2015-12-31T09:28:55.195Z</time>
</trkpt>
<trkpt lat="-27.3946146" lon="152.7814760">
<ele>440.721</ele>
<time>2015-12-31T09:28:57.819Z</time>
</trkpt>
<trkpt lat="-27.3947445" lon="152.7812514">
<ele>439.979</ele>
<time>2015-12-31T09:29:00.137Z</time>
</trkpt>
<trkpt lat="-27.3948680" lon="152.7811252">
<ele>439.557</ele>
<time>2015-12-31T09:29:01.917Z</time>
</trkpt>
<trkpt lat="-27.3949869" lon="152.7810334">
<ele>440.250</ele>
<time>2015-12-31T09:29:03.624Z</time>
</trkpt>
<trkpt lat="-27.3949368" lon="152.7807792">
<ele>441.423</ele>
<time>2015-12-31T09:29:06.405Z</time>
</trkpt>
<trkpt lat="-27.3947452" lon="152.7806057">
<ele>442.586</ele>
<time>2015-12-31T09:29:08.745Z</time>
</trkpt>
<trkpt lat="-27.3944304" lon="152.7804263">
<ele>444.486</ele>
<time>2015-12-31T09:29:11.675Z</time>
</trkpt>
<trkpt lat="-27.3941824" lon="152.7804237">
<ele>447.424</ele>
<time>2015-12-31T09:29:13.575Z</time>
</trkpt>
<trkpt lat="-27.3937317" lon="152.7804115">
<ele>450.700</ele>
<time>2015-12-31T09:29:16.675Z</time>
</trkpt>
<trkpt lat="-27.3934370" lon="152.7803367">
<ele>454.415</ele>
<time>2015-12-31T09:29:18.733Z</time>
</trkpt>
<trkpt lat="-27.3932390" lon="152.7802151">
<ele>458.564</ele>
<time>2015-12-31T09:29:20.462Z</time>
</trkpt>
<trkpt lat="-27.3931078" lon="152.7798715">
<ele>461.726</ele>
<time>2015-12-31T09:29:23.241Z</time>
</trkpt>
<trkpt lat="-27.3930850" lon="152.7795672">
<ele>463.595</ele>
<time>2015-12-31T09:29:25.427Z</time>
</trkpt>
<trkpt lat="-27.3930825" lon="152.7792414">
<ele>465.077</ele>
<time>2015-12-31T09:29:27.928Z</time>
</trkpt>
<trkpt lat="-27.3930806" lon="152.7790900">
<ele>466.128</ele>
<time>2015-12-31T09:29:29.422Z</time>
</trkpt>
<trkpt lat="-27.3928833" lon="152.7789955">
<ele>466.399</ele>
<time>2015-12-31T09:29:32.188Z</time>
</trkpt>
<trkpt lat="-27.3927088" lon="152.7790675">
<ele>466.135</ele>
<time>2015-12-31T09:29:34.574Z</time>
</trkpt>
<trkpt lat="-27.3924415" lon="152.7792160">
<ele>465.770</ele>
<time>2015-12-31T09:29:37.787Z</time>
</trkpt>
<trkpt lat="-27.3922721" lon="152.7794224">
<ele>465.439</ele>
<time>2015-12-31T09:29:40.401Z</time>
</trkpt>
<trkpt lat="-27.3922350" lon="152.7798967">
<ele>465.050</ele>
<time>2015-12-31T09:29:44.190Z</time>
</trkpt>
<trkpt lat="-27.3921048" lon="152.7802672">
<ele>464.734</ele>
<time>2015-12-31T09:29:46.450Z</time>
</trkpt>
<trkpt lat="-27.3920013" lon="152.7806404">
<ele>464.787</ele>
<time>2015-12-31T09:29:48.459Z</time>
</trkpt>
<trkpt lat="-27.3919761" lon="152.7811724">
<ele>465.219</ele>
<time>2015-12-31T09:29:51.365Z</time>
</trkpt>
<trkpt lat="-27.3917912" lon="152.7815193">
<ele>464.853</ele>
<time>2015-12-31T09:29:53.958Z</time>
</trkpt>
<trkpt lat="-27.3917142" lon="152.7818255">
<ele>462.189</ele>
<time>2015-12-31T09:29:56.063Z</time>
</trkpt>
<trkpt lat="-27.3915696" lon="152.7822985">
<ele>458.085</ele>
<time>2015-12-31T09:29:59.189Z</time>
</trkpt>
<trkpt lat="-27.3914733" lon="152.7825341">
<ele>454.858</ele>
<time>2015-12-31T09:30:00.878Z</time>
</trkpt>
<trkpt lat="-27.3913671" lon="152.7826854">
<ele>452.892</ele>
<time>2015-12-31T09:30:02.339Z</time>
</trkpt>
<trkpt lat="-27.3912153" lon="152.7827910">
<ele>450.847</ele>
<time>2015-12-31T09:30:04.108Z</time>
</trkpt>
<trkpt lat="-27.3909906" lon="152.7831830">
<ele>448.049</ele>
<time>2015-12-31T09:30:08.359Z</time>
</trkpt>
<trkpt lat="-27.3909851" lon="152.7834107">
<ele>445.225</ele>
<time>2015-12-31T09:30:10.197Z</time>
</trkpt>
<trkpt lat="-27.3911135" lon="152.7836059">
<ele>443.076</ele>
<time>2015-12-31T09:30:12.175Z</time>
</trkpt>
<trkpt lat="-27.3913632" lon="152.7838037">
<ele>441.570</ele>
<time>2015-12-31T09:30:14.691Z</time>
</trkpt>
<trkpt lat="-27.3915286" lon="152.7840773">
<ele>440.664</ele>
<time>2015-12-31T09:30:16.882Z</time>
</trkpt>
<trkpt lat="-27.3915899" lon="152.7843307">
<ele>440.163</ele>
<time>2015-12-31T09:30:18.737Z</time>
</trkpt>
<trkpt lat="-27.3916638" lon="152.7844955">
<ele>439.155</ele>
<time>2015-12-31T09:30:20.331Z</time>
</trkpt>
<trkpt lat="-27.3916141" lon="152.7846124">
<ele>436.596</ele>
<time>2015-12-31T09:30:22.068Z</time>
</trkpt>
<trkpt lat="-27.3915424" lon="152.7847123">
<ele>432.626</ele>
<time>2015-12-31T09:30:23.788Z</time>
</trkpt>
<trkpt lat="-27.3914132" lon="152.7847599">
<ele>428.929</ele>
<time>2015-12-31T09:30:26.660Z</time>
</trkpt>
<trkpt lat="-27.3912311" lon="152.7847641">
<ele>426.690</ele>
<time>2015-12-31T09:30:29.861Z</time>
</trkpt>
<trkpt lat="-27.3911158" lon="152.7847817">
<ele>425.558</ele>
<time>2015-12-31T09:30:31.770Z</time>
</trkpt>
<trkpt lat="-27.3909589" lon="152.7848947">
<ele>424.879</ele>
<time>2015-12-31T09:30:34.722Z</time>
</trkpt>
<trkpt lat="-27.3909020" lon="152.7849775">
<ele>424.100</ele>
<time>2015-12-31T09:30:36.182Z</time>
</trkpt>
<trkpt lat="-27.3907774" lon="152.7851547">
<ele>422.903</ele>
<time>2015-12-31T09:30:39.509Z</time>
</trkpt>
<trkpt lat="-27.3906284" lon="152.7852251">
<ele>421.595</ele>
<time>2015-12-31T09:30:42.046Z</time>
</trkpt>
<trkpt lat="-27.3904642" lon="152.7851998">
<ele>420.579</ele>
<time>2015-12-31T09:30:44.181Z</time>
</trkpt>
<trkpt lat="-27.3903316" lon="152.7850605">
<ele>419.751</ele>
<time>2015-12-31T09:30:46.409Z</time>
</trkpt>
<trkpt lat="-27.3902598" lon="152.7848065">
<ele>418.774</ele>
<time>2015-12-31T09:30:49.280Z</time>
</trkpt>
<trkpt lat="-27.3902010" lon="152.7845903">
<ele>417.540</ele>
<time>2015-12-31T09:30:51.645Z</time>
</trkpt>
<trkpt lat="-27.3900516" lon="152.7845528">
<ele>415.943</ele>
<time>2015-12-31T09:30:53.523Z</time>
</trkpt>
<trkpt lat="-27.3898005" lon="152.7846444">
<ele>414.106</ele>
<time>2015-12-31T09:30:56.749Z</time>
</trkpt>
<trkpt lat="-27.3893894" lon="152.7847330">
<ele>412.729</ele>
<time>2015-12-31T09:31:00.119Z</time>
</trkpt>
<trkpt lat="-27.3889869" lon="152.7849268">
<ele>412.219</ele>
<time>2015-12-31T09:31:03.181Z</time>
</trkpt>
<trkpt lat="-27.3887323" lon="152.7850364">
<ele>411.775</ele>
<time>2015-12-31T09:31:05.145Z</time>
</trkpt>
<trkpt lat="-27.3885444" lon="152.7850742">
<ele>409.957</ele>
<time>2015-12-31T09:31:06.681Z</time>
</trkpt>
<trkpt lat="-27.3884091" lon="152.7850995">
<ele>406.301</ele>
<time>2015-12-31T09:31:07.947Z</time>
</trkpt>
<trkpt lat="-27.3882553" lon="152.7848095">
<ele>402.188</ele>
<time>2015-12-31T09:31:11.246Z</time>
</trkpt>
<trkpt lat="-27.3881238" lon="152.7848040">
<ele>399.118</ele>
<time>2015-12-31T09:31:12.883Z</time>
</trkpt>
<trkpt lat="-27.3879274" lon="152.7848630">
<ele>397.372</ele>
<time>2015-12-31T09:31:15.472Z</time>
</trkpt>
<trkpt lat="-27.3877565" lon="152.7847846">
<ele>396.460</ele>
<time>2015-12-31T09:31:17.675Z</time>
</trkpt>
<trkpt lat="-27.3876291" lon="152.7845322">
<ele>395.513</ele>
<time>2015-12-31T09:31:20.789Z</time>
</trkpt>
<trkpt lat="-27.3875574" lon="152.7843958">
<ele>393.816</ele>
<time>2015-12-31T09:31:22.508Z</time>
</trkpt>
<trkpt lat="-27.3874139" lon="152.7843476">
<ele>391.561</ele>
<time>2015-12-31T09:31:24.409Z</time>
</trkpt>
<trkpt lat="-27.3872187" lon="152.7844978">
<ele>389.426</ele>
<time>2015-12-31T09:31:27.463Z</time>
</trkpt>
<trkpt lat="-27.3871129" lon="152.7847525">
<ele>387.923</ele>
<time>2015-12-31T09:31:30.139Z</time>
</trkpt>
<trkpt lat="-27.3868773" lon="152.7852075">
<ele>387.234</ele>
<time>2015-12-31T09:31:33.945Z</time>
</trkpt>
<trkpt lat="-27.3866241" lon="152.7853544">
<ele>386.611</ele>
<time>2015-12-31T09:31:36.310Z</time>
</trkpt>
<trkpt lat="-27.3863677" lon="152.7853691">
<ele>385.305</ele>
<time>2015-12-31T09:31:38.627Z</time>
</trkpt>
<trkpt lat="-27.3861621" lon="152.7853219">
<ele>383.685</ele>
<time>2015-12-31T09:31:40.517Z</time>
</trkpt>
<trkpt lat="-27.3858524" lon="152.7850689">
<ele>382.426</ele>
<time>2015-12-31T09:31:43.884Z</time>
</trkpt>
<trkpt lat="-27.3858358" lon="152.7846429">
<ele>382.336</ele>
<time>2015-12-31T09:31:46.818Z</time>
</trkpt>
<trkpt lat="-27.3858046" lon="152.7841797">
<ele>384.554</ele>
<time>2015-12-31T09:31:49.802Z</time>
</trkpt>
<trkpt lat="-27.3858533" lon="152.7837706">
<ele>388.782</ele>
<time>2015-12-31T09:31:52.540Z</time>
</trkpt>
<trkpt lat="-27.3859474" lon="152.7835376">
<ele>393.237</ele>
<time>2015-12-31T09:31:54.404Z</time>
</trkpt>
<trkpt lat="-27.3860227" lon="152.7833121">
<ele>396.892</ele>
<time>2015-12-31T09:31:56.255Z</time>
</trkpt>
<trkpt lat="-27.3859870" lon="152.7829288">
<ele>399.800</ele>
<time>2015-12-31T09:31:59.306Z</time>
</trkpt>
<trkpt lat="-27.3859795" lon="152.7826817">
<ele>402.313</ele>
<time>2015-12-31T09:32:01.331Z</time>
</trkpt>
<trkpt lat="-27.3860241" lon="152.7823410">
<ele>404.708</ele>
<time>2015-12-31T09:32:04.246Z</time>
</trkpt>
<trkpt lat="-27.3859379" lon="152.7821530">
<ele>406.987</ele>
<time>2015-12-31T09:32:06.012Z</time>
</trkpt>
<trkpt lat="-27.3857251" lon="152.7819701">
<ele>409.327</ele>
<time>2015-12-31T09:32:08.347Z</time>
</trkpt>
<trkpt lat="-27.3854374" lon="152.7816658">
<ele>412.339</ele>
<time>2015-12-31T09:32:11.345Z</time>
</trkpt>
<trkpt lat="-27.3853797" lon="152.7813558">
<ele>416.515</ele>
<time>2015-12-31T09:32:13.383Z</time>
</trkpt>
<trkpt lat="-27.3852392" lon="152.7808666">
<ele>421.701</ele>
<time>2015-12-31T09:32:16.643Z</time>
</trkpt>
<trkpt lat="-27.3851065" lon="152.7803941">
<ele>426.477</ele>
<time>2015-12-31T09:32:19.661Z</time>
</trkpt>
<trkpt lat="-27.3852694" lon="152.7798190">
<ele>429.890</ele>
<time>2015-12-31T09:32:23.030Z</time>
</trkpt>
<trkpt lat="-27.3854598" lon="152.7795056">
<ele>433.132</ele>
<time>2015-12-31T09:32:24.960Z</time>
</trkpt>
<trkpt lat="-27.3856280" lon="152.7791871">
<ele>437.247</ele>
<time>2015-12-31T09:32:26.983Z</time>
</trkpt>
<trkpt lat="-27.3858295" lon="152.7787275">
<ele>441.079</ele>
<time>2015-12-31T09:32:30.182Z</time>
</trkpt>
<trkpt lat="-27.3858432" lon="152.7784718">
<ele>443.239</ele>
<time>2015-12-31T09:32:32.171Z</time>
</trkpt>
<trkpt lat="-27.3857423" lon="152.7781315">
<ele>443.824</ele>
<time>2015-12-31T09:32:34.971Z</time>
</trkpt>
<trkpt lat="-27.3855206" lon="152.7779848">
<ele>443.989</ele>
<time>2015-12-31T09:32:36.973Z</time>
</trkpt>
<trkpt lat="-27.3852646" lon="152.7779220">
<ele>444.888</ele>
<time>2015-12-31T09:32:38.939Z</time>
</trkpt>
<trkpt lat="-27.3848945" lon="152.7779628">
<ele>446.503</ele>
<time>2015-12-31T09:32:41.579Z</time>
</trkpt>
<trkpt lat="-27.3844677" lon="152.7782970">
<ele>447.973</ele>
<time>2015-12-31T09:32:44.934Z</time>
</trkpt>
<trkpt lat="-27.3841186" lon="152.7786789">
<ele>448.895</ele>
<time>2015-12-31T09:32:48.096Z</time>
</trkpt>
<trkpt lat="-27.3838924" lon="152.7788258">
<ele>449.318</ele>
<time>2015-12-31T09:32:50.131Z</time>
</trkpt>
<trkpt lat="-27.3835528" lon="152.7788645">
<ele>449.379</ele>
<time>2015-12-31T09:32:52.848Z</time>
</trkpt>
<trkpt lat="-27.3832951" lon="152.7787335">
<ele>449.472</ele>
<time>2015-12-31T09:32:54.699Z</time>
</trkpt>
<trkpt lat="-27.3828816" lon="152.7784080">
<ele>450.149</ele>
<time>2015-12-31T09:32:57.733Z</time>
</trkpt>
<trkpt lat="-27.3826054" lon="152.7782051">
<ele>452.312</ele>
<time>2015-12-31T09:32:59.661Z</time>
</trkpt>
<trkpt lat="-27.3823760" lon="152.7779473">
<ele>455.862</ele>
<time>2015-12-31T09:33:01.627Z</time>
</trkpt>
<trkpt lat="-27.3821734" lon="152.7776817">
<ele>459.129</ele>
<time>2015-12-31T09:33:03.543Z</time>
</trkpt>
<trkpt lat="-27.3819382" lon="152.7771874">
<ele>460.913</ele>
<time>2015-12-31T09:33:06.688Z</time>
</trkpt>
<trkpt lat="-27.3817846" lon="152.7767708">
<ele>461.563</ele>
<time>2015-12-31T09:33:09.311Z</time>
</trkpt>
<trkpt lat="-27.3814818" lon="152.7764145">
<ele>462.126</ele>
<time>2015-12-31T09:33:12.215Z</time>
</trkpt>
<trkpt lat="-27.3812044" lon="152.7762355">
<ele>463.918</ele>
<time>2015-12-31T09:33:14.314Z</time>
</trkpt>
<trkpt lat="-27.3808146" lon="152.7760064">
<ele>467.298</ele>
<time>2015-12-31T09:33:17.258Z</time>
</trkpt>
<trkpt lat="-27.3803928" lon="152.7758769">
<ele>471.404</ele>
<time>2015-12-31T09:33:20.278Z</time>
</trkpt>
<trkpt lat="-27.3801181" lon="152.7757879">
<ele>475.244</ele>
<time>2015-12-31T09:33:22.244Z</time>
</trkpt>
<trkpt lat="-27.3796863" lon="152.7756842">
<ele>478.467</ele>
<time>2015-12-31T09:33:25.257Z</time>
</trkpt>
<trkpt lat="-27.3794092" lon="152.7756087">
<ele>481.081</ele>
<time>2015-12-31T09:33:27.196Z</time>
</trkpt>
<trkpt lat="-27.3791628" lon="152.7754608">
<ele>483.127</ele>
<time>2015-12-31T09:33:29.057Z</time>
</trkpt>
<trkpt lat="-27.3788123" lon="152.7751312">
<ele>484.667</ele>
<time>2015-12-31T09:33:32.031Z</time>
</trkpt>
<trkpt lat="-27.3786204" lon="152.7746531">
<ele>486.354</ele>
<time>2015-12-31T09:33:34.998Z</time>
</trkpt>
<trkpt lat="-27.3784684" lon="152.7741310">
<ele>488.961</ele>
<time>2015-12-31T09:33:38.110Z</time>
</trkpt>
<trkpt lat="-27.3785371" lon="152.7738329">
<ele>492.599</ele>
<time>2015-12-31T09:33:39.992Z</time>
</trkpt>
<trkpt lat="-27.3787196" lon="152.7733811">
<ele>496.385</ele>
<time>2015-12-31T09:33:43.261Z</time>
</trkpt>
<trkpt lat="-27.3788952" lon="152.7732052">
<ele>499.812</ele>
<time>2015-12-31T09:33:45.175Z</time>
</trkpt>
<trkpt lat="-27.3789803" lon="152.7729678">
<ele>503.230</ele>
<time>2015-12-31T09:33:47.104Z</time>
</trkpt>
<trkpt lat="-27.3789487" lon="152.7726612">
<ele>506.371</ele>
<time>2015-12-31T09:33:49.297Z</time>
</trkpt>
<trkpt lat="-27.3789274" lon="152.7722176">
<ele>508.837</ele>
<time>2015-12-31T09:33:52.197Z</time>
</trkpt>
<trkpt lat="-27.3789164" lon="152.7718190">
<ele>510.905</ele>
<time>2015-12-31T09:33:54.561Z</time>
</trkpt>
<trkpt lat="-27.3789490" lon="152.7714957">
<ele>512.177</ele>
<time>2015-12-31T09:33:56.397Z</time>
</trkpt>
<trkpt lat="-27.3790471" lon="152.7709952">
<ele>512.061</ele>
<time>2015-12-31T09:33:59.250Z</time>
</trkpt>
<trkpt lat="-27.3791271" lon="152.7704521">
<ele>510.612</ele>
<time>2015-12-31T09:34:02.303Z</time>
</trkpt>
<trkpt lat="-27.3789842" lon="152.7699375">
<ele>508.086</ele>
<time>2015-12-31T09:34:05.282Z</time>
</trkpt>
<trkpt lat="-27.3787912" lon="152.7696696">
<ele>505.360</ele>
<time>2015-12-31T09:34:07.128Z</time>
</trkpt>
<trkpt lat="-27.3783867" lon="152.7693106">
<ele>503.622</ele>
<time>2015-12-31T09:34:10.175Z</time>
</trkpt>
<trkpt lat="-27.3781189" lon="152.7690912">
<ele>503.779</ele>
<time>2015-12-31T09:34:12.111Z</time>
</trkpt>
<trkpt lat="-27.3777495" lon="152.7686941">
<ele>505.662</ele>
<time>2015-12-31T09:34:15.019Z</time>
</trkpt>
<trkpt lat="-27.3773943" lon="152.7682209">
<ele>508.256</ele>
<time>2015-12-31T09:34:17.994Z</time>
</trkpt>
<trkpt lat="-27.3771584" lon="152.7678873">
<ele>511.387</ele>
<time>2015-12-31T09:34:20.005Z</time>
</trkpt>
<trkpt lat="-27.3768244" lon="152.7674133">
<ele>515.190</ele>
<time>2015-12-31T09:34:22.926Z</time>
</trkpt>
<trkpt lat="-27.3766136" lon="152.7671212">
<ele>518.422</ele>
<time>2015-12-31T09:34:24.788Z</time>
</trkpt>
<trkpt lat="-27.3762332" lon="152.7666591">
<ele>519.948</ele>
<time>2015-12-31T09:34:27.803Z</time>
</trkpt>
<trkpt lat="-27.3759648" lon="152.7663411">
<ele>519.990</ele>
<time>2015-12-31T09:34:29.784Z</time>
</trkpt>
<trkpt lat="-27.3756827" lon="152.7660332">
<ele>519.229</ele>
<time>2015-12-31T09:34:31.750Z</time>
</trkpt>
<trkpt lat="-27.3754160" lon="152.7657248">
<ele>517.815</ele>
<time>2015-12-31T09:34:33.668Z</time>
</trkpt>
<trkpt lat="-27.3750145" lon="152.7652555">
<ele>515.257</ele>
<time>2015-12-31T09:34:36.590Z</time>
</trkpt>
<trkpt lat="-27.3747356" lon="152.7649506">
<ele>511.063</ele>
<time>2015-12-31T09:34:38.548Z</time>
</trkpt>
<trkpt lat="-27.3744615" lon="152.7646634">
<ele>505.817</ele>
<time>2015-12-31T09:34:40.407Z</time>
</trkpt>
<trkpt lat="-27.3739703" lon="152.7642279">
<ele>501.370</ele>
<time>2015-12-31T09:34:43.446Z</time>
</trkpt>
<trkpt lat="-27.3736262" lon="152.7639956">
<ele>499.316</ele>
<time>2015-12-31T09:34:45.394Z</time>
</trkpt>
<trkpt lat="-27.3731549" lon="152.7636618">
<ele>499.664</ele>
<time>2015-12-31T09:34:48.212Z</time>
</trkpt>
<trkpt lat="-27.3728503" lon="152.7634132">
<ele>501.384</ele>
<time>2015-12-31T09:34:50.191Z</time>
</trkpt>
<trkpt lat="-27.3724315" lon="152.7630222">
<ele>503.729</ele>
<time>2015-12-31T09:34:53.078Z</time>
</trkpt>
<trkpt lat="-27.3720931" lon="152.7626090">
<ele>506.718</ele>
<time>2015-12-31T09:34:55.895Z</time>
</trkpt>
<trkpt lat="-27.3716734" lon="152.7623065">
<ele>510.130</ele>
<time>2015-12-31T09:34:58.861Z</time>
</trkpt>
<trkpt lat="-27.3712648" lon="152.7620286">
<ele>512.951</ele>
<time>2015-12-31T09:35:01.763Z</time>
</trkpt>
<trkpt lat="-27.3709939" lon="152.7618909">
<ele>514.420</ele>
<time>2015-12-31T09:35:03.649Z</time>
</trkpt>
<trkpt lat="-27.3706899" lon="152.7618441">
<ele>514.377</ele>
<time>2015-12-31T09:35:05.664Z</time>
</trkpt>
<trkpt lat="-27.3703387" lon="152.7619220">
<ele>512.946</ele>
<time>2015-12-31T09:35:07.970Z</time>
</trkpt>
<trkpt lat="-27.3699134" lon="152.7620499">
<ele>510.927</ele>
<time>2015-12-31T09:35:10.443Z</time>
</trkpt>
<trkpt lat="-27.3692736" lon="152.7623008">
<ele>508.923</ele>
<time>2015-12-31T09:35:13.762Z</time>
</trkpt>
<trkpt lat="-27.3687097" lon="152.7625829">
<ele>506.663</ele>
<time>2015-12-31T09:35:16.739Z</time>
</trkpt>
<trkpt lat="-27.3684269" lon="152.7627070">
<ele>503.679</ele>
<time>2015-12-31T09:35:18.353Z</time>
</trkpt>
<trkpt lat="-27.3681547" lon="152.7628188">
<ele>499.757</ele>
<time>2015-12-31T09:35:20.085Z</time>
</trkpt>
<trkpt lat="-27.3677752" lon="152.7629364">
<ele>495.553</ele>
<time>2015-12-31T09:35:22.553Z</time>
</trkpt>
<trkpt lat="-27.3674961" lon="152.7629393">
<ele>492.333</ele>
<time>2015-12-31T09:35:24.328Z</time>
</trkpt>
<trkpt lat="-27.3670633" lon="152.7627679">
<ele>490.622</ele>
<time>2015-12-31T09:35:27.294Z</time>
</trkpt>
<trkpt lat="-27.3668201" lon="152.7625316">
<ele>490.097</ele>
<time>2015-12-31T09:35:29.307Z</time>
</trkpt>
<trkpt lat="-27.3666085" lon="152.7622674">
<ele>490.190</ele>
<time>2015-12-31T09:35:31.260Z</time>
</trkpt>
<trkpt lat="-27.3663234" lon="152.7618567">
<ele>490.420</ele>
<time>2015-12-31T09:35:34.187Z</time>
</trkpt>
<trkpt lat="-27.3660400" lon="152.7614428">
<ele>490.652</ele>
<time>2015-12-31T09:35:37.156Z</time>
</trkpt>
<trkpt lat="-27.3658560" lon="152.7611703">
<ele>491.330</ele>
<time>2015-12-31T09:35:39.075Z</time>
</trkpt>
<trkpt lat="-27.3655248" lon="152.7607851">
<ele>492.884</ele>
<time>2015-12-31T09:35:42.031Z</time>
</trkpt>
<trkpt lat="-27.3650345" lon="152.7605091">
<ele>494.861</ele>
<time>2015-12-31T09:35:45.154Z</time>
</trkpt>
<trkpt lat="-27.3646913" lon="152.7603584">
<ele>496.618</ele>
<time>2015-12-31T09:35:47.128Z</time>
</trkpt>
<trkpt lat="-27.3641858" lon="152.7602097">
<ele>497.943</ele>
<time>2015-12-31T09:35:49.989Z</time>
</trkpt>
<trkpt lat="-27.3637112" lon="152.7602032">
<ele>498.240</ele>
<time>2015-12-31T09:35:52.798Z</time>
</trkpt>
<trkpt lat="-27.3633813" lon="152.7603037">
<ele>496.775</ele>
<time>2015-12-31T09:35:54.885Z</time>
</trkpt>
<trkpt lat="-27.3630614" lon="152.7604932">
<ele>494.052</ele>
<time>2015-12-31T09:35:56.964Z</time>
</trkpt>
<trkpt lat="-27.3627233" lon="152.7607722">
<ele>491.384</ele>
<time>2015-12-31T09:35:59.139Z</time>
</trkpt>
<trkpt lat="-27.3622604" lon="152.7612021">
<ele>489.440</ele>
<time>2015-12-31T09:36:02.136Z</time>
</trkpt>
<trkpt lat="-27.3618450" lon="152.7615728">
<ele>488.184</ele>
<time>2015-12-31T09:36:04.874Z</time>
</trkpt>
<trkpt lat="-27.3613902" lon="152.7617899">
<ele>487.187</ele>
<time>2015-12-31T09:36:07.665Z</time>
</trkpt>
<trkpt lat="-27.3610851" lon="152.7618098">
<ele>486.026</ele>
<time>2015-12-31T09:36:09.516Z</time>
</trkpt>
<trkpt lat="-27.3607004" lon="152.7619141">
<ele>484.874</ele>
<time>2015-12-31T09:36:12.140Z</time>
</trkpt>
<trkpt lat="-27.3604748" lon="152.7620918">
<ele>484.143</ele>
<time>2015-12-31T09:36:14.054Z</time>
</trkpt>
<trkpt lat="-27.3601090" lon="152.7623942">
<ele>483.729</ele>
<time>2015-12-31T09:36:17.177Z</time>
</trkpt>
<trkpt lat="-27.3597966" lon="152.7624973">
<ele>483.366</ele>
<time>2015-12-31T09:36:19.299Z</time>
</trkpt>
<trkpt lat="-27.3593715" lon="152.7625221">
<ele>483.103</ele>
<time>2015-12-31T09:36:21.740Z</time>
</trkpt>
<trkpt lat="-27.3589417" lon="152.7626208">
<ele>483.194</ele>
<time>2015-12-31T09:36:23.879Z</time>
</trkpt>
<trkpt lat="-27.3583632" lon="152.7627612">
<ele>483.620</ele>
<time>2015-12-31T09:36:26.730Z</time>
</trkpt>
<trkpt lat="-27.3578107" lon="152.7626809">
<ele>482.779</ele>
<time>2015-12-31T09:36:29.583Z</time>
</trkpt>
<trkpt lat="-27.3572567" lon="152.7623712">
<ele>478.960</ele>
<time>2015-12-31T09:36:32.718Z</time>
</trkpt>
<trkpt lat="-27.3569090" lon="152.7621684">
<ele>473.769</ele>
<time>2015-12-31T09:36:34.677Z</time>
</trkpt>
<trkpt lat="-27.3565988" lon="152.7620820">
<ele>469.719</ele>
<time>2015-12-31T09:36:36.404Z</time>
</trkpt>
<trkpt lat="-27.3561531" lon="152.7621370">
<ele>466.834</ele>
<time>2015-12-31T09:36:39.114Z</time>
</trkpt>
<trkpt lat="-27.3558191" lon="152.7624469">
<ele>464.330</ele>
<time>2015-12-31T09:36:41.935Z</time>
</trkpt>
<trkpt lat="-27.3554428" lon="152.7627241">
<ele>462.137</ele>
<time>2015-12-31T09:36:44.971Z</time>
</trkpt>
<trkpt lat="-27.3550714" lon="152.7629122">
<ele>460.229</ele>
<time>2015-12-31T09:36:47.683Z</time>
</trkpt>
<trkpt lat="-27.3547485" lon="152.7630253">
<ele>458.444</ele>
<time>2015-12-31T09:36:49.793Z</time>
</trkpt>
<trkpt lat="-27.3542465" lon="152.7633056">
<ele>456.525</ele>
<time>2015-12-31T09:36:52.997Z</time>
</trkpt>
<trkpt lat="-27.3540406" lon="152.7637716">
<ele>454.619</ele>
<time>2015-12-31T09:36:55.630Z</time>
</trkpt>
<trkpt lat="-27.3538878" lon="152.7643657">
<ele>453.504</ele>
<time>2015-12-31T09:36:58.910Z</time>
</trkpt>
<trkpt lat="-27.3535457" lon="152.7649192">
<ele>453.565</ele>
<time>2015-12-31T09:37:02.509Z</time>
</trkpt>
<trkpt lat="-27.3533042" lon="152.7653061">
<ele>454.369</ele>
<time>2015-12-31T09:37:05.033Z</time>
</trkpt>
<trkpt lat="-27.3530490" lon="152.7656371">
<ele>455.133</ele>
<time>2015-12-31T09:37:07.371Z</time>
</trkpt>
<trkpt lat="-27.3526314" lon="152.7660372">
<ele>455.111</ele>
<time>2015-12-31T09:37:10.666Z</time>
</trkpt>
<trkpt lat="-27.3522138" lon="152.7662495">
<ele>454.427</ele>
<time>2015-12-31T09:37:13.532Z</time>
</trkpt>
<trkpt lat="-27.3519437" lon="152.7663796">
<ele>454.439</ele>
<time>2015-12-31T09:37:15.496Z</time>
</trkpt>
<trkpt lat="-27.3515717" lon="152.7666069">
<ele>456.013</ele>
<time>2015-12-31T09:37:18.386Z</time>
</trkpt>
<trkpt lat="-27.3513709" lon="152.7668197">
<ele>458.963</ele>
<time>2015-12-31T09:37:20.212Z</time>
</trkpt>
<trkpt lat="-27.3511947" lon="152.7671051">
<ele>462.832</ele>
<time>2015-12-31T09:37:22.127Z</time>
</trkpt>
<trkpt lat="-27.3510156" lon="152.7674305">
<ele>466.932</ele>
<time>2015-12-31T09:37:24.307Z</time>
</trkpt>
<trkpt lat="-27.3509410" lon="152.7676989">
<ele>470.906</ele>
<time>2015-12-31T09:37:26.030Z</time>
</trkpt>
<trkpt lat="-27.3508312" lon="152.7679887">
<ele>474.739</ele>
<time>2015-12-31T09:37:28.015Z</time>
</trkpt>
<trkpt lat="-27.3508100" lon="152.7682955">
<ele>477.726</ele>
<time>2015-12-31T09:37:29.888Z</time>
</trkpt>
<trkpt lat="-27.3509446" lon="152.7687823">
<ele>479.537</ele>
<time>2015-12-31T09:37:32.862Z</time>
</trkpt>
<trkpt lat="-27.3510723" lon="152.7690970">
<ele>481.474</ele>
<time>2015-12-31T09:37:34.916Z</time>
</trkpt>
<trkpt lat="-27.3510649" lon="152.7694159">
<ele>485.055</ele>
<time>2015-12-31T09:37:36.963Z</time>
</trkpt>
<trkpt lat="-27.3509770" lon="152.7697211">
<ele>489.896</ele>
<time>2015-12-31T09:37:39.076Z</time>
</trkpt>
<trkpt lat="-27.3507427" lon="152.7700721">
<ele>494.240</ele>
<time>2015-12-31T09:37:42.105Z</time>
</trkpt>
<trkpt lat="-27.3505906" lon="152.7703752">
<ele>497.660</ele>
<time>2015-12-31T09:37:44.551Z</time>
</trkpt>
<trkpt lat="-27.3504149" lon="152.7707718">
<ele>500.894</ele>
<time>2015-12-31T09:37:47.604Z</time>
</trkpt>
<trkpt lat="-27.3503339" lon="152.7710500">
<ele>504.451</ele>
<time>2015-12-31T09:37:49.707Z</time>
</trkpt>
<trkpt lat="-27.3502440" lon="152.7712840">
<ele>507.943</ele>
<time>2015-12-31T09:37:51.732Z</time>
</trkpt>
<trkpt lat="-27.3501736" lon="152.7715913">
<ele>510.340</ele>
<time>2015-12-31T09:37:54.324Z</time>
</trkpt>
<trkpt lat="-27.3500509" lon="152.7718154">
<ele>511.475</ele>
<time>2015-12-31T09:37:56.435Z</time>
</trkpt>
<trkpt lat="-27.3498861" lon="152.7720074">
<ele>512.386</ele>
<time>2015-12-31T09:37:58.530Z</time>
</trkpt>
<trkpt lat="-27.3496023" lon="152.7721423">
<ele>513.974</ele>
<time>2015-12-31T09:38:01.242Z</time>
</trkpt>
<trkpt lat="-27.3491976" lon="152.7720688">
<ele>516.895</ele>
<time>2015-12-31T09:38:04.711Z</time>
</trkpt>
<trkpt lat="-27.3488452" lon="152.7718237">
<ele>521.524</ele>
<time>2015-12-31T09:38:08.012Z</time>
</trkpt>
<trkpt lat="-27.3486072" lon="152.7715469">
<ele>526.957</ele>
<time>2015-12-31T09:38:10.746Z</time>
</trkpt>
<trkpt lat="-27.3484375" lon="152.7713394">
<ele>531.785</ele>
<time>2015-12-31T09:38:12.770Z</time>
</trkpt>
<trkpt lat="-27.3481270" lon="152.7711410">
<ele>535.575</ele>
<time>2015-12-31T09:38:15.555Z</time>
</trkpt>
<trkpt lat="-27.3477282" lon="152.7710344">
<ele>538.558</ele>
<time>2015-12-31T09:38:18.601Z</time>
</trkpt>
<trkpt lat="-27.3473275" lon="152.7710812">
<ele>541.150</ele>
<time>2015-12-31T09:38:21.609Z</time>
</trkpt>
<trkpt lat="-27.3469783" lon="152.7712198">
<ele>543.959</ele>
<time>2015-12-31T09:38:24.494Z</time>
</trkpt>
<trkpt lat="-27.3467665" lon="152.7713637">
<ele>547.362</ele>
<time>2015-12-31T09:38:26.504Z</time>
</trkpt>
<trkpt lat="-27.3465760" lon="152.7715462">
<ele>551.103</ele>
<time>2015-12-31T09:38:28.606Z</time>
</trkpt>
<trkpt lat="-27.3464119" lon="152.7716998">
<ele>554.562</ele>
<time>2015-12-31T09:38:30.458Z</time>
</trkpt>
<trkpt lat="-27.3462296" lon="152.7718559">
<ele>557.399</ele>
<time>2015-12-31T09:38:32.419Z</time>
</trkpt>
<trkpt lat="-27.3459104" lon="152.7720109">
<ele>559.554</ele>
<time>2015-12-31T09:38:35.188Z</time>
</trkpt>
<trkpt lat="-27.3454792" lon="152.7720694">
<ele>561.176</ele>
<time>2015-12-31T09:38:38.240Z</time>
</trkpt>
<trkpt lat="-27.3451687" lon="152.7721158">
<ele>562.832</ele>
<time>2015-12-31T09:38:40.287Z</time>
</trkpt>
<trkpt lat="-27.3447376" lon="152.7720846">
<ele>564.607</ele>
<time>2015-12-31T09:38:43.140Z</time>
</trkpt>
<trkpt lat="-27.3443194" lon="152.7720900">
<ele>565.757</ele>
<time>2015-12-31T09:38:46.029Z</time>
</trkpt>
<trkpt lat="-27.3440409" lon="152.7720842">
<ele>565.299</ele>
<time>2015-12-31T09:38:48.030Z</time>
</trkpt>
<trkpt lat="-27.3437733" lon="152.7720216">
<ele>562.919</ele>
<time>2015-12-31T09:38:49.970Z</time>
</trkpt>
<trkpt lat="-27.3433690" lon="152.7718052">
<ele>559.218</ele>
<time>2015-12-31T09:38:53.100Z</time>
</trkpt>
<trkpt lat="-27.3429648" lon="152.7715725">
<ele>555.226</ele>
<time>2015-12-31T09:38:56.281Z</time>
</trkpt>
<trkpt lat="-27.3427120" lon="152.7714564">
<ele>551.891</ele>
<time>2015-12-31T09:38:58.244Z</time>
</trkpt>
<trkpt lat="-27.3424568" lon="152.7713332">
<ele>549.786</ele>
<time>2015-12-31T09:39:00.263Z</time>
</trkpt>
<trkpt lat="-27.3421232" lon="152.7710304">
<ele>548.701</ele>
<time>2015-12-31T09:39:03.331Z</time>
</trkpt>
<trkpt lat="-27.3419429" lon="152.7707467">
<ele>548.151</ele>
<time>2015-12-31T09:39:05.399Z</time>
</trkpt>
<trkpt lat="-27.3417646" lon="152.7704785">
<ele>547.773</ele>
<time>2015-12-31T09:39:07.274Z</time>
</trkpt>
<trkpt lat="-27.3413356" lon="152.7701630">
<ele>547.253</ele>
<time>2015-12-31T09:39:10.391Z</time>
</trkpt>
<trkpt lat="-27.3408450" lon="152.7698898">
<ele>546.579</ele>
<time>2015-12-31T09:39:13.685Z</time>
</trkpt>
<trkpt lat="-27.3405663" lon="152.7697436">
<ele>546.621</ele>
<time>2015-12-31T09:39:15.667Z</time>
</trkpt>
<trkpt lat="-27.3403013" lon="152.7696485">
<ele>547.921</ele>
<time>2015-12-31T09:39:17.573Z</time>
</trkpt>
<trkpt lat="-27.3400312" lon="152.7696025">
<ele>549.915</ele>
<time>2015-12-31T09:39:19.565Z</time>
</trkpt>
<trkpt lat="-27.3396485" lon="152.7695448">
<ele>552.034</ele>
<time>2015-12-31T09:39:22.433Z</time>
</trkpt>
<trkpt lat="-27.3393804" lon="152.7694775">
<ele>554.376</ele>
<time>2015-12-31T09:39:24.402Z</time>
</trkpt>
<trkpt lat="-27.3389782" lon="152.7692955">
<ele>557.087</ele>
<time>2015-12-31T09:39:27.410Z</time>
</trkpt>
<trkpt lat="-27.3386078" lon="152.7690368">
<ele>559.808</ele>
<time>2015-12-31T09:39:30.332Z</time>
</trkpt>
<trkpt lat="-27.3383457" lon="152.7688444">
<ele>561.702</ele>
<time>2015-12-31T09:39:32.376Z</time>
</trkpt>
<trkpt lat="-27.3380850" lon="152.7686893">
<ele>562.322</ele>
<time>2015-12-31T09:39:34.392Z</time>
</trkpt>
<trkpt lat="-27.3376689" lon="152.7686519">
<ele>561.979</ele>
<time>2015-12-31T09:39:37.402Z</time>
</trkpt>
<trkpt lat="-27.3374324" lon="152.7687716">
<ele>562.171</ele>
<time>2015-12-31T09:39:39.409Z</time>
</trkpt>
<trkpt lat="-27.3372163" lon="152.7688871">
<ele>564.390</ele>
<time>2015-12-31T09:39:41.418Z</time>
</trkpt>
<trkpt lat="-27.3369078" lon="152.7690012">
<ele>567.838</ele>
<time>2015-12-31T09:39:44.274Z</time>
</trkpt>
<trkpt lat="-27.3366973" lon="152.7690649">
<ele>570.810</ele>
<time>2015-12-31T09:39:46.258Z</time>
</trkpt>
<trkpt lat="-27.3363901" lon="152.7691348">
<ele>573.323</ele>
<time>2015-12-31T09:39:49.193Z</time>
</trkpt>
<trkpt lat="-27.3362129" lon="152.7691974">
<ele>576.203</ele>
<time>2015-12-31T09:39:50.986Z</time>
</trkpt>
<trkpt lat="-27.3359981" lon="152.7692428">
<ele>579.462</ele>
<time>2015-12-31T09:39:53.031Z</time>
</trkpt>
<trkpt lat="-27.3356760" lon="152.7693015">
<ele>582.471</ele>
<time>2015-12-31T09:39:56.032Z</time>
</trkpt>
<trkpt lat="-27.3353659" lon="152.7693839">
<ele>585.268</ele>
<time>2015-12-31T09:39:59.022Z</time>
</trkpt>
<trkpt lat="-27.3350568" lon="152.7694409">
<ele>588.360</ele>
<time>2015-12-31T09:40:01.913Z</time>
</trkpt>
<trkpt lat="-27.3347162" lon="152.7696221">
<ele>591.655</ele>
<time>2015-12-31T09:40:05.153Z</time>
</trkpt>
<trkpt lat="-27.3345897" lon="152.7698857">
<ele>594.853</ele>
<time>2015-12-31T09:40:07.290Z</time>
</trkpt>
<trkpt lat="-27.3343568" lon="152.7702306">
<ele>597.828</ele>
<time>2015-12-31T09:40:10.342Z</time>
</trkpt>
<trkpt lat="-27.3342058" lon="152.7704172">
<ele>600.425</ele>
<time>2015-12-31T09:40:12.268Z</time>
</trkpt>
<trkpt lat="-27.3340019" lon="152.7706595">
<ele>602.624</ele>
<time>2015-12-31T09:40:15.068Z</time>
</trkpt>
<trkpt lat="-27.3337847" lon="152.7707980">
<ele>604.452</ele>
<time>2015-12-31T09:40:17.757Z</time>
</trkpt>
<trkpt lat="-27.3335486" lon="152.7708037">
<ele>605.986</ele>
<time>2015-12-31T09:40:20.548Z</time>
</trkpt>
<trkpt lat="-27.3334130" lon="152.7705961">
<ele>607.487</ele>
<time>2015-12-31T09:40:23.119Z</time>
</trkpt>
<trkpt lat="-27.3334334" lon="152.7703304">
<ele>609.162</ele>
<time>2015-12-31T09:40:25.421Z</time>
</trkpt>
<trkpt lat="-27.3335103" lon="152.7700857">
<ele>610.993</ele>
<time>2015-12-31T09:40:27.367Z</time>
</trkpt>
<trkpt lat="-27.3336764" lon="152.7696890">
<ele>612.612</ele>
<time>2015-12-31T09:40:30.514Z</time>
</trkpt>
<trkpt lat="-27.3337735" lon="152.7694652">
<ele>613.578</ele>
<time>2015-12-31T09:40:32.352Z</time>
</trkpt>
<trkpt lat="-27.3338728" lon="152.7692328">
<ele>613.840</ele>
<time>2015-12-31T09:40:34.350Z</time>
</trkpt>
<trkpt lat="-27.3340135" lon="152.7689068">
<ele>614.019</ele>
<time>2015-12-31T09:40:37.307Z</time>
</trkpt>
<trkpt lat="-27.3341536" lon="152.7686275">
<ele>615.011</ele>
<time>2015-12-31T09:40:40.063Z</time>
</trkpt>
<trkpt lat="-27.3342581" lon="152.7684171">
<ele>617.221</ele>
<time>2015-12-31T09:40:42.175Z</time>
</trkpt>
<trkpt lat="-27.3344011" lon="152.7681298">
<ele>620.182</ele>
<time>2015-12-31T09:40:45.256Z</time>
</trkpt>
<trkpt lat="-27.3344875" lon="152.7680085">
<ele>622.997</ele>
<time>2015-12-31T09:40:47.092Z</time>
</trkpt>
<trkpt lat="-27.3346175" lon="152.7679013">
<ele>624.980</ele>
<time>2015-12-31T09:40:49.682Z</time>
</trkpt>
<trkpt lat="-27.3347152" lon="152.7678198">
<ele>626.076</ele>
<time>2015-12-31T09:40:52.277Z</time>
</trkpt>
<trkpt lat="-27.3347861" lon="152.7677469">
<ele>626.709</ele>
<time>2015-12-31T09:40:54.970Z</time>
</trkpt>
<trkpt lat="-27.3348612" lon="152.7676735">
<ele>627.206</ele>
<time>2015-12-31T09:40:58.996Z</time>
</trkpt>
<trkpt lat="-27.3348612" lon="152.7676735">
<ele>627.581</ele>
<time>2015-12-31T09:41:04.996Z</time>
</trkpt>
<trkpt lat="-27.3348612" lon="152.7676735">
<ele>627.642</ele>
<time>2015-12-31T09:44:23.784Z</time>
</trkpt>
<trkpt lat="-27.3347366" lon="152.7677256">
<ele>627.361</ele>
<time>2015-12-31T09:44:26.900Z</time>
</trkpt>
<trkpt lat="-27.3345910" lon="152.7678714">
<ele>628.465</ele>
<time>2015-12-31T09:44:29.207Z</time>
</trkpt>
<trkpt lat="-27.3343927" lon="152.7681432">
<ele>632.248</ele>
<time>2015-12-31T09:44:32.282Z</time>
</trkpt>
<trkpt lat="-27.3342018" lon="152.7684951">
<ele>636.569</ele>
<time>2015-12-31T09:44:35.471Z</time>
</trkpt>
<trkpt lat="-27.3340377" lon="152.7688582">
<ele>638.803</ele>
<time>2015-12-31T09:44:38.478Z</time>
</trkpt>
<trkpt lat="-27.3339133" lon="152.7691152">
<ele>638.662</ele>
<time>2015-12-31T09:44:40.577Z</time>
</trkpt>
<trkpt lat="-27.3338133" lon="152.7693715">
<ele>636.943</ele>
<time>2015-12-31T09:44:42.546Z</time>
</trkpt>
<trkpt lat="-27.3336989" lon="152.7696315">
<ele>634.726</ele>
<time>2015-12-31T09:44:44.616Z</time>
</trkpt>
<trkpt lat="-27.3335393" lon="152.7699910">
<ele>632.712</ele>
<time>2015-12-31T09:44:47.635Z</time>
</trkpt>
<trkpt lat="-27.3333953" lon="152.7703158">
<ele>631.175</ele>
<time>2015-12-31T09:44:50.634Z</time>
</trkpt>
<trkpt lat="-27.3333514" lon="152.7705073">
<ele>630.132</ele>
<time>2015-12-31T09:44:52.555Z</time>
</trkpt>
<trkpt lat="-27.3334180" lon="152.7707502">
<ele>629.372</ele>
<time>2015-12-31T09:44:55.234Z</time>
</trkpt>
<trkpt lat="-27.3335418" lon="152.7708667">
<ele>628.760</ele>
<time>2015-12-31T09:44:57.221Z</time>
</trkpt>
<trkpt lat="-27.3338131" lon="152.7708624">
<ele>628.176</ele>
<time>2015-12-31T09:45:00.274Z</time>
</trkpt>
<trkpt lat="-27.3340746" lon="152.7706508">
<ele>627.316</ele>
<time>2015-12-31T09:45:03.338Z</time>
</trkpt>
<trkpt lat="-27.3342421" lon="152.7704363">
<ele>626.153</ele>
<time>2015-12-31T09:45:05.437Z</time>
</trkpt>
<trkpt lat="-27.3344717" lon="152.7700902">
<ele>625.060</ele>
<time>2015-12-31T09:45:08.521Z</time>
</trkpt>
<trkpt lat="-27.3346960" lon="152.7697479">
<ele>623.875</ele>
<time>2015-12-31T09:45:11.606Z</time>
</trkpt>
<trkpt lat="-27.3348778" lon="152.7695827">
<ele>621.960</ele>
<time>2015-12-31T09:45:13.612Z</time>
</trkpt>
<trkpt lat="-27.3350890" lon="152.7694885">
<ele>619.467</ele>
<time>2015-12-31T09:45:15.563Z</time>
</trkpt>
<trkpt lat="-27.3354328" lon="152.7693993">
<ele>617.165</ele>
<time>2015-12-31T09:45:18.560Z</time>
</trkpt>
<trkpt lat="-27.3356742" lon="152.7693642">
<ele>615.310</ele>
<time>2015-12-31T09:45:20.535Z</time>
</trkpt>
<trkpt lat="-27.3360457" lon="152.7693032">
<ele>613.577</ele>
<time>2015-12-31T09:45:23.478Z</time>
</trkpt>
<trkpt lat="-27.3364345" lon="152.7692121">
<ele>611.530</ele>
<time>2015-12-31T09:45:26.506Z</time>
</trkpt>
<trkpt lat="-27.3368217" lon="152.7691281">
<ele>608.601</ele>
<time>2015-12-31T09:45:29.538Z</time>
</trkpt>
<trkpt lat="-27.3371741" lon="152.7690045">
<ele>604.371</ele>
<time>2015-12-31T09:45:32.489Z</time>
</trkpt>
<trkpt lat="-27.3375100" lon="152.7688483">
<ele>598.944</ele>
<time>2015-12-31T09:45:35.570Z</time>
</trkpt>
<trkpt lat="-27.3378176" lon="152.7687612">
<ele>592.849</ele>
<time>2015-12-31T09:45:38.394Z</time>
</trkpt>
<trkpt lat="-27.3380318" lon="152.7687483">
<ele>586.733</ele>
<time>2015-12-31T09:45:40.326Z</time>
</trkpt>
<trkpt lat="-27.3383246" lon="152.7689223">
<ele>581.346</ele>
<time>2015-12-31T09:45:43.244Z</time>
</trkpt>
<trkpt lat="-27.3386339" lon="152.7691581">
<ele>577.479</ele>
<time>2015-12-31T09:45:46.310Z</time>
</trkpt>
<trkpt lat="-27.3390482" lon="152.7693794">
<ele>575.516</ele>
<time>2015-12-31T09:45:49.724Z</time>
</trkpt>
<trkpt lat="-27.3393397" lon="152.7695142">
<ele>575.410</ele>
<time>2015-12-31T09:45:51.891Z</time>
</trkpt>
<trkpt lat="-27.3397513" lon="152.7696227">
<ele>576.597</ele>
<time>2015-12-31T09:45:54.699Z</time>
</trkpt>
<trkpt lat="-27.3400602" lon="152.7696646">
<ele>577.811</ele>
<time>2015-12-31T09:45:56.680Z</time>
</trkpt>
<trkpt lat="-27.3403593" lon="152.7697221">
<ele>577.917</ele>
<time>2015-12-31T09:45:58.597Z</time>
</trkpt>
<trkpt lat="-27.3408150" lon="152.7698993">
<ele>576.620</ele>
<time>2015-12-31T09:46:01.603Z</time>
</trkpt>
<trkpt lat="-27.3411369" lon="152.7700794">
<ele>574.203</ele>
<time>2015-12-31T09:46:03.790Z</time>
</trkpt>
<trkpt lat="-27.3415705" lon="152.7703368">
<ele>571.187</ele>
<time>2015-12-31T09:46:06.628Z</time>
</trkpt>
<trkpt lat="-27.3419929" lon="152.7707847">
<ele>568.201</ele>
<time>2015-12-31T09:46:09.814Z</time>
</trkpt>
<trkpt lat="-27.3422548" lon="152.7710713">
<ele>566.013</ele>
<time>2015-12-31T09:46:11.952Z</time>
</trkpt>
<trkpt lat="-27.3425235" lon="152.7714273">
<ele>565.114</ele>
<time>2015-12-31T09:46:14.584Z</time>
</trkpt>
<trkpt lat="-27.3429157" lon="152.7716569">
<ele>565.290</ele>
<time>2015-12-31T09:46:17.509Z</time>
</trkpt>
<trkpt lat="-27.3433564" lon="152.7719279">
<ele>566.008</ele>
<time>2015-12-31T09:46:20.776Z</time>
</trkpt>
<trkpt lat="-27.3436227" lon="152.7720856">
<ele>566.854</ele>
<time>2015-12-31T09:46:22.760Z</time>
</trkpt>
<trkpt lat="-27.3439208" lon="152.7721537">
<ele>567.632</ele>
<time>2015-12-31T09:46:24.878Z</time>
</trkpt>
<trkpt lat="-27.3441853" lon="152.7721857">
<ele>568.365</ele>
<time>2015-12-31T09:46:27.054Z</time>
</trkpt>
<trkpt lat="-27.3443604" lon="152.7721716">
<ele>569.377</ele>
<time>2015-12-31T09:46:28.778Z</time>
</trkpt>
<trkpt lat="-27.3445542" lon="152.7721592">
<ele>570.790</ele>
<time>2015-12-31T09:46:30.696Z</time>
</trkpt>
<trkpt lat="-27.3448751" lon="152.7721576">
<ele>572.346</ele>
<time>2015-12-31T09:46:33.642Z</time>
</trkpt>
<trkpt lat="-27.3451250" lon="152.7721396">
<ele>573.971</ele>
<time>2015-12-31T09:46:35.544Z</time>
</trkpt>
<trkpt lat="-27.3454512" lon="152.7721228">
<ele>575.950</ele>
<time>2015-12-31T09:46:37.782Z</time>
</trkpt>
<trkpt lat="-27.3459127" lon="152.7720480">
<ele>578.574</ele>
<time>2015-12-31T09:46:40.843Z</time>
</trkpt>
<trkpt lat="-27.3462061" lon="152.7719211">
<ele>581.428</ele>
<time>2015-12-31T09:46:42.818Z</time>
</trkpt>
<trkpt lat="-27.3464929" lon="152.7716983">
<ele>583.324</ele>
<time>2015-12-31T09:46:44.934Z</time>
</trkpt>
<trkpt lat="-27.3469018" lon="152.7713429">
<ele>583.765</ele>
<time>2015-12-31T09:46:47.999Z</time>
</trkpt>
<trkpt lat="-27.3472014" lon="152.7711627">
<ele>582.795</ele>
<time>2015-12-31T09:46:49.948Z</time>
</trkpt>
<trkpt lat="-27.3475640" lon="152.7711031">
<ele>580.166</ele>
<time>2015-12-31T09:46:52.016Z</time>
</trkpt>
<trkpt lat="-27.3481013" lon="152.7711836">
<ele>576.250</ele>
<time>2015-12-31T09:46:55.052Z</time>
</trkpt>
<trkpt lat="-27.3484581" lon="152.7713127">
<ele>571.838</ele>
<time>2015-12-31T09:46:57.169Z</time>
</trkpt>
<trkpt lat="-27.3488592" lon="152.7716665">
<ele>567.596</ele>
<time>2015-12-31T09:47:00.157Z</time>
</trkpt>
<trkpt lat="-27.3490837" lon="152.7719398">
<ele>563.942</ele>
<time>2015-12-31T09:47:02.304Z</time>
</trkpt>
<trkpt lat="-27.3493102" lon="152.7721090">
<ele>560.520</ele>
<time>2015-12-31T09:47:04.207Z</time>
</trkpt>
<trkpt lat="-27.3497062" lon="152.7721894">
<ele>556.683</ele>
<time>2015-12-31T09:47:07.089Z</time>
</trkpt>
<trkpt lat="-27.3499676" lon="152.7720853">
<ele>552.231</ele>
<time>2015-12-31T09:47:09.078Z</time>
</trkpt>
<trkpt lat="-27.3503086" lon="152.7717579">
<ele>547.426</ele>
<time>2015-12-31T09:47:12.204Z</time>
</trkpt>
<trkpt lat="-27.3504349" lon="152.7714179">
<ele>542.374</ele>
<time>2015-12-31T09:47:14.359Z</time>
</trkpt>
<trkpt lat="-27.3505209" lon="152.7710876">
<ele>537.309</ele>
<time>2015-12-31T09:47:16.375Z</time>
</trkpt>
<trkpt lat="-27.3506756" lon="152.7706240">
<ele>533.405</ele>
<time>2015-12-31T09:47:19.554Z</time>
</trkpt>
<trkpt lat="-27.3508664" lon="152.7702609">
<ele>530.968</ele>
<time>2015-12-31T09:47:22.604Z</time>
</trkpt>
<trkpt lat="-27.3510010" lon="152.7700432">
<ele>528.353</ele>
<time>2015-12-31T09:47:24.791Z</time>
</trkpt>
<trkpt lat="-27.3511250" lon="152.7698320">
<ele>524.727</ele>
<time>2015-12-31T09:47:27.208Z</time>
</trkpt>
<trkpt lat="-27.3512651" lon="152.7695972">
<ele>520.729</ele>
<time>2015-12-31T09:47:30.553Z</time>
</trkpt>
<trkpt lat="-27.3513765" lon="152.7695136">
<ele>516.624</ele>
<time>2015-12-31T09:47:32.122Z</time>
</trkpt>
<trkpt lat="-27.3515311" lon="152.7694858">
<ele>512.619</ele>
<time>2015-12-31T09:47:33.874Z</time>
</trkpt>
<trkpt lat="-27.3518250" lon="152.7695385">
<ele>509.643</ele>
<time>2015-12-31T09:47:36.458Z</time>
</trkpt>
<trkpt lat="-27.3520799" lon="152.7695929">
<ele>507.753</ele>
<time>2015-12-31T09:47:38.289Z</time>
</trkpt>
<trkpt lat="-27.3525640" lon="152.7695189">
<ele>505.887</ele>
<time>2015-12-31T09:47:41.369Z</time>
</trkpt>
<trkpt lat="-27.3528968" lon="152.7694811">
<ele>503.297</ele>
<time>2015-12-31T09:47:43.466Z</time>
</trkpt>
<trkpt lat="-27.3533807" lon="152.7694854">
<ele>499.971</ele>
<time>2015-12-31T09:47:46.649Z</time>
</trkpt>
<trkpt lat="-27.3538224" lon="152.7696139">
<ele>495.645</ele>
<time>2015-12-31T09:47:49.544Z</time>
</trkpt>
<trkpt lat="-27.3542638" lon="152.7699124">
<ele>490.251</ele>
<time>2015-12-31T09:47:52.623Z</time>
</trkpt>
<trkpt lat="-27.3544982" lon="152.7702298">
<ele>484.659</ele>
<time>2015-12-31T09:47:54.893Z</time>
</trkpt>
<trkpt lat="-27.3547139" lon="152.7705094">
<ele>479.631</ele>
<time>2015-12-31T09:47:57.160Z</time>
</trkpt>
<trkpt lat="-27.3548678" lon="152.7707515">
<ele>474.993</ele>
<time>2015-12-31T09:47:59.078Z</time>
</trkpt>
<trkpt lat="-27.3550648" lon="152.7711758">
<ele>470.047</ele>
<time>2015-12-31T09:48:02.253Z</time>
</trkpt>
<trkpt lat="-27.3552391" lon="152.7713964">
<ele>463.897</ele>
<time>2015-12-31T09:48:04.181Z</time>
</trkpt>
<trkpt lat="-27.3554994" lon="152.7715893">
<ele>456.806</ele>
<time>2015-12-31T09:48:06.524Z</time>
</trkpt>
<trkpt lat="-27.3558463" lon="152.7717664">
<ele>450.156</ele>
<time>2015-12-31T09:48:09.888Z</time>
</trkpt>
<trkpt lat="-27.3560495" lon="152.7718454">
<ele>444.301</ele>
<time>2015-12-31T09:48:11.936Z</time>
</trkpt>
<trkpt lat="-27.3562706" lon="152.7720726">
<ele>438.363</ele>
<time>2015-12-31T09:48:14.903Z</time>
</trkpt>
<trkpt lat="-27.3563469" lon="152.7724514">
<ele>432.260</ele>
<time>2015-12-31T09:48:18.914Z</time>
</trkpt>
<trkpt lat="-27.3565295" lon="152.7726082">
<ele>426.707</ele>
<time>2015-12-31T09:48:21.781Z</time>
</trkpt>
<trkpt lat="-27.3565508" lon="152.7728675">
<ele>421.486</ele>
<time>2015-12-31T09:48:24.034Z</time>
</trkpt>
<trkpt lat="-27.3564323" lon="152.7731007">
<ele>416.291</ele>
<time>2015-12-31T09:48:25.854Z</time>
</trkpt>
<trkpt lat="-27.3563818" lon="152.7733617">
<ele>411.748</ele>
<time>2015-12-31T09:48:27.543Z</time>
</trkpt>
<trkpt lat="-27.3565401" lon="152.7738614">
<ele>408.215</ele>
<time>2015-12-31T09:48:30.395Z</time>
</trkpt>
<trkpt lat="-27.3566994" lon="152.7742200">
<ele>405.381</ele>
<time>2015-12-31T09:48:32.552Z</time>
</trkpt>
<trkpt lat="-27.3569458" lon="152.7747244">
<ele>402.765</ele>
<time>2015-12-31T09:48:36.155Z</time>
</trkpt>
<trkpt lat="-27.3570433" lon="152.7751107">
<ele>399.110</ele>
<time>2015-12-31T09:48:38.944Z</time>
</trkpt>
<trkpt lat="-27.3570494" lon="152.7753772">
<ele>393.154</ele>
<time>2015-12-31T09:48:40.652Z</time>
</trkpt>
<trkpt lat="-27.3568631" lon="152.7756868">
<ele>386.168</ele>
<time>2015-12-31T09:48:43.030Z</time>
</trkpt>
<trkpt lat="-27.3566081" lon="152.7761362">
<ele>380.786</ele>
<time>2015-12-31T09:48:46.782Z</time>
</trkpt>
<trkpt lat="-27.3565045" lon="152.7764136">
<ele>376.580</ele>
<time>2015-12-31T09:48:48.934Z</time>
</trkpt>
<trkpt lat="-27.3564842" lon="152.7767383">
<ele>371.266</ele>
<time>2015-12-31T09:48:51.035Z</time>
</trkpt>
<trkpt lat="-27.3566760" lon="152.7772137">
<ele>365.106</ele>
<time>2015-12-31T09:48:54.138Z</time>
</trkpt>
<trkpt lat="-27.3569541" lon="152.7776661">
<ele>359.935</ele>
<time>2015-12-31T09:48:58.521Z</time>
</trkpt>
<trkpt lat="-27.3570660" lon="152.7779040">
<ele>355.738</ele>
<time>2015-12-31T09:49:02.049Z</time>
</trkpt>
<trkpt lat="-27.3572455" lon="152.7780230">
<ele>350.767</ele>
<time>2015-12-31T09:49:04.992Z</time>
</trkpt>
<trkpt lat="-27.3573690" lon="152.7778764">
<ele>344.325</ele>
<time>2015-12-31T09:49:06.790Z</time>
</trkpt>
<trkpt lat="-27.3573605" lon="152.7776338">
<ele>337.923</ele>
<time>2015-12-31T09:49:08.650Z</time>
</trkpt>
<trkpt lat="-27.3571300" lon="152.7773320">
<ele>333.386</ele>
<time>2015-12-31T09:49:11.843Z</time>
</trkpt>
<trkpt lat="-27.3570116" lon="152.7770934">
<ele>331.188</ele>
<time>2015-12-31T09:49:14.418Z</time>
</trkpt>
<trkpt lat="-27.3570645" lon="152.7767436">
<ele>330.261</ele>
<time>2015-12-31T09:49:17.414Z</time>
</trkpt>
<trkpt lat="-27.3572417" lon="152.7765769">
<ele>328.838</ele>
<time>2015-12-31T09:49:19.055Z</time>
</trkpt>
<trkpt lat="-27.3574704" lon="152.7765629">
<ele>325.940</ele>
<time>2015-12-31T09:49:20.554Z</time>
</trkpt>
<trkpt lat="-27.3577407" lon="152.7765359">
<ele>322.374</ele>
<time>2015-12-31T09:49:22.216Z</time>
</trkpt>
<trkpt lat="-27.3582559" lon="152.7763607">
<ele>319.493</ele>
<time>2015-12-31T09:49:25.820Z</time>
</trkpt>
<trkpt lat="-27.3585635" lon="152.7763283">
<ele>317.023</ele>
<time>2015-12-31T09:49:28.695Z</time>
</trkpt>
<trkpt lat="-27.3589427" lon="152.7763814">
<ele>313.361</ele>
<time>2015-12-31T09:49:33.092Z</time>
</trkpt>
<trkpt lat="-27.3591141" lon="152.7763780">
<ele>307.446</ele>
<time>2015-12-31T09:49:34.742Z</time>
</trkpt>
<trkpt lat="-27.3592924" lon="152.7761767">
<ele>300.058</ele>
<time>2015-12-31T09:49:37.259Z</time>
</trkpt>
<trkpt lat="-27.3593355" lon="152.7759129">
<ele>293.379</ele>
<time>2015-12-31T09:49:40.006Z</time>
</trkpt>
<trkpt lat="-27.3594304" lon="152.7756922">
<ele>289.080</ele>
<time>2015-12-31T09:49:43.316Z</time>
</trkpt>
<trkpt lat="-27.3594628" lon="152.7754988">
<ele>286.939</ele>
<time>2015-12-31T09:49:46.068Z</time>
</trkpt>
<trkpt lat="-27.3593996" lon="152.7752077">
<ele>285.533</ele>
<time>2015-12-31T09:49:49.105Z</time>
</trkpt>
<trkpt lat="-27.3594544" lon="152.7750835">
<ele>283.526</ele>
<time>2015-12-31T09:49:50.153Z</time>
</trkpt>
<trkpt lat="-27.3595292" lon="152.7750186">
<ele>280.821</ele>
<time>2015-12-31T09:49:50.956Z</time>
</trkpt>
<trkpt lat="-27.3597325" lon="152.7752962">
<ele>278.420</ele>
<time>2015-12-31T09:49:53.438Z</time>
</trkpt>
<trkpt lat="-27.3598536" lon="152.7755192">
<ele>277.843</ele>
<time>2015-12-31T09:49:55.171Z</time>
</trkpt>
<trkpt lat="-27.3598899" lon="152.7757876">
<ele>279.843</ele>
<time>2015-12-31T09:49:56.979Z</time>
</trkpt>
<trkpt lat="-27.3599287" lon="152.7762400">
<ele>283.723</ele>
<time>2015-12-31T09:50:00.272Z</time>
</trkpt>
<trkpt lat="-27.3599982" lon="152.7765441">
<ele>288.509</ele>
<time>2015-12-31T09:50:02.571Z</time>
</trkpt>
<trkpt lat="-27.3599760" lon="152.7768054">
<ele>293.163</ele>
<time>2015-12-31T09:50:04.551Z</time>
</trkpt>
<trkpt lat="-27.3596703" lon="152.7770848">
<ele>296.179</ele>
<time>2015-12-31T09:50:08.504Z</time>
</trkpt>
<trkpt lat="-27.3594318" lon="152.7772220">
<ele>296.962</ele>
<time>2015-12-31T09:50:11.411Z</time>
</trkpt>
<trkpt lat="-27.3591487" lon="152.7773344">
<ele>296.355</ele>
<time>2015-12-31T09:50:14.342Z</time>
</trkpt>
<trkpt lat="-27.3590623" lon="152.7775825">
<ele>295.018</ele>
<time>2015-12-31T09:50:16.597Z</time>
</trkpt>
<trkpt lat="-27.3591362" lon="152.7778076">
<ele>293.176</ele>
<time>2015-12-31T09:50:18.542Z</time>
</trkpt>
<trkpt lat="-27.3592416" lon="152.7780258">
<ele>291.369</ele>
<time>2015-12-31T09:50:20.452Z</time>
</trkpt>
<trkpt lat="-27.3595024" lon="152.7782444">
<ele>289.970</ele>
<time>2015-12-31T09:50:23.203Z</time>
</trkpt>
<trkpt lat="-27.3598153" lon="152.7783757">
<ele>288.259</ele>
<time>2015-12-31T09:50:26.072Z</time>
</trkpt>
<trkpt lat="-27.3600716" lon="152.7786765">
<ele>285.655</ele>
<time>2015-12-31T09:50:29.537Z</time>
</trkpt>
<trkpt lat="-27.3601096" lon="152.7789310">
<ele>282.597</ele>
<time>2015-12-31T09:50:31.867Z</time>
</trkpt>
<trkpt lat="-27.3601114" lon="152.7793145">
<ele>279.697</ele>
<time>2015-12-31T09:50:35.082Z</time>
</trkpt>
<trkpt lat="-27.3600046" lon="152.7796166">
<ele>276.742</ele>
<time>2015-12-31T09:50:37.632Z</time>
</trkpt>
<trkpt lat="-27.3601264" lon="152.7799269">
<ele>272.965</ele>
<time>2015-12-31T09:50:40.373Z</time>
</trkpt>
<trkpt lat="-27.3603488" lon="152.7802513">
<ele>268.230</ele>
<time>2015-12-31T09:50:43.682Z</time>
</trkpt>
<trkpt lat="-27.3603651" lon="152.7806075">
<ele>263.164</ele>
<time>2015-12-31T09:50:46.115Z</time>
</trkpt>
<trkpt lat="-27.3603276" lon="152.7808295">
<ele>258.767</ele>
<time>2015-12-31T09:50:47.516Z</time>
</trkpt>
<trkpt lat="-27.3600827" lon="152.7811957">
<ele>255.872</ele>
<time>2015-12-31T09:50:50.045Z</time>
</trkpt>
<trkpt lat="-27.3601626" lon="152.7816749">
<ele>254.687</ele>
<time>2015-12-31T09:50:52.637Z</time>
</trkpt>
<trkpt lat="-27.3604129" lon="152.7822021">
<ele>254.758</ele>
<time>2015-12-31T09:50:56.078Z</time>
</trkpt>
<trkpt lat="-27.3605502" lon="152.7825243">
<ele>255.333</ele>
<time>2015-12-31T09:50:58.272Z</time>
</trkpt>
<trkpt lat="-27.3605788" lon="152.7828476">
<ele>255.395</ele>
<time>2015-12-31T09:51:00.326Z</time>
</trkpt>
<trkpt lat="-27.3606336" lon="152.7833339">
<ele>254.414</ele>
<time>2015-12-31T09:51:03.272Z</time>
</trkpt>
<trkpt lat="-27.3608511" lon="152.7837317">
<ele>252.463</ele>
<time>2015-12-31T09:51:05.893Z</time>
</trkpt>
<trkpt lat="-27.3610785" lon="152.7839589">
<ele>250.228</ele>
<time>2015-12-31T09:51:07.961Z</time>
</trkpt>
<trkpt lat="-27.3613792" lon="152.7841863">
<ele>248.886</ele>
<time>2015-12-31T09:51:10.604Z</time>
</trkpt>
<trkpt lat="-27.3615844" lon="152.7843456">
<ele>249.081</ele>
<time>2015-12-31T09:51:12.669Z</time>
</trkpt>
<trkpt lat="-27.3618546" lon="152.7847047">
<ele>250.166</ele>
<time>2015-12-31T09:51:16.365Z</time>
</trkpt>
<trkpt lat="-27.3618387" lon="152.7849609">
<ele>251.484</ele>
<time>2015-12-31T09:51:18.535Z</time>
</trkpt>
<trkpt lat="-27.3617494" lon="152.7853216">
<ele>252.812</ele>
<time>2015-12-31T09:51:21.766Z</time>
</trkpt>
<trkpt lat="-27.3616414" lon="152.7856359">
<ele>253.801</ele>
<time>2015-12-31T09:51:24.521Z</time>
</trkpt>
<trkpt lat="-27.3616617" lon="152.7858019">
<ele>253.976</ele>
<time>2015-12-31T09:51:25.857Z</time>
</trkpt>
<trkpt lat="-27.3616027" lon="152.7861675">
<ele>253.307</ele>
<time>2015-12-31T09:51:28.655Z</time>
</trkpt>
<trkpt lat="-27.3614339" lon="152.7865170">
<ele>252.194</ele>
<time>2015-12-31T09:51:31.526Z</time>
</trkpt>
<trkpt lat="-27.3611344" lon="152.7866384">
<ele>250.923</ele>
<time>2015-12-31T09:51:34.388Z</time>
</trkpt>
<trkpt lat="-27.3607708" lon="152.7867068">
<ele>249.314</ele>
<time>2015-12-31T09:51:38.709Z</time>
</trkpt>
<trkpt lat="-27.3605389" lon="152.7867148">
<ele>247.325</ele>
<time>2015-12-31T09:51:41.056Z</time>
</trkpt>
<trkpt lat="-27.3603464" lon="152.7867703">
<ele>245.154</ele>
<time>2015-12-31T09:51:42.666Z</time>
</trkpt>
<trkpt lat="-27.3602518" lon="152.7868992">
<ele>242.834</ele>
<time>2015-12-31T09:51:43.869Z</time>
</trkpt>
<trkpt lat="-27.3602718" lon="152.7871750">
<ele>240.255</ele>
<time>2015-12-31T09:51:45.840Z</time>
</trkpt>
<trkpt lat="-27.3604318" lon="152.7874205">
<ele>237.495</ele>
<time>2015-12-31T09:51:48.060Z</time>
</trkpt>
<trkpt lat="-27.3606632" lon="152.7877511">
<ele>235.082</ele>
<time>2015-12-31T09:51:51.521Z</time>
</trkpt>
<trkpt lat="-27.3608315" lon="152.7881130">
<ele>233.230</ele>
<time>2015-12-31T09:51:55.080Z</time>
</trkpt>
<trkpt lat="-27.3608549" lon="152.7883508">
<ele>231.368</ele>
<time>2015-12-31T09:51:57.005Z</time>
</trkpt>
<trkpt lat="-27.3609556" lon="152.7886395">
<ele>229.271</ele>
<time>2015-12-31T09:51:59.170Z</time>
</trkpt>
<trkpt lat="-27.3611529" lon="152.7887326">
<ele>226.970</ele>
<time>2015-12-31T09:52:00.776Z</time>
</trkpt>
<trkpt lat="-27.3615092" lon="152.7887493">
<ele>224.349</ele>
<time>2015-12-31T09:52:03.334Z</time>
</trkpt>
<trkpt lat="-27.3619316" lon="152.7886434">
<ele>221.821</ele>
<time>2015-12-31T09:52:06.616Z</time>
</trkpt>
<trkpt lat="-27.3622317" lon="152.7886581">
<ele>219.588</ele>
<time>2015-12-31T09:52:09.041Z</time>
</trkpt>
<trkpt lat="-27.3624933" lon="152.7886993">
<ele>217.577</ele>
<time>2015-12-31T09:52:11.396Z</time>
</trkpt>
<trkpt lat="-27.3628760" lon="152.7886596">
<ele>215.789</ele>
<time>2015-12-31T09:52:15.353Z</time>
</trkpt>
<trkpt lat="-27.3632200" lon="152.7885001">
<ele>213.479</ele>
<time>2015-12-31T09:52:18.566Z</time>
</trkpt>
<trkpt lat="-27.3634665" lon="152.7884435">
<ele>209.834</ele>
<time>2015-12-31T09:52:20.400Z</time>
</trkpt>
<trkpt lat="-27.3636305" lon="152.7885375">
<ele>205.374</ele>
<time>2015-12-31T09:52:21.724Z</time>
</trkpt>
<trkpt lat="-27.3638911" lon="152.7889832">
<ele>201.541</ele>
<time>2015-12-31T09:52:25.050Z</time>
</trkpt>
<trkpt lat="-27.3640032" lon="152.7892379">
<ele>199.415</ele>
<time>2015-12-31T09:52:26.620Z</time>
</trkpt>
<trkpt lat="-27.3642822" lon="152.7896066">
<ele>198.707</ele>
<time>2015-12-31T09:52:29.147Z</time>
</trkpt>
<trkpt lat="-27.3643491" lon="152.7899268">
<ele>198.090</ele>
<time>2015-12-31T09:52:30.882Z</time>
</trkpt>
<trkpt lat="-27.3644129" lon="152.7903045">
<ele>196.928</ele>
<time>2015-12-31T09:52:32.956Z</time>
</trkpt>
<trkpt lat="-27.3645119" lon="152.7908859">
<ele>196.138</ele>
<time>2015-12-31T09:52:36.075Z</time>
</trkpt>
<trkpt lat="-27.3645543" lon="152.7912212">
<ele>196.664</ele>
<time>2015-12-31T09:52:37.806Z</time>
</trkpt>
<trkpt lat="-27.3645921" lon="152.7915881">
<ele>197.990</ele>
<time>2015-12-31T09:52:39.764Z</time>
</trkpt>
<trkpt lat="-27.3646111" lon="152.7921794">
<ele>198.900</ele>
<time>2015-12-31T09:52:43.295Z</time>
</trkpt>
<trkpt lat="-27.3645851" lon="152.7925569">
<ele>198.347</ele>
<time>2015-12-31T09:52:45.737Z</time>
</trkpt>
<trkpt lat="-27.3645424" lon="152.7929661">
<ele>195.507</ele>
<time>2015-12-31T09:52:48.493Z</time>
</trkpt>
<trkpt lat="-27.3646416" lon="152.7932436">
<ele>190.642</ele>
<time>2015-12-31T09:52:50.762Z</time>
</trkpt>
<trkpt lat="-27.3647560" lon="152.7935458">
<ele>185.681</ele>
<time>2015-12-31T09:52:53.530Z</time>
</trkpt>
<trkpt lat="-27.3648566" lon="152.7938072">
<ele>182.343</ele>
<time>2015-12-31T09:52:56.089Z</time>
</trkpt>
<trkpt lat="-27.3649341" lon="152.7940339">
<ele>180.273</ele>
<time>2015-12-31T09:52:58.097Z</time>
</trkpt>
<trkpt lat="-27.3649340" lon="152.7943742">
<ele>178.036</ele>
<time>2015-12-31T09:53:00.732Z</time>
</trkpt>
<trkpt lat="-27.3647904" lon="152.7945489">
<ele>175.104</ele>
<time>2015-12-31T09:53:02.516Z</time>
</trkpt>
<trkpt lat="-27.3647471" lon="152.7947825">
<ele>172.064</ele>
<time>2015-12-31T09:53:04.310Z</time>
</trkpt>
<trkpt lat="-27.3647665" lon="152.7951994">
<ele>169.751</ele>
<time>2015-12-31T09:53:07.209Z</time>
</trkpt>
<trkpt lat="-27.3648303" lon="152.7954472">
<ele>168.359</ele>
<time>2015-12-31T09:53:08.712Z</time>
</trkpt>
<trkpt lat="-27.3650423" lon="152.7957551">
<ele>167.184</ele>
<time>2015-12-31T09:53:10.768Z</time>
</trkpt>
<trkpt lat="-27.3652796" lon="152.7959336">
<ele>165.436</ele>
<time>2015-12-31T09:53:12.445Z</time>
</trkpt>
<trkpt lat="-27.3655393" lon="152.7961993">
<ele>163.376</ele>
<time>2015-12-31T09:53:14.594Z</time>
</trkpt>
<trkpt lat="-27.3658861" lon="152.7966382">
<ele>161.912</ele>
<time>2015-12-31T09:53:18.145Z</time>
</trkpt>
<trkpt lat="-27.3660938" lon="152.7969002">
<ele>161.010</ele>
<time>2015-12-31T09:53:20.429Z</time>
</trkpt>
<trkpt lat="-27.3664679" lon="152.7971591">
<ele>159.775</ele>
<time>2015-12-31T09:53:23.603Z</time>
</trkpt>
<trkpt lat="-27.3667358" lon="152.7971592">
<ele>157.827</ele>
<time>2015-12-31T09:53:25.372Z</time>
</trkpt>
<trkpt lat="-27.3669954" lon="152.7970431">
<ele>155.723</ele>
<time>2015-12-31T09:53:27.163Z</time>
</trkpt>
<trkpt lat="-27.3674101" lon="152.7969410">
<ele>154.382</ele>
<time>2015-12-31T09:53:29.678Z</time>
</trkpt>
<trkpt lat="-27.3679132" lon="152.7969956">
<ele>154.253</ele>
<time>2015-12-31T09:53:32.744Z</time>
</trkpt>
<trkpt lat="-27.3682481" lon="152.7971527">
<ele>155.300</ele>
<time>2015-12-31T09:53:34.980Z</time>
</trkpt>
<trkpt lat="-27.3685135" lon="152.7973278">
<ele>157.044</ele>
<time>2015-12-31T09:53:36.918Z</time>
</trkpt>
<trkpt lat="-27.3688698" lon="152.7976711">
<ele>158.389</ele>
<time>2015-12-31T09:53:40.039Z</time>
</trkpt>
<trkpt lat="-27.3690463" lon="152.7979861">
<ele>158.668</ele>
<time>2015-12-31T09:53:42.398Z</time>
</trkpt>
<trkpt lat="-27.3691983" lon="152.7984407">
<ele>158.196</ele>
<time>2015-12-31T09:53:45.572Z</time>
</trkpt>
<trkpt lat="-27.3691527" lon="152.7989052">
<ele>157.139</ele>
<time>2015-12-31T09:53:48.376Z</time>
</trkpt>
<trkpt lat="-27.3690233" lon="152.7993435">
<ele>155.470</ele>
<time>2015-12-31T09:53:50.830Z</time>
</trkpt>
<trkpt lat="-27.3690111" lon="152.7996655">
<ele>153.959</ele>
<time>2015-12-31T09:53:52.504Z</time>
</trkpt>
<trkpt lat="-27.3690706" lon="152.8000439">
<ele>153.486</ele>
<time>2015-12-31T09:53:54.505Z</time>
</trkpt>
<trkpt lat="-27.3691424" lon="152.8004375">
<ele>153.817</ele>
<time>2015-12-31T09:53:56.617Z</time>
</trkpt>
<trkpt lat="-27.3693095" lon="152.8009695">
<ele>154.223</ele>
<time>2015-12-31T09:53:59.470Z</time>
</trkpt>
<trkpt lat="-27.3695867" lon="152.8014488">
<ele>153.796</ele>
<time>2015-12-31T09:54:02.036Z</time>
</trkpt>
<trkpt lat="-27.3698445" lon="152.8017181">
<ele>151.770</ele>
<time>2015-12-31T09:54:03.740Z</time>
</trkpt>
<trkpt lat="-27.3702033" lon="152.8019690">
<ele>148.839</ele>
<time>2015-12-31T09:54:05.898Z</time>
</trkpt>
<trkpt lat="-27.3707720" lon="152.8022635">
<ele>146.626</ele>
<time>2015-12-31T09:54:09.257Z</time>
</trkpt>
<trkpt lat="-27.3712896" lon="152.8024047">
<ele>146.119</ele>
<time>2015-12-31T09:54:12.004Z</time>
</trkpt>
<trkpt lat="-27.3716393" lon="152.8023775">
<ele>147.247</ele>
<time>2015-12-31T09:54:13.733Z</time>
</trkpt>
<trkpt lat="-27.3720276" lon="152.8022877">
<ele>149.043</ele>
<time>2015-12-31T09:54:15.612Z</time>
</trkpt>
<trkpt lat="-27.3724346" lon="152.8021468">
<ele>150.926</ele>
<time>2015-12-31T09:54:17.595Z</time>
</trkpt>
<trkpt lat="-27.3730338" lon="152.8021156">
<ele>153.684</ele>
<time>2015-12-31T09:54:20.451Z</time>
</trkpt>
<trkpt lat="-27.3734723" lon="152.8021480">
<ele>157.388</ele>
<time>2015-12-31T09:54:22.632Z</time>
</trkpt>
<trkpt lat="-27.3740835" lon="152.8022071">
<ele>160.781</ele>
<time>2015-12-31T09:54:25.648Z</time>
</trkpt>
<trkpt lat="-27.3746773" lon="152.8021340">
<ele>163.114</ele>
<time>2015-12-31T09:54:28.506Z</time>
</trkpt>
<trkpt lat="-27.3751049" lon="152.8020246">
<ele>164.528</ele>
<time>2015-12-31T09:54:30.737Z</time>
</trkpt>
<trkpt lat="-27.3755075" lon="152.8019170">
<ele>165.257</ele>
<time>2015-12-31T09:54:32.943Z</time>
</trkpt>
<trkpt lat="-27.3758882" lon="152.8018459">
<ele>165.572</ele>
<time>2015-12-31T09:54:35.044Z</time>
</trkpt>
<trkpt lat="-27.3762639" lon="152.8018490">
<ele>165.045</ele>
<time>2015-12-31T09:54:37.164Z</time>
</trkpt>
<trkpt lat="-27.3767887" lon="152.8020237">
<ele>163.459</ele>
<time>2015-12-31T09:54:40.283Z</time>
</trkpt>
<trkpt lat="-27.3772119" lon="152.8023369">
<ele>161.614</ele>
<time>2015-12-31T09:54:43.054Z</time>
</trkpt>
<trkpt lat="-27.3775505" lon="152.8027807">
<ele>160.213</ele>
<time>2015-12-31T09:54:45.546Z</time>
</trkpt>
<trkpt lat="-27.3777298" lon="152.8031792">
<ele>159.313</ele>
<time>2015-12-31T09:54:47.323Z</time>
</trkpt>
<trkpt lat="-27.3778702" lon="152.8036347">
<ele>159.070</ele>
<time>2015-12-31T09:54:49.144Z</time>
</trkpt>
<trkpt lat="-27.3780047" lon="152.8041276">
<ele>159.534</ele>
<time>2015-12-31T09:54:51.079Z</time>
</trkpt>
<trkpt lat="-27.3782443" lon="152.8049013">
<ele>160.360</ele>
<time>2015-12-31T09:54:54.274Z</time>
</trkpt>
<trkpt lat="-27.3783811" lon="152.8054021">
<ele>160.809</ele>
<time>2015-12-31T09:54:56.524Z</time>
</trkpt>
<trkpt lat="-27.3785121" lon="152.8058689">
<ele>159.763</ele>
<time>2015-12-31T09:54:58.747Z</time>
</trkpt>
<trkpt lat="-27.3787039" lon="152.8065002">
<ele>156.821</ele>
<time>2015-12-31T09:55:01.845Z</time>
</trkpt>
<trkpt lat="-27.3788724" lon="152.8071133">
<ele>152.848</ele>
<time>2015-12-31T09:55:04.788Z</time>
</trkpt>
<trkpt lat="-27.3790271" lon="152.8077296">
<ele>148.810</ele>
<time>2015-12-31T09:55:07.636Z</time>
</trkpt>
<trkpt lat="-27.3791581" lon="152.8083720">
<ele>145.134</ele>
<time>2015-12-31T09:55:10.476Z</time>
</trkpt>
<trkpt lat="-27.3792093" lon="152.8088274">
<ele>142.180</ele>
<time>2015-12-31T09:55:12.469Z</time>
</trkpt>
<trkpt lat="-27.3792106" lon="152.8095331">
<ele>140.108</ele>
<time>2015-12-31T09:55:15.628Z</time>
</trkpt>
<trkpt lat="-27.3791644" lon="152.8099756">
<ele>138.403</ele>
<time>2015-12-31T09:55:17.619Z</time>
</trkpt>
<trkpt lat="-27.3790995" lon="152.8104092">
<ele>136.313</ele>
<time>2015-12-31T09:55:19.551Z</time>
</trkpt>
<trkpt lat="-27.3790045" lon="152.8110956">
<ele>133.752</ele>
<time>2015-12-31T09:55:22.577Z</time>
</trkpt>
<trkpt lat="-27.3789332" lon="152.8117655">
<ele>131.058</ele>
<time>2015-12-31T09:55:25.503Z</time>
</trkpt>
<trkpt lat="-27.3788007" lon="152.8121937">
<ele>128.584</ele>
<time>2015-12-31T09:55:27.476Z</time>
</trkpt>
<trkpt lat="-27.3787455" lon="152.8126551">
<ele>126.515</ele>
<time>2015-12-31T09:55:29.509Z</time>
</trkpt>
<trkpt lat="-27.3786684" lon="152.8133461">
<ele>124.639</ele>
<time>2015-12-31T09:55:32.546Z</time>
</trkpt>
<trkpt lat="-27.3786042" lon="152.8137661">
<ele>122.698</ele>
<time>2015-12-31T09:55:34.426Z</time>
</trkpt>
<trkpt lat="-27.3785380" lon="152.8144491">
<ele>120.833</ele>
<time>2015-12-31T09:55:37.509Z</time>
</trkpt>
<trkpt lat="-27.3784864" lon="152.8149047">
<ele>119.456</ele>
<time>2015-12-31T09:55:39.655Z</time>
</trkpt>
<trkpt lat="-27.3784243" lon="152.8155263">
<ele>118.633</ele>
<time>2015-12-31T09:55:42.684Z</time>
</trkpt>
<trkpt lat="-27.3783794" lon="152.8159335">
<ele>117.833</ele>
<time>2015-12-31T09:55:44.594Z</time>
</trkpt>
<trkpt lat="-27.3783166" lon="152.8163362">
<ele>116.584</ele>
<time>2015-12-31T09:55:46.418Z</time>
</trkpt>
<trkpt lat="-27.3782725" lon="152.8167709">
<ele>115.162</ele>
<time>2015-12-31T09:55:48.341Z</time>
</trkpt>
<trkpt lat="-27.3782197" lon="152.8174632">
<ele>114.090</ele>
<time>2015-12-31T09:55:51.377Z</time>
</trkpt>
<trkpt lat="-27.3781631" lon="152.8181462">
<ele>113.415</ele>
<time>2015-12-31T09:55:54.368Z</time>
</trkpt>
<trkpt lat="-27.3780983" lon="152.8188107">
<ele>112.773</ele>
<time>2015-12-31T09:55:57.273Z</time>
</trkpt>
<trkpt lat="-27.3780372" lon="152.8192644">
<ele>111.595</ele>
<time>2015-12-31T09:55:59.293Z</time>
</trkpt>
<trkpt lat="-27.3779345" lon="152.8197106">
<ele>109.841</ele>
<time>2015-12-31T09:56:01.314Z</time>
</trkpt>
<trkpt lat="-27.3777325" lon="152.8203384">
<ele>108.081</ele>
<time>2015-12-31T09:56:04.211Z</time>
</trkpt>
<trkpt lat="-27.3775559" lon="152.8207932">
<ele>106.735</ele>
<time>2015-12-31T09:56:06.422Z</time>
</trkpt>
<trkpt lat="-27.3774093" lon="152.8212386">
<ele>105.980</ele>
<time>2015-12-31T09:56:08.597Z</time>
</trkpt>
<trkpt lat="-27.3773199" lon="152.8218655">
<ele>105.556</ele>
<time>2015-12-31T09:56:11.553Z</time>
</trkpt>
<trkpt lat="-27.3772932" lon="152.8223039">
<ele>104.639</ele>
<time>2015-12-31T09:56:13.601Z</time>
</trkpt>
<trkpt lat="-27.3773727" lon="152.8229420">
<ele>102.942</ele>
<time>2015-12-31T09:56:16.545Z</time>
</trkpt>
<trkpt lat="-27.3774886" lon="152.8233533">
<ele>100.857</ele>
<time>2015-12-31T09:56:18.486Z</time>
</trkpt>
<trkpt lat="-27.3777622" lon="152.8239531">
<ele>98.955</ele>
<time>2015-12-31T09:56:21.530Z</time>
</trkpt>
<trkpt lat="-27.3779610" lon="152.8243311">
<ele>97.996</ele>
<time>2015-12-31T09:56:23.546Z</time>
</trkpt>
<trkpt lat="-27.3781831" lon="152.8246973">
<ele>98.295</ele>
<time>2015-12-31T09:56:25.609Z</time>
</trkpt>
<trkpt lat="-27.3784940" lon="152.8252223">
<ele>99.211</ele>
<time>2015-12-31T09:56:28.525Z</time>
</trkpt>
<trkpt lat="-27.3786769" lon="152.8255953">
<ele>100.002</ele>
<time>2015-12-31T09:56:30.449Z</time>
</trkpt>
<trkpt lat="-27.3788060" lon="152.8259875">
<ele>100.398</ele>
<time>2015-12-31T09:56:32.322Z</time>
</trkpt>
<trkpt lat="-27.3789645" lon="152.8266645">
<ele>100.470</ele>
<time>2015-12-31T09:56:35.426Z</time>
</trkpt>
<trkpt lat="-27.3790379" lon="152.8271068">
<ele>100.415</ele>
<time>2015-12-31T09:56:37.392Z</time>
</trkpt>
<trkpt lat="-27.3791754" lon="152.8277996">
<ele>100.284</ele>
<time>2015-12-31T09:56:40.531Z</time>
</trkpt>
<trkpt lat="-27.3792557" lon="152.8282417">
<ele>99.796</ele>
<time>2015-12-31T09:56:42.550Z</time>
</trkpt>
<trkpt lat="-27.3793055" lon="152.8288925">
<ele>98.737</ele>
<time>2015-12-31T09:56:45.442Z</time>
</trkpt>
<trkpt lat="-27.3792928" lon="152.8293374">
<ele>97.217</ele>
<time>2015-12-31T09:56:47.382Z</time>
</trkpt>
<trkpt lat="-27.3792393" lon="152.8297844">
<ele>95.549</ele>
<time>2015-12-31T09:56:49.326Z</time>
</trkpt>
<trkpt lat="-27.3790654" lon="152.8302218">
<ele>94.205</ele>
<time>2015-12-31T09:56:51.375Z</time>
</trkpt>
<trkpt lat="-27.3787367" lon="152.8308224">
<ele>93.549</ele>
<time>2015-12-31T09:56:54.349Z</time>
</trkpt>
<trkpt lat="-27.3784639" lon="152.8311858">
<ele>93.424</ele>
<time>2015-12-31T09:56:56.359Z</time>
</trkpt>
<trkpt lat="-27.3781752" lon="152.8315326">
<ele>93.525</ele>
<time>2015-12-31T09:56:58.452Z</time>
</trkpt>
<trkpt lat="-27.3777305" lon="152.8320073">
<ele>93.642</ele>
<time>2015-12-31T09:57:01.622Z</time>
</trkpt>
<trkpt lat="-27.3773480" lon="152.8324688">
<ele>93.389</ele>
<time>2015-12-31T09:57:04.603Z</time>
</trkpt>
<trkpt lat="-27.3772091" lon="152.8328364">
<ele>92.405</ele>
<time>2015-12-31T09:57:06.495Z</time>
</trkpt>
<trkpt lat="-27.3770246" lon="152.8334499">
<ele>90.972</ele>
<time>2015-12-31T09:57:09.537Z</time>
</trkpt>
<trkpt lat="-27.3769725" lon="152.8338545">
<ele>89.781</ele>
<time>2015-12-31T09:57:11.439Z</time>
</trkpt>
<trkpt lat="-27.3769705" lon="152.8342839">
<ele>89.208</ele>
<time>2015-12-31T09:57:13.447Z</time>
</trkpt>
<trkpt lat="-27.3769516" lon="152.8347134">
<ele>89.332</ele>
<time>2015-12-31T09:57:15.507Z</time>
</trkpt>
<trkpt lat="-27.3769272" lon="152.8351380">
<ele>90.107</ele>
<time>2015-12-31T09:57:17.573Z</time>
</trkpt>
<trkpt lat="-27.3768774" lon="152.8357365">
<ele>91.302</ele>
<time>2015-12-31T09:57:20.412Z</time>
</trkpt>
<trkpt lat="-27.3768065" lon="152.8361428">
<ele>92.470</ele>
<time>2015-12-31T09:57:22.275Z</time>
</trkpt>
<trkpt lat="-27.3766152" lon="152.8367683">
<ele>93.402</ele>
<time>2015-12-31T09:57:25.176Z</time>
</trkpt>
<trkpt lat="-27.3762957" lon="152.8373725">
<ele>94.136</ele>
<time>2015-12-31T09:57:28.261Z</time>
</trkpt>
<trkpt lat="-27.3759849" lon="152.8379591">
<ele>94.437</ele>
<time>2015-12-31T09:57:31.283Z</time>
</trkpt>
<trkpt lat="-27.3757885" lon="152.8383401">
<ele>93.941</ele>
<time>2015-12-31T09:57:33.207Z</time>
</trkpt>
<trkpt lat="-27.3756052" lon="152.8387378">
<ele>92.974</ele>
<time>2015-12-31T09:57:35.199Z</time>
</trkpt>
<trkpt lat="-27.3754135" lon="152.8391391">
<ele>92.105</ele>
<time>2015-12-31T09:57:37.264Z</time>
</trkpt>
<trkpt lat="-27.3751523" lon="152.8397213">
<ele>91.152</ele>
<time>2015-12-31T09:57:40.239Z</time>
</trkpt>
<trkpt lat="-27.3750389" lon="152.8401280">
<ele>89.207</ele>
<time>2015-12-31T09:57:42.150Z</time>
</trkpt>
<trkpt lat="-27.3750349" lon="152.8408070">
<ele>86.103</ele>
<time>2015-12-31T09:57:45.177Z</time>
</trkpt>
<trkpt lat="-27.3751017" lon="152.8412655">
<ele>83.045</ele>
<time>2015-12-31T09:57:47.255Z</time>
</trkpt>
<trkpt lat="-27.3751539" lon="152.8416922">
<ele>80.956</ele>
<time>2015-12-31T09:57:49.154Z</time>
</trkpt>
<trkpt lat="-27.3751197" lon="152.8423513">
<ele>79.280</ele>
<time>2015-12-31T09:57:51.977Z</time>
</trkpt>
<trkpt lat="-27.3750399" lon="152.8427959">
<ele>77.418</ele>
<time>2015-12-31T09:57:53.904Z</time>
</trkpt>
<trkpt lat="-27.3748858" lon="152.8432392">
<ele>75.740</ele>
<time>2015-12-31T09:57:55.947Z</time>
</trkpt>
<trkpt lat="-27.3746916" lon="152.8438953">
<ele>74.663</ele>
<time>2015-12-31T09:57:59.006Z</time>
</trkpt>
<trkpt lat="-27.3745671" lon="152.8443368">
<ele>73.764</ele>
<time>2015-12-31T09:58:01.084Z</time>
</trkpt>
<trkpt lat="-27.3744222" lon="152.8449600">
<ele>72.616</ele>
<time>2015-12-31T09:58:03.967Z</time>
</trkpt>
<trkpt lat="-27.3743497" lon="152.8456278">
<ele>71.407</ele>
<time>2015-12-31T09:58:06.927Z</time>
</trkpt>
<trkpt lat="-27.3742926" lon="152.8460731">
<ele>70.413</ele>
<time>2015-12-31T09:58:08.973Z</time>
</trkpt>
<trkpt lat="-27.3742223" lon="152.8465244">
<ele>69.489</ele>
<time>2015-12-31T09:58:11.183Z</time>
</trkpt>
<trkpt lat="-27.3741645" lon="152.8469366">
<ele>68.494</ele>
<time>2015-12-31T09:58:13.208Z</time>
</trkpt>
<trkpt lat="-27.3740673" lon="152.8473172">
<ele>67.531</ele>
<time>2015-12-31T09:58:15.064Z</time>
</trkpt>
<trkpt lat="-27.3737470" lon="152.8478551">
<ele>66.818</ele>
<time>2015-12-31T09:58:17.980Z</time>
</trkpt>
<trkpt lat="-27.3732782" lon="152.8482610">
<ele>66.887</ele>
<time>2015-12-31T09:58:20.895Z</time>
</trkpt>
<trkpt lat="-27.3729391" lon="152.8485038">
<ele>68.114</ele>
<time>2015-12-31T09:58:22.891Z</time>
</trkpt>
<trkpt lat="-27.3724542" lon="152.8489128">
<ele>69.740</ele>
<time>2015-12-31T09:58:25.967Z</time>
</trkpt>
<trkpt lat="-27.3720929" lon="152.8494239">
<ele>70.320</ele>
<time>2015-12-31T09:58:29.014Z</time>
</trkpt>
<trkpt lat="-27.3719520" lon="152.8498272">
<ele>69.264</ele>
<time>2015-12-31T09:58:31.071Z</time>
</trkpt>
<trkpt lat="-27.3718368" lon="152.8504562">
<ele>67.473</ele>
<time>2015-12-31T09:58:34.127Z</time>
</trkpt>
<trkpt lat="-27.3717664" lon="152.8510623">
<ele>66.217</ele>
<time>2015-12-31T09:58:36.971Z</time>
</trkpt>
<trkpt lat="-27.3716547" lon="152.8514716">
<ele>65.618</ele>
<time>2015-12-31T09:58:38.908Z</time>
</trkpt>
<trkpt lat="-27.3714517" lon="152.8518664">
<ele>65.143</ele>
<time>2015-12-31T09:58:40.999Z</time>
</trkpt>
<trkpt lat="-27.3712224" lon="152.8522202">
<ele>64.605</ele>
<time>2015-12-31T09:58:43.015Z</time>
</trkpt>
<trkpt lat="-27.3709350" lon="152.8527327">
<ele>64.062</ele>
<time>2015-12-31T09:58:45.817Z</time>
</trkpt>
<trkpt lat="-27.3706316" lon="152.8532863">
<ele>63.533</ele>
<time>2015-12-31T09:58:48.811Z</time>
</trkpt>
<trkpt lat="-27.3704593" lon="152.8536679">
<ele>63.147</ele>
<time>2015-12-31T09:58:50.759Z</time>
</trkpt>
<trkpt lat="-27.3703121" lon="152.8540894">
<ele>63.124</ele>
<time>2015-12-31T09:58:52.791Z</time>
</trkpt>
<trkpt lat="-27.3701273" lon="152.8547224">
<ele>63.456</ele>
<time>2015-12-31T09:58:55.769Z</time>
</trkpt>
<trkpt lat="-27.3699357" lon="152.8553347">
<ele>63.628</ele>
<time>2015-12-31T09:58:58.666Z</time>
</trkpt>
<trkpt lat="-27.3697554" lon="152.8559682">
<ele>63.228</ele>
<time>2015-12-31T09:59:01.628Z</time>
</trkpt>
<trkpt lat="-27.3696148" lon="152.8563828">
<ele>62.567</ele>
<time>2015-12-31T09:59:03.640Z</time>
</trkpt>
<trkpt lat="-27.3694911" lon="152.8568089">
<ele>62.100</ele>
<time>2015-12-31T09:59:05.720Z</time>
</trkpt>
<trkpt lat="-27.3693229" lon="152.8574321">
<ele>62.002</ele>
<time>2015-12-31T09:59:08.865Z</time>
</trkpt>
<trkpt lat="-27.3692387" lon="152.8580273">
<ele>62.227</ele>
<time>2015-12-31T09:59:11.763Z</time>
</trkpt>
<trkpt lat="-27.3692639" lon="152.8586541">
<ele>61.956</ele>
<time>2015-12-31T09:59:14.675Z</time>
</trkpt>
<trkpt lat="-27.3694685" lon="152.8592808">
<ele>60.657</ele>
<time>2015-12-31T09:59:17.695Z</time>
</trkpt>
<trkpt lat="-27.3696546" lon="152.8596645">
<ele>59.329</ele>
<time>2015-12-31T09:59:19.696Z</time>
</trkpt>
<trkpt lat="-27.3699239" lon="152.8602439">
<ele>59.122</ele>
<time>2015-12-31T09:59:22.756Z</time>
</trkpt>
<trkpt lat="-27.3700996" lon="152.8606086">
<ele>59.818</ele>
<time>2015-12-31T09:59:24.672Z</time>
</trkpt>
<trkpt lat="-27.3703954" lon="152.8611562">
<ele>60.635</ele>
<time>2015-12-31T09:59:27.552Z</time>
</trkpt>
<trkpt lat="-27.3707700" lon="152.8616842">
<ele>61.141</ele>
<time>2015-12-31T09:59:30.531Z</time>
</trkpt>
<trkpt lat="-27.3710383" lon="152.8620263">
<ele>61.695</ele>
<time>2015-12-31T09:59:32.549Z</time>
</trkpt>
<trkpt lat="-27.3713077" lon="152.8623642">
<ele>62.630</ele>
<time>2015-12-31T09:59:34.561Z</time>
</trkpt>
<trkpt lat="-27.3716777" lon="152.8628900">
<ele>63.523</ele>
<time>2015-12-31T09:59:37.535Z</time>
</trkpt>
<trkpt lat="-27.3718684" lon="152.8632850">
<ele>63.830</ele>
<time>2015-12-31T09:59:39.532Z</time>
</trkpt>
<trkpt lat="-27.3720937" lon="152.8639145">
<ele>63.634</ele>
<time>2015-12-31T09:59:42.600Z</time>
</trkpt>
<trkpt lat="-27.3721595" lon="152.8643504">
<ele>63.078</ele>
<time>2015-12-31T09:59:44.617Z</time>
</trkpt>
<trkpt lat="-27.3721969" lon="152.8649788">
<ele>62.143</ele>
<time>2015-12-31T09:59:47.470Z</time>
</trkpt>
<trkpt lat="-27.3722171" lon="152.8654188">
<ele>60.785</ele>
<time>2015-12-31T09:59:49.458Z</time>
</trkpt>
<trkpt lat="-27.3722435" lon="152.8660792">
<ele>59.223</ele>
<time>2015-12-31T09:59:52.444Z</time>
</trkpt>
<trkpt lat="-27.3722473" lon="152.8665120">
<ele>57.710</ele>
<time>2015-12-31T09:59:54.400Z</time>
</trkpt>
<trkpt lat="-27.3722649" lon="152.8669588">
<ele>56.406</ele>
<time>2015-12-31T09:59:56.419Z</time>
</trkpt>
<trkpt lat="-27.3722742" lon="152.8676010">
<ele>55.517</ele>
<time>2015-12-31T09:59:59.296Z</time>
</trkpt>
<trkpt lat="-27.3722970" lon="152.8682771">
<ele>55.363</ele>
<time>2015-12-31T10:00:02.261Z</time>
</trkpt>
<trkpt lat="-27.3723390" lon="152.8687285">
<ele>56.003</ele>
<time>2015-12-31T10:00:04.231Z</time>
</trkpt>
<trkpt lat="-27.3724097" lon="152.8691869">
<ele>57.000</ele>
<time>2015-12-31T10:00:06.259Z</time>
</trkpt>
<trkpt lat="-27.3725918" lon="152.8698594">
<ele>57.710</ele>
<time>2015-12-31T10:00:09.441Z</time>
</trkpt>
<trkpt lat="-27.3727910" lon="152.8704671">
<ele>57.845</ele>
<time>2015-12-31T10:00:12.701Z</time>
</trkpt>
<trkpt lat="-27.3729320" lon="152.8708109">
<ele>57.437</ele>
<time>2015-12-31T10:00:14.717Z</time>
</trkpt>
<trkpt lat="-27.3732264" lon="152.8712612">
<ele>56.771</ele>
<time>2015-12-31T10:00:17.873Z</time>
</trkpt>
<trkpt lat="-27.3734504" lon="152.8715098">
<ele>56.252</ele>
<time>2015-12-31T10:00:19.933Z</time>
</trkpt>
<trkpt lat="-27.3736836" lon="152.8717126">
<ele>55.972</ele>
<time>2015-12-31T10:00:21.832Z</time>
</trkpt>
<trkpt lat="-27.3740878" lon="152.8719705">
<ele>55.581</ele>
<time>2015-12-31T10:00:24.757Z</time>
</trkpt>
<trkpt lat="-27.3745302" lon="152.8722116">
<ele>54.919</ele>
<time>2015-12-31T10:00:27.857Z</time>
</trkpt>
<trkpt lat="-27.3749685" lon="152.8724623">
<ele>54.214</ele>
<time>2015-12-31T10:00:31.089Z</time>
</trkpt>
<trkpt lat="-27.3753473" lon="152.8727164">
<ele>53.594</ele>
<time>2015-12-31T10:00:34.080Z</time>
</trkpt>
<trkpt lat="-27.3755803" lon="152.8729178">
<ele>53.068</ele>
<time>2015-12-31T10:00:36.071Z</time>
</trkpt>
<trkpt lat="-27.3758819" lon="152.8732678">
<ele>52.785</ele>
<time>2015-12-31T10:00:38.998Z</time>
</trkpt>
<trkpt lat="-27.3761329" lon="152.8736714">
<ele>53.009</ele>
<time>2015-12-31T10:00:41.980Z</time>
</trkpt>
<trkpt lat="-27.3762660" lon="152.8739732">
<ele>54.199</ele>
<time>2015-12-31T10:00:44.027Z</time>
</trkpt>
<trkpt lat="-27.3763770" lon="152.8742804">
<ele>56.326</ele>
<time>2015-12-31T10:00:46.030Z</time>
</trkpt>
<trkpt lat="-27.3764466" lon="152.8746036">
<ele>58.669</ele>
<time>2015-12-31T10:00:48.022Z</time>
</trkpt>
<trkpt lat="-27.3764795" lon="152.8749307">
<ele>60.759</ele>
<time>2015-12-31T10:00:49.985Z</time>
</trkpt>
<trkpt lat="-27.3764691" lon="152.8754343">
<ele>62.617</ele>
<time>2015-12-31T10:00:52.956Z</time>
</trkpt>
<trkpt lat="-27.3764349" lon="152.8757769">
<ele>64.482</ele>
<time>2015-12-31T10:00:54.960Z</time>
</trkpt>
<trkpt lat="-27.3762951" lon="152.8762450">
<ele>66.387</ele>
<time>2015-12-31T10:00:57.772Z</time>
</trkpt>
<trkpt lat="-27.3760824" lon="152.8767270">
<ele>67.864</ele>
<time>2015-12-31T10:01:00.726Z</time>
</trkpt>
<trkpt lat="-27.3758903" lon="152.8770250">
<ele>68.572</ele>
<time>2015-12-31T10:01:02.748Z</time>
</trkpt>
<trkpt lat="-27.3756058" lon="152.8774660">
<ele>68.560</ele>
<time>2015-12-31T10:01:05.818Z</time>
</trkpt>
<trkpt lat="-27.3753159" lon="152.8778721">
<ele>67.502</ele>
<time>2015-12-31T10:01:08.831Z</time>
</trkpt>
<trkpt lat="-27.3750420" lon="152.8782868">
<ele>65.136</ele>
<time>2015-12-31T10:01:11.827Z</time>
</trkpt>
<trkpt lat="-27.3748456" lon="152.8785555">
<ele>62.382</ele>
<time>2015-12-31T10:01:13.837Z</time>
</trkpt>
<trkpt lat="-27.3745812" lon="152.8789673">
<ele>60.596</ele>
<time>2015-12-31T10:01:16.738Z</time>
</trkpt>
<trkpt lat="-27.3744010" lon="152.8792296">
<ele>60.062</ele>
<time>2015-12-31T10:01:18.627Z</time>
</trkpt>
<trkpt lat="-27.3740997" lon="152.8796440">
<ele>60.233</ele>
<time>2015-12-31T10:01:21.688Z</time>
</trkpt>
<trkpt lat="-27.3739168" lon="152.8799167">
<ele>60.574</ele>
<time>2015-12-31T10:01:23.635Z</time>
</trkpt>
<trkpt lat="-27.3737364" lon="152.8801947">
<ele>60.597</ele>
<time>2015-12-31T10:01:25.597Z</time>
</trkpt>
<trkpt lat="-27.3735360" lon="152.8804768">
<ele>59.903</ele>
<time>2015-12-31T10:01:27.640Z</time>
</trkpt>
<trkpt lat="-27.3733478" lon="152.8807534">
<ele>58.478</ele>
<time>2015-12-31T10:01:29.599Z</time>
</trkpt>
<trkpt lat="-27.3731073" lon="152.8812105">
<ele>56.725</ele>
<time>2015-12-31T10:01:32.607Z</time>
</trkpt>
<trkpt lat="-27.3729850" lon="152.8815374">
<ele>55.084</ele>
<time>2015-12-31T10:01:34.662Z</time>
</trkpt>
<trkpt lat="-27.3729239" lon="152.8820432">
<ele>53.857</ele>
<time>2015-12-31T10:01:37.682Z</time>
</trkpt>
<trkpt lat="-27.3729657" lon="152.8825510">
<ele>53.199</ele>
<time>2015-12-31T10:01:40.690Z</time>
</trkpt>
<trkpt lat="-27.3730513" lon="152.8830549">
<ele>53.149</ele>
<time>2015-12-31T10:01:43.734Z</time>
</trkpt>
<trkpt lat="-27.3731005" lon="152.8833777">
<ele>53.766</ele>
<time>2015-12-31T10:01:45.722Z</time>
</trkpt>
<trkpt lat="-27.3731469" lon="152.8837045">
<ele>54.906</ele>
<time>2015-12-31T10:01:47.784Z</time>
</trkpt>
<trkpt lat="-27.3731914" lon="152.8840194">
<ele>55.905</ele>
<time>2015-12-31T10:01:49.808Z</time>
</trkpt>
<trkpt lat="-27.3732250" lon="152.8843355">
<ele>56.152</ele>
<time>2015-12-31T10:01:51.875Z</time>
</trkpt>
<trkpt lat="-27.3732830" lon="152.8847999">
<ele>55.729</ele>
<time>2015-12-31T10:01:55.079Z</time>
</trkpt>
<trkpt lat="-27.3733321" lon="152.8852182">
<ele>54.966</ele>
<time>2015-12-31T10:01:58.126Z</time>
</trkpt>
<trkpt lat="-27.3733921" lon="152.8856222">
<ele>53.916</ele>
<time>2015-12-31T10:02:01.249Z</time>
</trkpt>
<trkpt lat="-27.3734319" lon="152.8858900">
<ele>52.647</ele>
<time>2015-12-31T10:02:03.830Z</time>
</trkpt>
<trkpt lat="-27.3734694" lon="152.8861243">
<ele>51.565</ele>
<time>2015-12-31T10:02:06.970Z</time>
</trkpt>
<trkpt lat="-27.3734932" lon="152.8863623">
<ele>50.990</ele>
<time>2015-12-31T10:02:09.890Z</time>
</trkpt>
<trkpt lat="-27.3734710" lon="152.8864912">
<ele>50.705</ele>
<time>2015-12-31T10:02:11.190Z</time>
</trkpt>
<trkpt lat="-27.3732784" lon="152.8865982">
<ele>50.355</ele>
<time>2015-12-31T10:02:13.236Z</time>
</trkpt>
<trkpt lat="-27.3729646" lon="152.8866648">
<ele>50.113</ele>
<time>2015-12-31T10:02:15.949Z</time>
</trkpt>
<trkpt lat="-27.3726042" lon="152.8867238">
<ele>50.378</ele>
<time>2015-12-31T10:02:18.888Z</time>
</trkpt>
<trkpt lat="-27.3723590" lon="152.8867700">
<ele>51.117</ele>
<time>2015-12-31T10:02:20.865Z</time>
</trkpt>
<trkpt lat="-27.3721118" lon="152.8868119">
<ele>51.903</ele>
<time>2015-12-31T10:02:22.855Z</time>
</trkpt>
<trkpt lat="-27.3717373" lon="152.8868772">
<ele>52.342</ele>
<time>2015-12-31T10:02:25.892Z</time>
</trkpt>
<trkpt lat="-27.3713674" lon="152.8869477">
<ele>52.336</ele>
<time>2015-12-31T10:02:28.937Z</time>
</trkpt>
<trkpt lat="-27.3711241" lon="152.8869912">
<ele>52.036</ele>
<time>2015-12-31T10:02:30.931Z</time>
</trkpt>
<trkpt lat="-27.3707561" lon="152.8870519">
<ele>51.637</ele>
<time>2015-12-31T10:02:33.937Z</time>
</trkpt>
<trkpt lat="-27.3705077" lon="152.8870930">
<ele>51.274</ele>
<time>2015-12-31T10:02:35.985Z</time>
</trkpt>
<trkpt lat="-27.3701557" lon="152.8871758">
<ele>50.886</ele>
<time>2015-12-31T10:02:38.926Z</time>
</trkpt>
<trkpt lat="-27.3699129" lon="152.8872113">
<ele>50.406</ele>
<time>2015-12-31T10:02:40.870Z</time>
</trkpt>
<trkpt lat="-27.3695570" lon="152.8872743">
<ele>49.839</ele>
<time>2015-12-31T10:02:43.522Z</time>
</trkpt>
<trkpt lat="-27.3692824" lon="152.8873314">
<ele>49.244</ele>
<time>2015-12-31T10:02:45.450Z</time>
</trkpt>
<trkpt lat="-27.3690011" lon="152.8874104">
<ele>48.771</ele>
<time>2015-12-31T10:02:47.397Z</time>
</trkpt>
<trkpt lat="-27.3687197" lon="152.8875190">
<ele>48.864</ele>
<time>2015-12-31T10:02:49.377Z</time>
</trkpt>
<trkpt lat="-27.3683147" lon="152.8877665">
<ele>49.619</ele>
<time>2015-12-31T10:02:52.421Z</time>
</trkpt>
<trkpt lat="-27.3679446" lon="152.8880423">
<ele>50.465</ele>
<time>2015-12-31T10:02:55.362Z</time>
</trkpt>
<trkpt lat="-27.3675642" lon="152.8883096">
<ele>50.878</ele>
<time>2015-12-31T10:02:58.377Z</time>
</trkpt>
<trkpt lat="-27.3672769" lon="152.8883827">
<ele>50.863</ele>
<time>2015-12-31T10:03:00.346Z</time>
</trkpt>
<trkpt lat="-27.3668160" lon="152.8883727">
<ele>50.535</ele>
<time>2015-12-31T10:03:03.250Z</time>
</trkpt>
<trkpt lat="-27.3665101" lon="152.8883605">
<ele>50.070</ele>
<time>2015-12-31T10:03:05.099Z</time>
</trkpt>
<trkpt lat="-27.3659915" lon="152.8883448">
<ele>49.687</ele>
<time>2015-12-31T10:03:08.135Z</time>
</trkpt>
<trkpt lat="-27.3656505" lon="152.8883205">
<ele>49.788</ele>
<time>2015-12-31T10:03:10.120Z</time>
</trkpt>
<trkpt lat="-27.3651249" lon="152.8882848">
<ele>50.515</ele>
<time>2015-12-31T10:03:13.129Z</time>
</trkpt>
<trkpt lat="-27.3646063" lon="152.8882380">
<ele>51.329</ele>
<time>2015-12-31T10:03:16.144Z</time>
</trkpt>
<trkpt lat="-27.3642665" lon="152.8882088">
<ele>51.741</ele>
<time>2015-12-31T10:03:18.135Z</time>
</trkpt>
<trkpt lat="-27.3637482" lon="152.8881801">
<ele>51.967</ele>
<time>2015-12-31T10:03:21.250Z</time>
</trkpt>
<trkpt lat="-27.3634148" lon="152.8881716">
<ele>52.355</ele>
<time>2015-12-31T10:03:23.365Z</time>
</trkpt>
<trkpt lat="-27.3630969" lon="152.8881599">
<ele>53.077</ele>
<time>2015-12-31T10:03:25.448Z</time>
</trkpt>
<trkpt lat="-27.3626538" lon="152.8881197">
<ele>54.207</ele>
<time>2015-12-31T10:03:28.446Z</time>
</trkpt>
<trkpt lat="-27.3623587" lon="152.8880561">
<ele>55.460</ele>
<time>2015-12-31T10:03:30.364Z</time>
</trkpt>
<trkpt lat="-27.3619343" lon="152.8878111">
<ele>56.258</ele>
<time>2015-12-31T10:03:33.197Z</time>
</trkpt>
<trkpt lat="-27.3616598" lon="152.8875913">
<ele>56.245</ele>
<time>2015-12-31T10:03:35.138Z</time>
</trkpt>
<trkpt lat="-27.3613728" lon="152.8873539">
<ele>55.375</ele>
<time>2015-12-31T10:03:37.176Z</time>
</trkpt>
<trkpt lat="-27.3610995" lon="152.8871257">
<ele>54.035</ele>
<time>2015-12-31T10:03:39.123Z</time>
</trkpt>
<trkpt lat="-27.3606492" lon="152.8868071">
<ele>52.737</ele>
<time>2015-12-31T10:03:42.172Z</time>
</trkpt>
<trkpt lat="-27.3602249" lon="152.8864769">
<ele>51.497</ele>
<time>2015-12-31T10:03:45.111Z</time>
</trkpt>
<trkpt lat="-27.3599483" lon="152.8862515">
<ele>50.150</ele>
<time>2015-12-31T10:03:47.041Z</time>
</trkpt>
<trkpt lat="-27.3596623" lon="152.8860185">
<ele>48.800</ele>
<time>2015-12-31T10:03:49.032Z</time>
</trkpt>
<trkpt lat="-27.3592308" lon="152.8856805">
<ele>47.729</ele>
<time>2015-12-31T10:03:51.985Z</time>
</trkpt>
<trkpt lat="-27.3588044" lon="152.8853229">
<ele>47.246</ele>
<time>2015-12-31T10:03:54.971Z</time>
</trkpt>
<trkpt lat="-27.3585260" lon="152.8850855">
<ele>47.456</ele>
<time>2015-12-31T10:03:56.932Z</time>
</trkpt>
<trkpt lat="-27.3580974" lon="152.8847329">
<ele>48.044</ele>
<time>2015-12-31T10:03:59.934Z</time>
</trkpt>
<trkpt lat="-27.3576844" lon="152.8843915">
<ele>48.463</ele>
<time>2015-12-31T10:04:02.855Z</time>
</trkpt>
<trkpt lat="-27.3574038" lon="152.8841637">
<ele>48.328</ele>
<time>2015-12-31T10:04:04.827Z</time>
</trkpt>
<trkpt lat="-27.3571227" lon="152.8839311">
<ele>47.675</ele>
<time>2015-12-31T10:04:06.814Z</time>
</trkpt>
<trkpt lat="-27.3568406" lon="152.8837038">
<ele>46.740</ele>
<time>2015-12-31T10:04:08.783Z</time>
</trkpt>
<trkpt lat="-27.3564063" lon="152.8833499">
<ele>45.810</ele>
<time>2015-12-31T10:04:11.819Z</time>
</trkpt>
<trkpt lat="-27.3561490" lon="152.8830714">
<ele>45.151</ele>
<time>2015-12-31T10:04:13.856Z</time>
</trkpt>
<trkpt lat="-27.3559134" lon="152.8827876">
<ele>44.743</ele>
<time>2015-12-31T10:04:15.836Z</time>
</trkpt>
<trkpt lat="-27.3555484" lon="152.8823686">
<ele>44.395</ele>
<time>2015-12-31T10:04:18.804Z</time>
</trkpt>
<trkpt lat="-27.3553141" lon="152.8820898">
<ele>44.078</ele>
<time>2015-12-31T10:04:20.751Z</time>
</trkpt>
<trkpt lat="-27.3549339" lon="152.8817188">
<ele>43.841</ele>
<time>2015-12-31T10:04:23.641Z</time>
</trkpt>
<trkpt lat="-27.3546425" lon="152.8815101">
<ele>43.946</ele>
<time>2015-12-31T10:04:25.590Z</time>
</trkpt>
<trkpt lat="-27.3543196" lon="152.8813367">
<ele>44.543</ele>
<time>2015-12-31T10:04:27.582Z</time>
</trkpt>
<trkpt lat="-27.3538058" lon="152.8811425">
<ele>45.231</ele>
<time>2015-12-31T10:04:30.613Z</time>
</trkpt>
<trkpt lat="-27.3534526" lon="152.8810625">
<ele>45.590</ele>
<time>2015-12-31T10:04:32.649Z</time>
</trkpt>
<trkpt lat="-27.3529131" lon="152.8810208">
<ele>45.654</ele>
<time>2015-12-31T10:04:35.724Z</time>
</trkpt>
<trkpt lat="-27.3523964" lon="152.8810871">
<ele>45.678</ele>
<time>2015-12-31T10:04:38.707Z</time>
</trkpt>
<trkpt lat="-27.3520566" lon="152.8811779">
<ele>46.118</ele>
<time>2015-12-31T10:04:40.727Z</time>
</trkpt>
<trkpt lat="-27.3515715" lon="152.8813691">
<ele>47.217</ele>
<time>2015-12-31T10:04:43.775Z</time>
</trkpt>
<trkpt lat="-27.3511055" lon="152.8815663">
<ele>49.030</ele>
<time>2015-12-31T10:04:46.922Z</time>
</trkpt>
<trkpt lat="-27.3506801" lon="152.8817486">
<ele>51.602</ele>
<time>2015-12-31T10:04:49.949Z</time>
</trkpt>
<trkpt lat="-27.3502652" lon="152.8819212">
<ele>54.694</ele>
<time>2015-12-31T10:04:53.207Z</time>
</trkpt>
<trkpt lat="-27.3499936" lon="152.8820214">
<ele>58.076</ele>
<time>2015-12-31T10:04:55.766Z</time>
</trkpt>
<trkpt lat="-27.3496774" lon="152.8820609">
<ele>61.371</ele>
<time>2015-12-31T10:05:00.175Z</time>
</trkpt>
<trkpt lat="-27.3495314" lon="152.8820557">
<ele>63.667</ele>
<time>2015-12-31T10:05:02.495Z</time>
</trkpt>
<trkpt lat="-27.3494094" lon="152.8821394">
<ele>64.614</ele>
<time>2015-12-31T10:05:04.218Z</time>
</trkpt>
<trkpt lat="-27.3494206" lon="152.8823781">
<ele>64.806</ele>
<time>2015-12-31T10:05:06.431Z</time>
</trkpt>
<trkpt lat="-27.3496003" lon="152.8826831">
<ele>65.236</ele>
<time>2015-12-31T10:05:09.065Z</time>
</trkpt>
<trkpt lat="-27.3497154" lon="152.8829177">
<ele>66.959</ele>
<time>2015-12-31T10:05:10.742Z</time>
</trkpt>
<trkpt lat="-27.3498000" lon="152.8832313">
<ele>70.162</ele>
<time>2015-12-31T10:05:12.660Z</time>
</trkpt>
<trkpt lat="-27.3498722" lon="152.8837517">
<ele>74.231</ele>
<time>2015-12-31T10:05:15.592Z</time>
</trkpt>
<trkpt lat="-27.3498739" lon="152.8841197">
<ele>78.789</ele>
<time>2015-12-31T10:05:17.637Z</time>
</trkpt>
<trkpt lat="-27.3498361" lon="152.8844641">
<ele>83.327</ele>
<time>2015-12-31T10:05:19.546Z</time>
</trkpt>
<trkpt lat="-27.3497007" lon="152.8849949">
<ele>86.776</ele>
<time>2015-12-31T10:05:22.339Z</time>
</trkpt>
<trkpt lat="-27.3494385" lon="152.8855709">
<ele>88.953</ele>
<time>2015-12-31T10:05:25.303Z</time>
</trkpt>
<trkpt lat="-27.3490890" lon="152.8861534">
<ele>90.713</ele>
<time>2015-12-31T10:05:28.356Z</time>
</trkpt>
<trkpt lat="-27.3488639" lon="152.8865272">
<ele>92.375</ele>
<time>2015-12-31T10:05:30.318Z</time>
</trkpt>
<trkpt lat="-27.3485257" lon="152.8870931">
<ele>93.553</ele>
<time>2015-12-31T10:05:33.299Z</time>
</trkpt>
<trkpt lat="-27.3482823" lon="152.8874533">
<ele>93.650</ele>
<time>2015-12-31T10:05:35.280Z</time>
</trkpt>
<trkpt lat="-27.3478566" lon="152.8879460">
<ele>92.021</ele>
<time>2015-12-31T10:05:38.303Z</time>
</trkpt>
<trkpt lat="-27.3473789" lon="152.8883680">
<ele>88.986</ele>
<time>2015-12-31T10:05:41.328Z</time>
</trkpt>
<trkpt lat="-27.3471060" lon="152.8886943">
<ele>85.981</ele>
<time>2015-12-31T10:05:43.317Z</time>
</trkpt>
<trkpt lat="-27.3467716" lon="152.8892403">
<ele>84.161</ele>
<time>2015-12-31T10:05:46.278Z</time>
</trkpt>
<trkpt lat="-27.3466011" lon="152.8896452">
<ele>83.731</ele>
<time>2015-12-31T10:05:48.312Z</time>
</trkpt>
<trkpt lat="-27.3464417" lon="152.8902734">
<ele>84.380</ele>
<time>2015-12-31T10:05:51.292Z</time>
</trkpt>
<trkpt lat="-27.3463966" lon="152.8907081">
<ele>85.688</ele>
<time>2015-12-31T10:05:53.301Z</time>
</trkpt>
<trkpt lat="-27.3464209" lon="152.8913478">
<ele>87.068</ele>
<time>2015-12-31T10:05:56.255Z</time>
</trkpt>
<trkpt lat="-27.3464920" lon="152.8917817">
<ele>87.894</ele>
<time>2015-12-31T10:05:58.277Z</time>
</trkpt>
<trkpt lat="-27.3466863" lon="152.8924061">
<ele>88.014</ele>
<time>2015-12-31T10:06:01.269Z</time>
</trkpt>
<trkpt lat="-27.3468550" lon="152.8930315">
<ele>87.938</ele>
<time>2015-12-31T10:06:04.231Z</time>
</trkpt>
<trkpt lat="-27.3469112" lon="152.8936855">
<ele>88.636</ele>
<time>2015-12-31T10:06:07.340Z</time>
</trkpt>
<trkpt lat="-27.3469181" lon="152.8940947">
<ele>90.752</ele>
<time>2015-12-31T10:06:09.357Z</time>
</trkpt>
<trkpt lat="-27.3469602" lon="152.8946889">
<ele>93.496</ele>
<time>2015-12-31T10:06:12.232Z</time>
</trkpt>
<trkpt lat="-27.3470794" lon="152.8953179">
<ele>95.520</ele>
<time>2015-12-31T10:06:15.231Z</time>
</trkpt>
<trkpt lat="-27.3472006" lon="152.8957361">
<ele>96.696</ele>
<time>2015-12-31T10:06:17.262Z</time>
</trkpt>
<trkpt lat="-27.3473230" lon="152.8961502">
<ele>97.853</ele>
<time>2015-12-31T10:06:19.319Z</time>
</trkpt>
<trkpt lat="-27.3474413" lon="152.8965445">
<ele>99.428</ele>
<time>2015-12-31T10:06:21.319Z</time>
</trkpt>
<trkpt lat="-27.3476214" lon="152.8971277">
<ele>101.368</ele>
<time>2015-12-31T10:06:24.285Z</time>
</trkpt>
<trkpt lat="-27.3477579" lon="152.8977313">
<ele>103.894</ele>
<time>2015-12-31T10:06:27.209Z</time>
</trkpt>
<trkpt lat="-27.3478194" lon="152.8981538">
<ele>106.813</ele>
<time>2015-12-31T10:06:29.124Z</time>
</trkpt>
<trkpt lat="-27.3478396" lon="152.8986080">
<ele>109.084</ele>
<time>2015-12-31T10:06:31.118Z</time>
</trkpt>
<trkpt lat="-27.3478546" lon="152.8993031">
<ele>110.082</ele>
<time>2015-12-31T10:06:34.180Z</time>
</trkpt>
<trkpt lat="-27.3478741" lon="152.8999805">
<ele>109.839</ele>
<time>2015-12-31T10:06:37.182Z</time>
</trkpt>
<trkpt lat="-27.3479159" lon="152.9004173">
<ele>108.774</ele>
<time>2015-12-31T10:06:39.138Z</time>
</trkpt>
<trkpt lat="-27.3480013" lon="152.9010782">
<ele>107.932</ele>
<time>2015-12-31T10:06:42.084Z</time>
</trkpt>
<trkpt lat="-27.3480905" lon="152.9017544">
<ele>108.605</ele>
<time>2015-12-31T10:06:45.080Z</time>
</trkpt>
<trkpt lat="-27.3481583" lon="152.9024373">
<ele>110.938</ele>
<time>2015-12-31T10:06:48.096Z</time>
</trkpt>
<trkpt lat="-27.3481381" lon="152.9031158">
<ele>113.465</ele>
<time>2015-12-31T10:06:51.072Z</time>
</trkpt>
<trkpt lat="-27.3479792" lon="152.9037675">
<ele>114.742</ele>
<time>2015-12-31T10:06:54.020Z</time>
</trkpt>
<trkpt lat="-27.3476907" lon="152.9043794">
<ele>114.384</ele>
<time>2015-12-31T10:06:57.025Z</time>
</trkpt>
<trkpt lat="-27.3473329" lon="152.9049397">
<ele>112.428</ele>
<time>2015-12-31T10:07:00.043Z</time>
</trkpt>
<trkpt lat="-27.3470056" lon="152.9055027">
<ele>109.037</ele>
<time>2015-12-31T10:07:03.043Z</time>
</trkpt>
<trkpt lat="-27.3467917" lon="152.9058711">
<ele>104.447</ele>
<time>2015-12-31T10:07:05.088Z</time>
</trkpt>
<trkpt lat="-27.3465694" lon="152.9062073">
<ele>99.188</ele>
<time>2015-12-31T10:07:07.013Z</time>
</trkpt>
<trkpt lat="-27.3461403" lon="152.9067130">
<ele>94.299</ele>
<time>2015-12-31T10:07:10.119Z</time>
</trkpt>
<trkpt lat="-27.3458656" lon="152.9070379">
<ele>90.386</ele>
<time>2015-12-31T10:07:12.092Z</time>
</trkpt>
<trkpt lat="-27.3454283" lon="152.9075050">
<ele>86.942</ele>
<time>2015-12-31T10:07:15.118Z</time>
</trkpt>
<trkpt lat="-27.3451795" lon="152.9077951">
<ele>83.047</ele>
<time>2015-12-31T10:07:16.924Z</time>
</trkpt>
<trkpt lat="-27.3449179" lon="152.9081257">
<ele>78.410</ele>
<time>2015-12-31T10:07:18.910Z</time>
</trkpt>
<trkpt lat="-27.3445646" lon="152.9086298">
<ele>73.362</ele>
<time>2015-12-31T10:07:21.802Z</time>
</trkpt>
<trkpt lat="-27.3441549" lon="152.9090995">
<ele>68.257</ele>
<time>2015-12-31T10:07:24.770Z</time>
</trkpt>
<trkpt lat="-27.3438933" lon="152.9094014">
<ele>62.862</ele>
<time>2015-12-31T10:07:26.676Z</time>
</trkpt>
<trkpt lat="-27.3436787" lon="152.9097525">
<ele>57.024</ele>
<time>2015-12-31T10:07:28.616Z</time>
</trkpt>
<trkpt lat="-27.3434374" lon="152.9103375">
<ele>51.396</ele>
<time>2015-12-31T10:07:31.553Z</time>
</trkpt>
<trkpt lat="-27.3432982" lon="152.9109871">
<ele>46.306</ele>
<time>2015-12-31T10:07:34.588Z</time>
</trkpt>
<trkpt lat="-27.3432645" lon="152.9114253">
<ele>41.284</ele>
<time>2015-12-31T10:07:36.545Z</time>
</trkpt>
<trkpt lat="-27.3433159" lon="152.9121187">
<ele>36.871</ele>
<time>2015-12-31T10:07:39.586Z</time>
</trkpt>
<trkpt lat="-27.3433674" lon="152.9125759">
<ele>34.494</ele>
<time>2015-12-31T10:07:41.572Z</time>
</trkpt>
<trkpt lat="-27.3434751" lon="152.9132553">
<ele>34.653</ele>
<time>2015-12-31T10:07:44.563Z</time>
</trkpt>
<trkpt lat="-27.3435326" lon="152.9137020">
<ele>37.122</ele>
<time>2015-12-31T10:07:46.583Z</time>
</trkpt>
<trkpt lat="-27.3435315" lon="152.9141423">
<ele>41.342</ele>
<time>2015-12-31T10:07:48.618Z</time>
</trkpt>
<trkpt lat="-27.3434683" lon="152.9145629">
<ele>45.997</ele>
<time>2015-12-31T10:07:50.641Z</time>
</trkpt>
<trkpt lat="-27.3432443" lon="152.9151304">
<ele>49.944</ele>
<time>2015-12-31T10:07:53.618Z</time>
</trkpt>
<trkpt lat="-27.3428669" lon="152.9155848">
<ele>53.444</ele>
<time>2015-12-31T10:07:56.614Z</time>
</trkpt>
<trkpt lat="-27.3425470" lon="152.9157717">
<ele>57.408</ele>
<time>2015-12-31T10:07:58.546Z</time>
</trkpt>
<trkpt lat="-27.3421827" lon="152.9159158">
<ele>61.541</ele>
<time>2015-12-31T10:08:00.618Z</time>
</trkpt>
<trkpt lat="-27.3416064" lon="152.9159783">
<ele>64.951</ele>
<time>2015-12-31T10:08:03.735Z</time>
</trkpt>
<trkpt lat="-27.3412468" lon="152.9159198">
<ele>67.649</ele>
<time>2015-12-31T10:08:05.638Z</time>
</trkpt>
<trkpt lat="-27.3406903" lon="152.9157500">
<ele>70.093</ele>
<time>2015-12-31T10:08:08.619Z</time>
</trkpt>
<trkpt lat="-27.3401326" lon="152.9155684">
<ele>72.714</ele>
<time>2015-12-31T10:08:11.604Z</time>
</trkpt>
<trkpt lat="-27.3397512" lon="152.9154322">
<ele>75.765</ele>
<time>2015-12-31T10:08:13.662Z</time>
</trkpt>
<trkpt lat="-27.3393707" lon="152.9153176">
<ele>78.718</ele>
<time>2015-12-31T10:08:15.718Z</time>
</trkpt>
<trkpt lat="-27.3389958" lon="152.9152007">
<ele>80.898</ele>
<time>2015-12-31T10:08:17.758Z</time>
</trkpt>
<trkpt lat="-27.3384531" lon="152.9150439">
<ele>82.339</ele>
<time>2015-12-31T10:08:20.691Z</time>
</trkpt>
<trkpt lat="-27.3380797" lon="152.9149611">
<ele>83.394</ele>
<time>2015-12-31T10:08:22.686Z</time>
</trkpt>
<trkpt lat="-27.3377039" lon="152.9149386">
<ele>84.116</ele>
<time>2015-12-31T10:08:24.676Z</time>
</trkpt>
<trkpt lat="-27.3371390" lon="152.9150380">
<ele>84.328</ele>
<time>2015-12-31T10:08:27.706Z</time>
</trkpt>
<trkpt lat="-27.3366201" lon="152.9152958">
<ele>84.045</ele>
<time>2015-12-31T10:08:30.717Z</time>
</trkpt>
<trkpt lat="-27.3362074" lon="152.9157087">
<ele>83.556</ele>
<time>2015-12-31T10:08:33.665Z</time>
</trkpt>
<trkpt lat="-27.3358350" lon="152.9161718">
<ele>83.316</ele>
<time>2015-12-31T10:08:36.704Z</time>
</trkpt>
<trkpt lat="-27.3355019" lon="152.9166152">
<ele>83.962</ele>
<time>2015-12-31T10:08:39.674Z</time>
</trkpt>
<trkpt lat="-27.3350717" lon="152.9168996">
<ele>85.669</ele>
<time>2015-12-31T10:08:42.646Z</time>
</trkpt>
<trkpt lat="-27.3345664" lon="152.9169891">
<ele>88.066</ele>
<time>2015-12-31T10:08:45.668Z</time>
</trkpt>
<trkpt lat="-27.3342119" lon="152.9169346">
<ele>91.335</ele>
<time>2015-12-31T10:08:47.749Z</time>
</trkpt>
<trkpt lat="-27.3338728" lon="152.9168649">
<ele>95.686</ele>
<time>2015-12-31T10:08:49.931Z</time>
</trkpt>
<trkpt lat="-27.3334359" lon="152.9167983">
<ele>100.350</ele>
<time>2015-12-31T10:08:52.996Z</time>
</trkpt>
<trkpt lat="-27.3331831" lon="152.9168291">
<ele>104.111</ele>
<time>2015-12-31T10:08:54.912Z</time>
</trkpt>
<trkpt lat="-27.3328511" lon="152.9170711">
<ele>106.283</ele>
<time>2015-12-31T10:08:57.831Z</time>
</trkpt>
<trkpt lat="-27.3327027" lon="152.9173472">
<ele>107.177</ele>
<time>2015-12-31T10:08:59.792Z</time>
</trkpt>
<trkpt lat="-27.3326255" lon="152.9176816">
<ele>107.637</ele>
<time>2015-12-31T10:09:01.726Z</time>
</trkpt>
<trkpt lat="-27.3325721" lon="152.9182468">
<ele>108.298</ele>
<time>2015-12-31T10:09:04.860Z</time>
</trkpt>
<trkpt lat="-27.3324999" lon="152.9187722">
<ele>109.218</ele>
<time>2015-12-31T10:09:07.787Z</time>
</trkpt>
<trkpt lat="-27.3322909" lon="152.9192696">
<ele>109.936</ele>
<time>2015-12-31T10:09:10.680Z</time>
</trkpt>
<trkpt lat="-27.3318977" lon="152.9196963">
<ele>110.178</ele>
<time>2015-12-31T10:09:13.648Z</time>
</trkpt>
<trkpt lat="-27.3313942" lon="152.9200322">
<ele>110.065</ele>
<time>2015-12-31T10:09:16.674Z</time>
</trkpt>
<trkpt lat="-27.3310708" lon="152.9202511">
<ele>109.757</ele>
<time>2015-12-31T10:09:18.642Z</time>
</trkpt>
<trkpt lat="-27.3307546" lon="152.9205160">
<ele>108.862</ele>
<time>2015-12-31T10:09:20.773Z</time>
</trkpt>
<trkpt lat="-27.3304442" lon="152.9209724">
<ele>106.871</ele>
<time>2015-12-31T10:09:23.602Z</time>
</trkpt>
<trkpt lat="-27.3303148" lon="152.9213483">
<ele>104.417</ele>
<time>2015-12-31T10:09:25.623Z</time>
</trkpt>
<trkpt lat="-27.3302922" lon="152.9217394">
<ele>102.664</ele>
<time>2015-12-31T10:09:27.568Z</time>
</trkpt>
<trkpt lat="-27.3303930" lon="152.9223346">
<ele>101.903</ele>
<time>2015-12-31T10:09:30.488Z</time>
</trkpt>
<trkpt lat="-27.3306190" lon="152.9229666">
<ele>101.706</ele>
<time>2015-12-31T10:09:33.636Z</time>
</trkpt>
<trkpt lat="-27.3307292" lon="152.9233805">
<ele>101.281</ele>
<time>2015-12-31T10:09:35.597Z</time>
</trkpt>
<trkpt lat="-27.3308353" lon="152.9240244">
<ele>100.060</ele>
<time>2015-12-31T10:09:38.598Z</time>
</trkpt>
<trkpt lat="-27.3308618" lon="152.9244420">
<ele>98.493</ele>
<time>2015-12-31T10:09:40.555Z</time>
</trkpt>
<trkpt lat="-27.3308586" lon="152.9250959">
<ele>97.408</ele>
<time>2015-12-31T10:09:43.668Z</time>
</trkpt>
<trkpt lat="-27.3308819" lon="152.9257089">
<ele>97.003</ele>
<time>2015-12-31T10:09:46.677Z</time>
</trkpt>
<trkpt lat="-27.3309685" lon="152.9261032">
<ele>96.763</ele>
<time>2015-12-31T10:09:48.709Z</time>
</trkpt>
<trkpt lat="-27.3311691" lon="152.9266508">
<ele>96.184</ele>
<time>2015-12-31T10:09:51.673Z</time>
</trkpt>
<trkpt lat="-27.3312803" lon="152.9272209">
<ele>95.398</ele>
<time>2015-12-31T10:09:54.531Z</time>
</trkpt>
<trkpt lat="-27.3312757" lon="152.9276551">
<ele>94.793</ele>
<time>2015-12-31T10:09:56.562Z</time>
</trkpt>
<trkpt lat="-27.3312289" lon="152.9280826">
<ele>94.497</ele>
<time>2015-12-31T10:09:58.556Z</time>
</trkpt>
<trkpt lat="-27.3311574" lon="152.9284911">
<ele>94.323</ele>
<time>2015-12-31T10:10:00.520Z</time>
</trkpt>
<trkpt lat="-27.3309677" lon="152.9290925">
<ele>93.877</ele>
<time>2015-12-31T10:10:03.542Z</time>
</trkpt>
<trkpt lat="-27.3306465" lon="152.9296433">
<ele>93.155</ele>
<time>2015-12-31T10:10:06.606Z</time>
</trkpt>
<trkpt lat="-27.3303543" lon="152.9299509">
<ele>92.974</ele>
<time>2015-12-31T10:10:08.627Z</time>
</trkpt>
<trkpt lat="-27.3298873" lon="152.9303752">
<ele>93.791</ele>
<time>2015-12-31T10:10:11.634Z</time>
</trkpt>
<trkpt lat="-27.3294539" lon="152.9308607">
<ele>94.579</ele>
<time>2015-12-31T10:10:14.694Z</time>
</trkpt>
<trkpt lat="-27.3291577" lon="152.9314214">
<ele>93.960</ele>
<time>2015-12-31T10:10:17.603Z</time>
</trkpt>
<trkpt lat="-27.3289453" lon="152.9318090">
<ele>91.919</ele>
<time>2015-12-31T10:10:19.697Z</time>
</trkpt>
<trkpt lat="-27.3287592" lon="152.9321667">
<ele>89.277</ele>
<time>2015-12-31T10:10:21.718Z</time>
</trkpt>
<trkpt lat="-27.3285089" lon="152.9326668">
<ele>86.449</ele>
<time>2015-12-31T10:10:24.631Z</time>
</trkpt>
<trkpt lat="-27.3283443" lon="152.9329965">
<ele>83.698</ele>
<time>2015-12-31T10:10:26.597Z</time>
</trkpt>
<trkpt lat="-27.3280927" lon="152.9334815">
<ele>81.701</ele>
<time>2015-12-31T10:10:29.534Z</time>
</trkpt>
<trkpt lat="-27.3279319" lon="152.9338002">
<ele>80.818</ele>
<time>2015-12-31T10:10:31.564Z</time>
</trkpt>
<trkpt lat="-27.3277939" lon="152.9342718">
<ele>80.724</ele>
<time>2015-12-31T10:10:34.421Z</time>
</trkpt>
<trkpt lat="-27.3277490" lon="152.9346019">
<ele>80.676</ele>
<time>2015-12-31T10:10:36.372Z</time>
</trkpt>
<trkpt lat="-27.3277951" lon="152.9349511">
<ele>80.076</ele>
<time>2015-12-31T10:10:38.368Z</time>
</trkpt>
<trkpt lat="-27.3279984" lon="152.9354586">
<ele>78.631</ele>
<time>2015-12-31T10:10:41.429Z</time>
</trkpt>
<trkpt lat="-27.3282476" lon="152.9357231">
<ele>76.387</ele>
<time>2015-12-31T10:10:43.458Z</time>
</trkpt>
<trkpt lat="-27.3285213" lon="152.9359647">
<ele>74.098</ele>
<time>2015-12-31T10:10:45.390Z</time>
</trkpt>
<trkpt lat="-27.3288317" lon="152.9362188">
<ele>72.764</ele>
<time>2015-12-31T10:10:47.418Z</time>
</trkpt>
<trkpt lat="-27.3291419" lon="152.9364839">
<ele>72.623</ele>
<time>2015-12-31T10:10:49.477Z</time>
</trkpt>
<trkpt lat="-27.3294834" lon="152.9369688">
<ele>73.170</ele>
<time>2015-12-31T10:10:52.419Z</time>
</trkpt>
<trkpt lat="-27.3296867" lon="152.9375692">
<ele>73.539</ele>
<time>2015-12-31T10:10:55.490Z</time>
</trkpt>
<trkpt lat="-27.3297325" lon="152.9379605">
<ele>72.950</ele>
<time>2015-12-31T10:10:57.347Z</time>
</trkpt>
<trkpt lat="-27.3297401" lon="152.9383964">
<ele>71.214</ele>
<time>2015-12-31T10:10:59.347Z</time>
</trkpt>
<trkpt lat="-27.3297028" lon="152.9390647">
<ele>68.648</ele>
<time>2015-12-31T10:11:02.368Z</time>
</trkpt>
<trkpt lat="-27.3296606" lon="152.9394963">
<ele>65.325</ele>
<time>2015-12-31T10:11:04.311Z</time>
</trkpt>
<trkpt lat="-27.3296347" lon="152.9399426">
<ele>61.215</ele>
<time>2015-12-31T10:11:06.326Z</time>
</trkpt>
<trkpt lat="-27.3296091" lon="152.9403864">
<ele>56.612</ele>
<time>2015-12-31T10:11:08.350Z</time>
</trkpt>
<trkpt lat="-27.3295728" lon="152.9408188">
<ele>51.932</ele>
<time>2015-12-31T10:11:10.317Z</time>
</trkpt>
<trkpt lat="-27.3295262" lon="152.9415246">
<ele>47.762</ele>
<time>2015-12-31T10:11:13.402Z</time>
</trkpt>
<trkpt lat="-27.3294967" lon="152.9419782">
<ele>44.877</ele>
<time>2015-12-31T10:11:15.344Z</time>
</trkpt>
<trkpt lat="-27.3294486" lon="152.9426851">
<ele>43.507</ele>
<time>2015-12-31T10:11:18.383Z</time>
</trkpt>
<trkpt lat="-27.3293940" lon="152.9433723">
<ele>42.901</ele>
<time>2015-12-31T10:11:21.359Z</time>
</trkpt>
<trkpt lat="-27.3293254" lon="152.9440515">
<ele>42.231</ele>
<time>2015-12-31T10:11:24.312Z</time>
</trkpt>
<trkpt lat="-27.3292775" lon="152.9444957">
<ele>41.716</ele>
<time>2015-12-31T10:11:26.287Z</time>
</trkpt>
<trkpt lat="-27.3292473" lon="152.9449299">
<ele>41.955</ele>
<time>2015-12-31T10:11:28.271Z</time>
</trkpt>
<trkpt lat="-27.3292031" lon="152.9453563">
<ele>43.003</ele>
<time>2015-12-31T10:11:30.261Z</time>
</trkpt>
<trkpt lat="-27.3291761" lon="152.9459989">
<ele>44.481</ele>
<time>2015-12-31T10:11:33.322Z</time>
</trkpt>
<trkpt lat="-27.3291798" lon="152.9464112">
<ele>45.769</ele>
<time>2015-12-31T10:11:35.227Z</time>
</trkpt>
<trkpt lat="-27.3292092" lon="152.9470929">
<ele>46.103</ele>
<time>2015-12-31T10:11:38.248Z</time>
</trkpt>
<trkpt lat="-27.3292751" lon="152.9475451">
<ele>45.164</ele>
<time>2015-12-31T10:11:40.242Z</time>
</trkpt>
<trkpt lat="-27.3294095" lon="152.9481879">
<ele>43.653</ele>
<time>2015-12-31T10:11:43.196Z</time>
</trkpt>
<trkpt lat="-27.3295325" lon="152.9485765">
<ele>42.936</ele>
<time>2015-12-31T10:11:45.128Z</time>
</trkpt>
<trkpt lat="-27.3297348" lon="152.9491542">
<ele>43.526</ele>
<time>2015-12-31T10:11:48.065Z</time>
</trkpt>
<trkpt lat="-27.3298850" lon="152.9495574">
<ele>44.613</ele>
<time>2015-12-31T10:11:50.066Z</time>
</trkpt>
<trkpt lat="-27.3301171" lon="152.9502018">
<ele>45.284</ele>
<time>2015-12-31T10:11:53.145Z</time>
</trkpt>
<trkpt lat="-27.3303536" lon="152.9508217">
<ele>45.405</ele>
<time>2015-12-31T10:11:56.117Z</time>
</trkpt>
<trkpt lat="-27.3305832" lon="152.9514229">
<ele>44.521</ele>
<time>2015-12-31T10:11:59.087Z</time>
</trkpt>
<trkpt lat="-27.3308390" lon="152.9520053">
<ele>41.988</ele>
<time>2015-12-31T10:12:02.117Z</time>
</trkpt>
<trkpt lat="-27.3311235" lon="152.9525227">
<ele>38.694</ele>
<time>2015-12-31T10:12:05.095Z</time>
</trkpt>
<trkpt lat="-27.3313991" lon="152.9529884">
<ele>35.729</ele>
<time>2015-12-31T10:12:08.076Z</time>
</trkpt>
<trkpt lat="-27.3316386" lon="152.9533726">
<ele>32.790</ele>
<time>2015-12-31T10:12:10.757Z</time>
</trkpt>
<trkpt lat="-27.3318102" lon="152.9536407">
<ele>29.495</ele>
<time>2015-12-31T10:12:12.690Z</time>
</trkpt>
<trkpt lat="-27.3319913" lon="152.9539329">
<ele>26.327</ele>
<time>2015-12-31T10:12:14.776Z</time>
</trkpt>
<trkpt lat="-27.3322400" lon="152.9543587">
<ele>24.053</ele>
<time>2015-12-31T10:12:17.799Z</time>
</trkpt>
<trkpt lat="-27.3324084" lon="152.9546274">
<ele>22.814</ele>
<time>2015-12-31T10:12:19.748Z</time>
</trkpt>
<trkpt lat="-27.3325907" lon="152.9549028">
<ele>22.071</ele>
<time>2015-12-31T10:12:21.757Z</time>
</trkpt>
<trkpt lat="-27.3327739" lon="152.9552097">
<ele>21.621</ele>
<time>2015-12-31T10:12:23.916Z</time>
</trkpt>
<trkpt lat="-27.3330388" lon="152.9556460">
<ele>21.203</ele>
<time>2015-12-31T10:12:27.050Z</time>
</trkpt>
<trkpt lat="-27.3331823" lon="152.9559186">
<ele>20.514</ele>
<time>2015-12-31T10:12:29.217Z</time>
</trkpt>
<trkpt lat="-27.3333216" lon="152.9561671">
<ele>19.604</ele>
<time>2015-12-31T10:12:31.663Z</time>
</trkpt>
<trkpt lat="-27.3334303" lon="152.9563328">
<ele>17.832</ele>
<time>2015-12-31T10:12:33.998Z</time>
</trkpt>
<trkpt lat="-27.3334303" lon="152.9563328">
<ele>14.958</ele>
<time>2015-12-31T10:12:37.998Z</time>
</trkpt>
<trkpt lat="-27.3334303" lon="152.9563328">
<ele>12.885</ele>
<time>2015-12-31T10:12:48.372Z</time>
</trkpt>
<trkpt lat="-27.3335447" lon="152.9564722">
<ele>12.953</ele>
<time>2015-12-31T10:12:51.931Z</time>
</trkpt>
<trkpt lat="-27.3336919" lon="152.9566825">
<ele>14.032</ele>
<time>2015-12-31T10:12:54.104Z</time>
</trkpt>
<trkpt lat="-27.3339580" lon="152.9570390">
<ele>14.962</ele>
<time>2015-12-31T10:12:57.136Z</time>
</trkpt>
<trkpt lat="-27.3341670" lon="152.9572711">
<ele>15.770</ele>
<time>2015-12-31T10:12:59.152Z</time>
</trkpt>
<trkpt lat="-27.3343560" lon="152.9574689">
<ele>16.550</ele>
<time>2015-12-31T10:13:00.943Z</time>
</trkpt>
<trkpt lat="-27.3345524" lon="152.9577128">
<ele>16.901</ele>
<time>2015-12-31T10:13:02.952Z</time>
</trkpt>
<trkpt lat="-27.3347627" lon="152.9579448">
<ele>16.465</ele>
<time>2015-12-31T10:13:04.920Z</time>
</trkpt>
<trkpt lat="-27.3350824" lon="152.9582899">
<ele>15.557</ele>
<time>2015-12-31T10:13:07.838Z</time>
</trkpt>
<trkpt lat="-27.3352536" lon="152.9585288">
<ele>14.935</ele>
<time>2015-12-31T10:13:09.668Z</time>
</trkpt>
<trkpt lat="-27.3357393" lon="152.9591203">
<ele>15.238</ele>
<time>2015-12-31T10:13:14.620Z</time>
</trkpt>
<trkpt lat="-27.3359151" lon="152.9595457">
<ele>15.879</ele>
<time>2015-12-31T10:13:17.538Z</time>
</trkpt>
<trkpt lat="-27.3360078" lon="152.9600238">
<ele>17.278</ele>
<time>2015-12-31T10:13:20.635Z</time>
</trkpt>
<trkpt lat="-27.3360481" lon="152.9602960">
<ele>19.164</ele>
<time>2015-12-31T10:13:22.600Z</time>
</trkpt>
<trkpt lat="-27.3360713" lon="152.9604566">
<ele>20.429</ele>
<time>2015-12-31T10:13:23.960Z</time>
</trkpt>
<trkpt lat="-27.3360371" lon="152.9606349">
<ele>20.230</ele>
<time>2015-12-31T10:13:26.443Z</time>
</trkpt>
<trkpt lat="-27.3361108" lon="152.9607040">
<ele>18.509</ele>
<time>2015-12-31T10:13:28.998Z</time>
</trkpt>
<trkpt lat="-27.3361108" lon="152.9607040">
<ele>16.160</ele>
<time>2015-12-31T10:13:31.998Z</time>
</trkpt>
<trkpt lat="-27.3361108" lon="152.9607040">
<ele>14.740</ele>
<time>2015-12-31T10:13:36.895Z</time>
</trkpt>
<trkpt lat="-27.3361692" lon="152.9608684">
<ele>14.823</ele>
<time>2015-12-31T10:13:41.450Z</time>
</trkpt>
<trkpt lat="-27.3362801" lon="152.9609272">
<ele>15.549</ele>
<time>2015-12-31T10:13:43.315Z</time>
</trkpt>
<trkpt lat="-27.3365170" lon="152.9608757">
<ele>16.251</ele>
<time>2015-12-31T10:13:46.200Z</time>
</trkpt>
<trkpt lat="-27.3368668" lon="152.9608310">
<ele>17.534</ele>
<time>2015-12-31T10:13:49.370Z</time>
</trkpt>
<trkpt lat="-27.3371497" lon="152.9607984">
<ele>20.140</ele>
<time>2015-12-31T10:13:51.496Z</time>
</trkpt>
<trkpt lat="-27.3374468" lon="152.9607515">
<ele>23.553</ele>
<time>2015-12-31T10:13:53.525Z</time>
</trkpt>
<trkpt lat="-27.3379466" lon="152.9606597">
<ele>26.741</ele>
<time>2015-12-31T10:13:56.592Z</time>
</trkpt>
<trkpt lat="-27.3382956" lon="152.9606220">
<ele>29.501</ele>
<time>2015-12-31T10:13:58.599Z</time>
</trkpt>
<trkpt lat="-27.3387945" lon="152.9606729">
<ele>31.758</ele>
<time>2015-12-31T10:14:01.454Z</time>
</trkpt>
<trkpt lat="-27.3391262" lon="152.9608073">
<ele>32.963</ele>
<time>2015-12-31T10:14:03.482Z</time>
</trkpt>
<trkpt lat="-27.3394397" lon="152.9609249">
<ele>32.770</ele>
<time>2015-12-31T10:14:05.391Z</time>
</trkpt>
<trkpt lat="-27.3399472" lon="152.9610546">
<ele>31.363</ele>
<time>2015-12-31T10:14:08.344Z</time>
</trkpt>
<trkpt lat="-27.3404879" lon="152.9611223">
<ele>29.184</ele>
<time>2015-12-31T10:14:11.313Z</time>
</trkpt>
<trkpt lat="-27.3410400" lon="152.9611655">
<ele>26.174</ele>
<time>2015-12-31T10:14:14.246Z</time>
</trkpt>
<trkpt lat="-27.3414116" lon="152.9611658">
<ele>22.150</ele>
<time>2015-12-31T10:14:16.197Z</time>
</trkpt>
<trkpt lat="-27.3419632" lon="152.9612095">
<ele>18.185</ele>
<time>2015-12-31T10:14:19.113Z</time>
</trkpt>
<trkpt lat="-27.3423273" lon="152.9612457">
<ele>15.534</ele>
<time>2015-12-31T10:14:21.050Z</time>
</trkpt>
<trkpt lat="-27.3428788" lon="152.9613053">
<ele>14.175</ele>
<time>2015-12-31T10:14:24.007Z</time>
</trkpt>
<trkpt lat="-27.3433761" lon="152.9614008">
<ele>13.521</ele>
<time>2015-12-31T10:14:26.825Z</time>
</trkpt>
<trkpt lat="-27.3442525" lon="152.9618056">
<ele>13.147</ele>
<time>2015-12-31T10:14:32.585Z</time>
</trkpt>
<trkpt lat="-27.3445486" lon="152.9620795">
<ele>13.681</ele>
<time>2015-12-31T10:14:34.999Z</time>
</trkpt>
<trkpt lat="-27.3447531" lon="152.9623141">
<ele>15.784</ele>
<time>2015-12-31T10:14:36.857Z</time>
</trkpt>
<trkpt lat="-27.3450897" lon="152.9626444">
<ele>18.338</ele>
<time>2015-12-31T10:14:39.954Z</time>
</trkpt>
<trkpt lat="-27.3452475" lon="152.9627920">
<ele>19.756</ele>
<time>2015-12-31T10:14:41.660Z</time>
</trkpt>
<trkpt lat="-27.3454226" lon="152.9630484">
<ele>19.788</ele>
<time>2015-12-31T10:14:44.483Z</time>
</trkpt>
<trkpt lat="-27.3454953" lon="152.9631532">
<ele>18.927</ele>
<time>2015-12-31T10:14:45.998Z</time>
</trkpt>
<trkpt lat="-27.3454953" lon="152.9631532">
<ele>17.852</ele>
<time>2015-12-31T10:14:50.998Z</time>
</trkpt>
<trkpt lat="-27.3454953" lon="152.9631532">
<ele>17.233</ele>
<time>2015-12-31T10:15:11.788Z</time>
</trkpt>
<trkpt lat="-27.3457745" lon="152.9633198">
<ele>17.270</ele>
<time>2015-12-31T10:15:19.303Z</time>
</trkpt>
<trkpt lat="-27.3459111" lon="152.9632305">
<ele>17.473</ele>
<time>2015-12-31T10:15:21.199Z</time>
</trkpt>
<trkpt lat="-27.3461188" lon="152.9630203">
<ele>17.417</ele>
<time>2015-12-31T10:15:24.026Z</time>
</trkpt>
<trkpt lat="-27.3463647" lon="152.9627389">
<ele>17.671</ele>
<time>2015-12-31T10:15:27.140Z</time>
</trkpt>
<trkpt lat="-27.3465559" lon="152.9625584">
<ele>19.180</ele>
<time>2015-12-31T10:15:29.201Z</time>
</trkpt>
<trkpt lat="-27.3467542" lon="152.9623701">
<ele>21.544</ele>
<time>2015-12-31T10:15:31.271Z</time>
</trkpt>
<trkpt lat="-27.3471315" lon="152.9619990">
<ele>23.350</ele>
<time>2015-12-31T10:15:35.128Z</time>
</trkpt>
<trkpt lat="-27.3473267" lon="152.9618232">
<ele>23.820</ele>
<time>2015-12-31T10:15:37.057Z</time>
</trkpt>
<trkpt lat="-27.3475860" lon="152.9615764">
<ele>23.040</ele>
<time>2015-12-31T10:15:39.738Z</time>
</trkpt>
<trkpt lat="-27.3478181" lon="152.9611969">
<ele>21.453</ele>
<time>2015-12-31T10:15:43.065Z</time>
</trkpt>
<trkpt lat="-27.3479255" lon="152.9609560">
<ele>19.719</ele>
<time>2015-12-31T10:15:45.059Z</time>
</trkpt>
<trkpt lat="-27.3480219" lon="152.9605737">
<ele>18.324</ele>
<time>2015-12-31T10:15:48.034Z</time>
</trkpt>
<trkpt lat="-27.3480437" lon="152.9603057">
<ele>17.247</ele>
<time>2015-12-31T10:15:50.085Z</time>
</trkpt>
<trkpt lat="-27.3479972" lon="152.9599100">
<ele>16.248</ele>
<time>2015-12-31T10:15:53.180Z</time>
</trkpt>
<trkpt lat="-27.3479552" lon="152.9596661">
<ele>14.692</ele>
<time>2015-12-31T10:15:55.388Z</time>
</trkpt>
<trkpt lat="-27.3479097" lon="152.9593966">
<ele>12.365</ele>
<time>2015-12-31T10:15:59.509Z</time>
</trkpt>
<trkpt lat="-27.3478924" lon="152.9592836">
<ele>10.195</ele>
<time>2015-12-31T10:16:01.464Z</time>
</trkpt>
<trkpt lat="-27.3478726" lon="152.9591365">
<ele>8.908</ele>
<time>2015-12-31T10:16:04.005Z</time>
</trkpt>
<trkpt lat="-27.3478420" lon="152.9589071">
<ele>8.313</ele>
<time>2015-12-31T10:16:08.744Z</time>
</trkpt>
<trkpt lat="-27.3478072" lon="152.9586604">
<ele>8.427</ele>
<time>2015-12-31T10:16:11.492Z</time>
</trkpt>
<trkpt lat="-27.3477506" lon="152.9582543">
<ele>9.447</ele>
<time>2015-12-31T10:16:14.866Z</time>
</trkpt>
<trkpt lat="-27.3477315" lon="152.9579934">
<ele>11.546</ele>
<time>2015-12-31T10:16:16.761Z</time>
</trkpt>
<trkpt lat="-27.3477671" lon="152.9575885">
<ele>14.418</ele>
<time>2015-12-31T10:16:19.638Z</time>
</trkpt>
<trkpt lat="-27.3478368" lon="152.9573042">
<ele>17.417</ele>
<time>2015-12-31T10:16:21.709Z</time>
</trkpt>
<trkpt lat="-27.3480145" lon="152.9569266">
<ele>20.266</ele>
<time>2015-12-31T10:16:24.672Z</time>
</trkpt>
<trkpt lat="-27.3482671" lon="152.9566059">
<ele>23.100</ele>
<time>2015-12-31T10:16:27.698Z</time>
</trkpt>
<trkpt lat="-27.3484485" lon="152.9564097">
<ele>26.011</ele>
<time>2015-12-31T10:16:29.774Z</time>
</trkpt>
<trkpt lat="-27.3487071" lon="152.9561282">
<ele>28.634</ele>
<time>2015-12-31T10:16:32.653Z</time>
</trkpt>
<trkpt lat="-27.3489891" lon="152.9558215">
<ele>30.220</ele>
<time>2015-12-31T10:16:35.618Z</time>
</trkpt>
<trkpt lat="-27.3493580" lon="152.9556009">
<ele>30.441</ele>
<time>2015-12-31T10:16:38.711Z</time>
</trkpt>
<trkpt lat="-27.3497177" lon="152.9554558">
<ele>29.552</ele>
<time>2015-12-31T10:16:41.586Z</time>
</trkpt>
<trkpt lat="-27.3500769" lon="152.9553121">
<ele>27.968</ele>
<time>2015-12-31T10:16:44.573Z</time>
</trkpt>
<trkpt lat="-27.3504239" lon="152.9551735">
<ele>26.357</ele>
<time>2015-12-31T10:16:47.504Z</time>
</trkpt>
<trkpt lat="-27.3507793" lon="152.9550316">
<ele>25.688</ele>
<time>2015-12-31T10:16:50.439Z</time>
</trkpt>
<trkpt lat="-27.3511219" lon="152.9548947">
<ele>26.507</ele>
<time>2015-12-31T10:16:53.295Z</time>
</trkpt>
<trkpt lat="-27.3514376" lon="152.9547686">
<ele>28.662</ele>
<time>2015-12-31T10:16:56.124Z</time>
</trkpt>
<trkpt lat="-27.3516820" lon="152.9546710">
<ele>31.343</ele>
<time>2015-12-31T10:16:58.307Z</time>
</trkpt>
<trkpt lat="-27.3520605" lon="152.9545244">
<ele>33.057</ele>
<time>2015-12-31T10:17:01.443Z</time>
</trkpt>
<trkpt lat="-27.3524234" lon="152.9543882">
<ele>32.632</ele>
<time>2015-12-31T10:17:04.443Z</time>
</trkpt>
<trkpt lat="-27.3526447" lon="152.9543114">
<ele>30.640</ele>
<time>2015-12-31T10:17:06.414Z</time>
</trkpt>
<trkpt lat="-27.3528346" lon="152.9542501">
<ele>28.574</ele>
<time>2015-12-31T10:17:08.264Z</time>
</trkpt>
<trkpt lat="-27.3531127" lon="152.9542428">
<ele>27.304</ele>
<time>2015-12-31T10:17:11.076Z</time>
</trkpt>
<trkpt lat="-27.3533034" lon="152.9542663">
<ele>26.875</ele>
<time>2015-12-31T10:17:13.074Z</time>
</trkpt>
<trkpt lat="-27.3535044" lon="152.9543122">
<ele>27.385</ele>
<time>2015-12-31T10:17:15.143Z</time>
</trkpt>
<trkpt lat="-27.3538216" lon="152.9544472">
<ele>28.856</ele>
<time>2015-12-31T10:17:18.282Z</time>
</trkpt>
<trkpt lat="-27.3540131" lon="152.9545722">
<ele>30.867</ele>
<time>2015-12-31T10:17:20.233Z</time>
</trkpt>
<trkpt lat="-27.3542011" lon="152.9547220">
<ele>32.643</ele>
<time>2015-12-31T10:17:22.317Z</time>
</trkpt>
<trkpt lat="-27.3544221" lon="152.9549458">
<ele>33.515</ele>
<time>2015-12-31T10:17:25.192Z</time>
</trkpt>
<trkpt lat="-27.3545559" lon="152.9550997">
<ele>33.407</ele>
<time>2015-12-31T10:17:27.314Z</time>
</trkpt>
<trkpt lat="-27.3546915" lon="152.9553908">
<ele>32.704</ele>
<time>2015-12-31T10:17:30.809Z</time>
</trkpt>
<trkpt lat="-27.3547996" lon="152.9557023">
<ele>31.646</ele>
<time>2015-12-31T10:17:34.021Z</time>
</trkpt>
<trkpt lat="-27.3548728" lon="152.9560563">
<ele>30.148</ele>
<time>2015-12-31T10:17:36.982Z</time>
</trkpt>
<trkpt lat="-27.3548792" lon="152.9562988">
<ele>27.744</ele>
<time>2015-12-31T10:17:38.908Z</time>
</trkpt>
<trkpt lat="-27.3548761" lon="152.9565387">
<ele>24.409</ele>
<time>2015-12-31T10:17:40.920Z</time>
</trkpt>
<trkpt lat="-27.3548882" lon="152.9567554">
<ele>21.311</ele>
<time>2015-12-31T10:17:42.879Z</time>
</trkpt>
<trkpt lat="-27.3548992" lon="152.9570636">
<ele>19.319</ele>
<time>2015-12-31T10:17:45.818Z</time>
</trkpt>
<trkpt lat="-27.3549055" lon="152.9572272">
<ele>18.080</ele>
<time>2015-12-31T10:17:47.552Z</time>
</trkpt>
<trkpt lat="-27.3548475" lon="152.9573846">
<ele>17.053</ele>
<time>2015-12-31T10:17:49.845Z</time>
</trkpt>
<trkpt lat="-27.3549537" lon="152.9574041">
<ele>16.062</ele>
<time>2015-12-31T10:17:51.902Z</time>
</trkpt>
<trkpt lat="-27.3551529" lon="152.9573275">
<ele>15.223</ele>
<time>2015-12-31T10:17:56.271Z</time>
</trkpt>
<trkpt lat="-27.3553361" lon="152.9573098">
<ele>14.875</ele>
<time>2015-12-31T10:17:58.454Z</time>
</trkpt>
<trkpt lat="-27.3555362" lon="152.9572668">
<ele>15.056</ele>
<time>2015-12-31T10:18:00.516Z</time>
</trkpt>
<trkpt lat="-27.3558257" lon="152.9571731">
<ele>15.408</ele>
<time>2015-12-31T10:18:03.526Z</time>
</trkpt>
<trkpt lat="-27.3560259" lon="152.9570358">
<ele>15.613</ele>
<time>2015-12-31T10:18:06.134Z</time>
</trkpt>
<trkpt lat="-27.3561752" lon="152.9569551">
<ele>15.448</ele>
<time>2015-12-31T10:18:08.255Z</time>
</trkpt>
<trkpt lat="-27.3563838" lon="152.9567925">
<ele>14.890</ele>
<time>2015-12-31T10:18:11.404Z</time>
</trkpt>
<trkpt lat="-27.3565149" lon="152.9566903">
<ele>14.461</ele>
<time>2015-12-31T10:18:13.377Z</time>
</trkpt>
<trkpt lat="-27.3566637" lon="152.9565744">
<ele>14.551</ele>
<time>2015-12-31T10:18:15.998Z</time>
</trkpt>
<trkpt lat="-27.3566637" lon="152.9565744">
<ele>14.798</ele>
<time>2015-12-31T10:18:21.998Z</time>
</trkpt>
<trkpt lat="-27.3566637" lon="152.9565744">
<ele>14.809</ele>
<time>2015-12-31T10:18:43.495Z</time>
</trkpt>
<trkpt lat="-27.3568355" lon="152.9565919">
<ele>14.699</ele>
<time>2015-12-31T10:19:01.071Z</time>
</trkpt>
<trkpt lat="-27.3567751" lon="152.9565001">
<ele>15.153</ele>
<time>2015-12-31T10:19:16.121Z</time>
</trkpt>
<trkpt lat="-27.3567751" lon="152.9565001">
<ele>15.153</ele>
<time>2015-12-31T10:19:16.121Z</time>
</trkpt>
<trkpt lat="-27.3567963" lon="152.9565285">
<ele>20.669</ele>
<time>2015-12-31T10:19:21.000Z</time>
</trkpt>
<trkpt lat="-27.3567963" lon="152.9565285">
<ele>20.660</ele>
<time>2015-12-31T10:19:24.000Z</time>
</trkpt>
<trkpt lat="-27.3567963" lon="152.9565285">
<ele>20.654</ele>
<time>2015-12-31T10:21:11.459Z</time>
</trkpt>
<trkpt lat="-27.3569514" lon="152.9568450">
<ele>20.650</ele>
<time>2015-12-31T10:21:29.542Z</time>
</trkpt>
<trkpt lat="-27.3569608" lon="152.9567147">
<ele>20.700</ele>
<time>2015-12-31T10:21:34.000Z</time>
</trkpt>
<trkpt lat="-27.3569608" lon="152.9567147">
<ele>20.840</ele>
<time>2015-12-31T10:21:45.000Z</time>
</trkpt>
</trkseg>
</trk>
<extensions>
<fpdata xmlns="http://www.motionx.com/GPX-Extensions/1/1" sfv="10" origin="MotionXGPSFull 24.1 Build 5049R64">
<bin enc="base64">
RgIAAAACAAAAavhnIjeh1UEBAAAA7DP5ckCh1UEAALBLofu0QCcIAACMGIAAIq16eUso
PUBWMOt/Gdc0QAAAAAAUAAAATmV3IFllYXJzICBFdmUgMjAxNQAVAAAAMzEgRGVjIDIw
MTUgIDU6NDMgcG0AAAAAADM0+XJAodVBkL27f0Ch1UFDJX8AkeAk5EdrmEAsAAAAAQAA
AJQTIBSaHmNAAxzwR2BbO8AirXp5Syg9QAAAAAAAACRAAAAAAAAAMEAAAAAAAKamQAAA
AAAAAAAAAAAAAFuPwvUoLF5A0M1XTOvHLUABAAAAoXwsplmgpr8BAAAAAQAAAHHJbZI3
lrk/csP/uLc+xr8BAAAAAQAAAAMAAADbu/WFLdxVQAAAAAAAAAAAAQAAAA4AAABUcmFj
a18wMDEuZ3B4AAEAAACHUgxzQKHVQQoAAAABAAAACgAAAFRyYWNrIDAwMQAAAAAADAAA
AAAAAAAAAAAApQAAADcDQG5AodVBAAAAAAAAAAAAAAAAAAAAAP8lRLwCAAAAAAAAAAAA
AAABAAAAJwAAADI0LjEgQnVpbGQgNTA0OVI2NCwgTVhBRSA4LjEgYi4gNjI2UjY0AAAA
AAATaQAAAQAAAAEZAAAAidyEVrkBhVYEt+1pJDeh1UG37WkkN6HVQQAAAGqqDyBAAAAA
AAM0EHgnN6HVQTQQeCc3odVBAAAAKV9ANEAAAAAABBuehkQ3odVBG56GRDeh1UEAACDQ
Ug9hQAAAAAACjPhnIjeh1UGI2YhEN6HVQQAAAH5wEGFAAAAAAAIIP4hpN6HVQUAyRm03
odVBAAAAGmrvYkAAAAAAAkgwTZo3odVBaOxGnTeh1UEAAAAqSGxkQAAAAAACLXxInjeh
1UGDwEe7N6HVQQAAgCr1dXFAAAAAAAICfYi9N6HVQTcZyhQ4odVBAADgGy6jg0AAAAAA
AiGtyR84odVBUkWHOzih1UEAAAAi4RqHQAAAAAACwAnLRDih1UE4EYlwOKHVQQAAABGi
koxAAAAAAAIRiwt1OKHVQUiGiXw4odVBAADgd2GCjUAAAAAAAsee2X04odVBO3HHqTih
1UEAADDjDYCRQAAAAAACIjSJrTih1UHPv0jCOKHVQQAAAJ4GzJJAAAAAAAKY9YqIO6HV
QTiiSIk7odVBAAAAaOHXkkAAAAAAAnjwiuQ7odVBYwpL7Duh1UEAALAG41OTQAAAAAAC
75FL8Tuh1UGAn4Y4PaHVQQAA4O/J46NAAAAAAAKeYohGPaHVQTjyRQw+odVBAACwbLYR
qkAAAAAAAr4zij4+odVBbqiI5T+h1UEAABgJ1aSzQAAAAAACLJvK6D+h1UF8nQbzP6HV
QQAAWBLFzbNAAAAAAALZQQv1P6HVQYBfyQZAodVBAAD0iL0UtEAAAAAAAtGtTA1AodVB
6ziNO0Ch1UEAAFy1v820QAAAAAADOiI0SECh1UE6IjRIQKHVQQAABjda47RAAAAAAATs
2UdKQKHVQezZR0pAodVBAADQFanrtEAAAAAAAvGBzUJAodVB7iQHS0Ch1UEAAFBBpu60
QAAAAAACqrYIa0Ch1UFCeUduQKHVQQAAsEuh+7RAAAAAAAAAAAA=
</bin>
</fpdata>
</extensions>
</gpx>